[[{"header":{"parameterUnit":"m.s-1","parameterCategory":1,"la1":31.0,"la2":29.5877,"lo1":-88.7671,"lo2":-86.6584,"dy":0.0162,"dx":0.0185,"nx":115,"ny":88,"refTime":"2024-09-29T18:00:00:Z","depth":0,"parameterNumber":2,"parameterNumberName":"U-component_of_WINDS"},"data":[0.0,0.0,0.0,0.0,0.0,0.0,0.0,0.0,0.0,0.0,0.0,0.0,0.0,0.0,0.0,0.0,0.0,0.0,0.0,0.0,0.0,0.0,0.0,0.0,0.0,0.0,0.0,0.0,0.0,0.0,0.0,0.0,0.0,0.0,0.0,0.0,0.0,0.0,0.0,0.0,0.0,0.0,0.0,0.0,0.0,0.0,0.0,0.0,0.0,0.0,0.0,0.0,0.0,0.0,0.0,0.0,0.0,0.0,0.0,0.0,0.0,0.0,0.0,0.0,0.0,0.0,0.0,0.0,0.0,0.0,0.0,0.0,0.0,0.0,0.0,0.0,0.0,0.0,0.0,0.0,0.0,0.0,0.0,0.0,0.0,0.0,0.0,0.0,0.0,0.0,0.0,0.0,0.0,0.0,0.0,0.0,0.0,0.0,0.0,0.0,0.0,0.0,0.0,0.0,0.0,0.0,0.0,0.0,0.0,0.0,0.0,0.0,0.0,0.0,0.0,0.0,0.0,0.0,0.0,0.0,0.0,0.0,0.0,0.0,0.0,0.0,0.0,0.0,0.0,0.0,0.0,0.0,0.0,0.0,0.0,0.0,0.0,0.0,0.0,0.0,0.0,0.0,0.0,0.0,0.0,0.0,0.0,0.0,0.0,0.0,0.0,0.0,0.0,0.0,0.0,0.0,0.0,0.0,0.0,0.0,0.0,0.0,0.0,0.0,0.0,0.0,0.0,0.0,0.0,0.0,0.0,0.0,0.0,0.0,0.0,0.0,0.0,0.0,0.0,0.0,0.0,0.0,0.0,0.0,0.0,0.0,0.0,0.0,0.0,0.0,0.0,0.0,0.0,0.0,0.0,0.0,0.0,0.0,0.0,0.0,0.0,0.0,0.0,0.0,0.0,0.0,0.0,0.0,0.0,0.0,0.0,0.0,0.0,0.0,0.0,0.0,0.0,0.0,0.0,0.0,0.0,0.0,0.0,0.0,0.0,0.0,0.0,0.0,0.0,0.0,0.0,0.0,0.0,0.0,0.0,0.0,0.0,0.0,0.0,0.0,0.0,0.0,0.0,0.0,0.0,0.0,0.0,0.0,0.0,0.0,0.0,0.0,0.0,0.0,0.0,0.0,0.0,0.0,0.0,0.0,0.0,0.0,0.0,0.0,0.0,0.0,0.0,0.0,0.0,0.0,0.0,0.0,0.0,0.0,0.0,0.0,0.0,0.0,0.0,0.0,0.0,0.0,0.0,0.0,0.0,0.0,0.0,0.0,0.0,0.0,0.0,0.0,0.0,0.0,0.0,0.0,0.0,0.0,0.0,0.0,0.0,0.0,0.0,0.0,0.0,0.0,0.0,0.0,0.0,0.0,0.0,0.0,0.0,0.0,0.0,0.0,0.0,0.0,0.0,0.0,0.0,0.0,0.0,0.0,0.0,0.0,0.0,0.0,0.0,0.0,0.0,0.0,0.0,0.0,0.0,0.0,0.0,0.0,0.0,0.0,0.0,0.0,0.0,0.0,0.0,0.0,0.0,0.0,0.0,0.0,0.0,0.0,0.0,0.0,0.0,0.0,0.0,0.0,0.0,0.0,0.0,0.0,0.0,0.0,0.0,0.0,0.0,0.0,0.0,0.0,0.0,0.0,0.0,0.0,0.0,0.0,0.0,0.0,0.0,0.0,0.0,0.0,0.0,0.0,0.0,0.0,0.0,0.0,0.0,0.0,0.0,0.0,0.0,0.0,0.0,0.0,0.0,0.0,0.0,0.0,0.0,0.0,0.0,0.0,0.0,0.0,0.0,0.0,0.0,0.0,0.0,0.0,0.0,0.0,0.0,0.0,0.0,0.0,0.0,0.0,0.0,0.0,0.0,0.0,0.0,0.0,0.0,0.0,0.0,0.0,0.0,0.0,0.0,0.0,0.0,0.0,0.0,0.0,0.0,0.0,0.0,0.0,0.0,0.0,0.0,0.0,0.0,0.0,0.0,0.0,0.0,0.0,0.0,0.0,0.0,0.0,0.0,0.0,0.0,0.0,0.0,0.0,0.0,0.0,0.0,0.0,0.0,0.0,0.0,0.0,0.0,0.0,0.0,0.0,0.0,0.0,0.0,0.0,0.0,0.0,0.0,0.0,0.0,0.0,0.0,0.0,0.0,0.0,0.0,0.0,0.0,0.0,0.0,0.0,0.0,0.0,0.0,0.0,0.0,0.0,0.0,0.0,0.0,0.0,0.0,0.0,0.0,0.0,0.0,0.0,0.0,0.0,0.0,0.0,0.0,0.0,0.0,0.0,0.0,0.0,0.0,0.0,0.0,0.0,0.0,0.0,0.0,0.0,0.0,0.0,0.0,0.0,0.0,0.0,0.0,0.0,0.0,0.0,0.0,0.0,0.0,0.0,0.0,0.0,0.0,0.0,0.0,0.0,0.0,0.0,0.0,0.0,0.0,0.0,0.0,0.0,0.0,0.0,0.0,0.0,0.0,0.0,0.0,0.0,0.0,0.0,0.0,0.0,0.0,0.0,0.0,0.0,0.0,0.0,0.0,0.0,0.0,0.0,0.0,0.0,0.0,0.0,0.0,0.0,0.0,0.0,0.0,0.0,0.0,0.0,0.0,0.0,0.0,0.0,0.0,0.0,0.0,0.0,0.0,0.0,0.0,0.0,0.0,0.0,0.0,0.0,0.0,0.0,0.0,0.0,0.0,0.0,0.0,0.0,0.0,0.0,0.0,0.0,0.0,0.0,0.0,0.0,0.0,0.0,0.0,0.0,0.0,0.0,0.0,0.0,0.0,0.0,0.0,0.0,0.0,0.0,0.0,0.0,0.0,0.0,0.0,0.0,0.0,0.0,0.0,0.0,0.0,0.0,0.0,0.0,0.0,0.0,0.0,0.0,0.0,0.0,0.0,0.0,0.0,0.0,0.0,0.0,0.0,0.0,0.0,0.0,0.0,0.0,0.0,0.0,0.0,0.0,0.0,0.0,0.0,0.0,0.0,0.0,0.0,0.0,0.0,0.0,0.0,0.0,0.0,0.0,0.0,0.0,0.0,0.0,0.0,0.0,0.0,0.0,0.0,0.0,0.0,0.0,0.0,0.0,0.0,0.0,0.0,0.0,0.0,0.0,0.0,0.0,0.0,0.0,0.0,0.0,0.0,0.0,0.0,0.0,0.0,0.0,0.0,0.0,0.0,0.0,0.0,0.0,0.0,0.0,0.0,0.0,0.0,0.0,0.0,0.0,0.0,0.0,0.0,0.0,0.0,0.0,0.0,0.0,0.0,0.0,0.0,0.0,0.0,0.0,0.0,0.0,0.0,0.0,0.0,0.0,0.0,0.0,0.0,0.0,0.0,0.0,0.0,0.0,0.0,0.0,0.0,0.0,0.0,0.0,0.0,0.0,0.0,0.0,0.0,0.0,0.0,0.0,0.0,0.0,0.0,0.0,0.0,0.0,0.0,0.0,0.0,0.0,0.0,0.0,0.0,0.0,0.0,0.0,0.0,0.0,0.0,0.0,0.0,0.0,0.0,0.0,0.0,0.0,0.0,0.0,0.0,0.0,0.0,0.0,0.0,0.0,0.0,0.0,0.0,0.0,0.0,0.0,0.0,0.0,0.0,0.0,0.0,0.0,0.0,0.0,0.0,0.0,0.0,0.0,0.0,0.0,0.0,0.0,0.0,0.0,0.0,0.0,0.0,0.0,0.0,0.0,0.0,0.0,0.0,0.0,0.0,0.0,0.0,0.0,0.0,0.0,0.0,0.0,0.0,0.0,0.0,0.0,0.0,0.0,0.0,0.0,0.0,0.0,0.0,0.0,0.0,0.0,0.0,0.0,0.0,0.0,0.0,0.0,0.0,0.0,0.0,0.0,0.0,0.0,0.0,0.0,0.0,0.0,0.0,0.0,0.0,0.0,0.0,0.0,0.0,0.0,0.0,0.0,0.0,0.0,0.0,0.0,0.0,0.0,0.0,0.0,0.0,0.0,0.0,0.0,0.0,0.0,0.0,0.0,0.0,0.0,0.0,0.0,0.0,0.0,0.0,0.0,0.0,0.0,0.0,0.0,0.0,0.0,0.0,0.0,0.0,0.0,0.0,0.0,0.0,0.0,0.0,0.0,0.0,0.0,0.0,0.0,0.0,0.0,0.0,0.0,0.0,0.0,0.0,0.0,0.0,0.0,0.0,0.0,0.0,0.0,0.0,0.0,0.0,0.0,0.0,0.0,0.0,0.0,0.0,0.0,0.0,0.0,0.0,0.0,0.0,0.0,0.0,0.0,1.8067,0.0,0.0,0.0,0.0,0.0,0.0,0.0,0.0,0.0,0.0,0.0,0.0,0.0,0.0,0.0,0.0,0.0,0.0,0.0,0.0,0.0,0.0,0.0,0.0,0.0,0.0,0.0,0.0,0.0,0.0,0.0,0.0,0.0,0.0,0.0,0.0,0.0,0.0,0.0,0.0,0.0,0.0,0.0,0.0,0.0,0.0,0.0,0.0,0.0,0.0,0.0,0.0,0.0,0.0,0.0,0.0,0.0,0.0,0.0,0.0,0.0,0.0,0.0,0.0,0.0,0.0,0.0,0.0,0.0,0.0,0.0,0.0,0.0,0.0,0.0,0.0,0.0,0.0,0.0,0.0,0.0,0.0,0.0,0.0,0.0,0.0,0.0,0.0,0.0,0.0,0.0,0.0,0.0,0.0,0.0,0.0,0.0,0.0,0.0,0.0,0.0,0.0,0.0,0.0,0.0,0.0,0.0,0.0,0.0,0.0,1.9497,1.9748,1.8756,1.8192,1.8143,0.0,0.0,0.0,0.0,0.0,0.0,0.0,0.0,0.0,0.0,0.0,0.0,0.0,0.0,0.0,0.0,0.0,0.0,0.0,0.0,0.0,0.0,0.0,0.0,0.0,0.0,0.0,0.0,0.0,0.0,0.0,0.0,0.0,0.0,0.0,0.0,0.0,0.0,0.0,0.0,0.0,0.0,0.0,0.0,0.0,0.0,0.0,0.0,0.0,0.0,0.0,0.0,0.0,0.0,0.0,0.0,0.0,0.0,0.0,0.0,0.0,0.0,0.0,0.0,0.0,0.0,0.0,0.0,0.0,0.0,0.0,0.0,0.0,0.0,0.0,0.0,0.0,0.0,0.0,0.0,0.0,0.0,0.0,0.0,0.0,0.0,0.0,0.0,0.0,0.0,0.0,0.0,0.0,0.0,0.0,0.0,0.0,0.0,0.0,0.0,0.0,0.0,0.0,0.0,0.0,0.0,0.0,0.0,0.0,0.0,0.0,0.0,1.9258,1.857,1.8164,0.0,0.0,0.0,0.0,0.0,0.0,0.0,0.0,0.0,0.0,0.0,0.0,0.0,0.0,0.0,0.0,0.0,0.0,0.0,0.0,0.0,0.0,0.0,0.0,0.0,0.0,0.0,0.0,0.0,0.0,0.0,0.0,0.0,0.0,0.0,0.0,0.0,0.0,0.0,0.0,0.0,0.0,0.0,0.0,0.0,0.0,0.0,0.0,0.0,0.0,0.0,0.0,0.0,0.0,0.0,0.0,0.0,0.0,0.0,0.0,0.0,0.0,0.0,0.0,0.0,0.0,0.0,0.0,0.0,0.0,0.0,0.0,0.0,0.0,0.0,0.0,0.0,0.0,0.0,0.0,0.0,0.0,0.0,0.0,0.0,0.0,0.0,0.0,0.0,0.0,0.0,0.0,0.0,0.0,0.0,0.0,0.0,0.0,0.0,0.0,0.0,0.0,0.0,0.0,0.0,0.0,0.0,0.0,0.0,0.0,1.9748,2.1281,2.0767,0.0,1.8281,0.0,0.0,0.0,0.0,0.0,0.0,0.0,0.0,0.0,0.0,0.0,0.0,0.0,0.0,0.0,0.0,0.0,0.0,0.0,0.0,0.0,0.0,0.0,0.0,0.0,0.0,0.0,0.0,0.0,0.0,0.0,0.0,0.0,0.0,0.0,0.0,0.0,0.0,0.0,0.0,0.0,0.0,0.0,0.0,0.0,0.0,0.0,0.0,0.0,0.0,0.0,0.0,0.0,0.0,0.0,0.0,0.0,0.0,0.0,0.0,0.0,0.0,0.0,0.0,0.0,0.0,0.0,0.0,0.0,0.0,0.0,0.0,0.0,0.0,0.0,0.0,0.0,0.0,0.0,0.0,0.0,0.0,0.0,0.0,0.0,0.0,0.0,0.0,0.0,0.0,0.0,0.0,0.0,0.0,0.0,0.0,0.0,0.0,0.0,0.0,0.0,0.0,0.0,0.0,0.0,0.0,0.0,0.0,0.0,0.0,1.9962,2.1018,2.0465,1.9683,0.0,0.0,0.0,0.0,0.0,0.0,0.0,0.0,0.0,0.0,0.0,0.0,0.0,0.0,0.0,0.0,0.0,0.0,0.0,0.0,0.0,0.0,0.0,0.0,0.0,0.0,0.0,0.0,0.0,0.0,0.0,0.0,0.0,0.0,0.0,0.0,0.0,0.0,0.0,0.0,0.0,0.0,0.0,0.0,0.0,0.0,0.0,0.0,0.0,0.0,0.0,0.0,0.0,0.0,0.0,0.0,0.0,0.0,0.0,0.0,0.0,0.0,0.0,0.0,0.0,0.0,0.0,0.0,0.0,0.0,0.0,0.0,0.0,0.0,0.0,0.0,0.0,0.0,0.0,0.0,0.0,0.0,0.0,0.0,0.0,0.0,0.0,0.0,0.0,0.0,0.0,0.0,0.0,0.0,0.0,0.0,0.0,0.0,0.0,0.0,0.0,0.0,0.0,0.0,0.0,0.0,0.0,0.0,0.0,0.0,1.966,2.0213,2.1055,2.0577,1.9886,1.902,0.0,0.0,0.0,0.0,0.0,0.0,0.0,0.0,0.0,0.0,0.0,0.0,0.0,0.0,0.0,0.0,0.0,0.0,0.0,0.0,0.0,0.0,0.0,0.0,0.0,0.0,0.0,0.0,0.0,0.0,0.0,0.0,0.0,0.0,0.0,0.0,0.0,0.0,0.0,0.0,0.0,0.0,0.0,0.0,0.0,0.0,0.0,0.0,0.0,0.0,0.0,0.0,0.0,0.0,0.0,0.0,0.0,0.0,0.0,0.0,0.0,0.0,0.0,0.0,0.0,0.0,0.0,0.0,0.0,0.0,0.0,0.0,0.0,0.0,0.0,0.0,0.0,0.0,0.0,0.0,0.0,0.0,0.0,0.0,0.0,0.0,0.0,0.0,0.0,0.0,0.0,0.0,0.0,0.0,0.0,0.0,0.0,0.0,0.0,0.0,0.0,0.0,0.0,0.0,0.0,0.0,0.0,0.0,0.0,2.0564,2.0589,2.2157,2.1694,2.0665,0.0,0.0,0.0,0.0,0.0,0.0,0.0,0.0,0.0,0.0,0.0,0.0,0.0,0.0,0.0,0.0,0.0,0.0,0.0,0.0,0.0,0.0,0.0,0.0,0.0,0.0,0.0,0.0,0.0,0.0,0.0,0.0,0.0,0.0,0.0,0.0,0.0,0.0,0.0,0.0,0.0,0.0,0.0,0.0,0.0,0.0,0.0,0.0,0.0,0.0,0.0,0.0,0.0,0.0,0.0,0.0,0.0,0.0,0.0,0.0,0.0,0.0,0.0,0.0,0.0,0.0,0.0,0.0,0.0,0.0,0.0,0.0,0.0,0.0,0.0,0.0,0.0,0.0,0.0,0.0,0.0,0.0,0.0,0.0,0.0,0.0,0.0,0.0,0.0,0.0,0.0,0.0,0.0,0.0,0.0,0.0,0.0,0.0,0.0,0.0,0.0,0.0,0.0,0.0,0.0,0.0,0.0,0.0,0.0,1.8543,1.9033,2.0601,2.3175,2.1128,2.0124,0.0,0.0,0.0,0.0,0.0,0.0,0.0,0.0,0.0,0.0,0.0,0.0,0.0,0.0,0.0,0.0,0.0,0.0,0.0,0.0,0.0,0.0,0.0,0.0,0.0,0.0,0.0,0.0,0.0,0.0,0.0,0.0,0.0,0.0,0.0,0.0,0.0,0.0,0.0,0.0,0.0,0.0,0.0,0.0,0.0,0.0,0.0,0.0,0.0,0.0,0.0,0.0,0.0,0.0,0.0,0.0,0.0,0.0,0.0,0.0,0.0,0.0,0.0,0.0,0.0,0.0,0.0,0.0,0.0,0.0,0.0,0.0,0.0,0.0,0.0,0.0,0.0,0.0,0.0,0.0,0.0,0.0,0.0,0.0,0.0,0.0,0.0,0.0,0.0,0.0,0.0,0.0,0.0,0.0,0.0,0.0,0.0,0.0,0.0,0.0,0.0,0.0,0.0,0.0,0.0,0.0,0.0,0.0,0.0,1.8117,0.0,2.1468,0.0,2.1016,1.9823,0.0,0.0,0.0,0.0,0.0,0.0,0.0,0.0,0.0,0.0,0.0,0.0,0.0,0.0,0.0,0.0,0.0,0.0,0.0,0.0,0.0,0.0,0.0,0.0,0.0,0.0,0.0,0.0,0.0,0.0,0.0,0.0,0.0,0.0,0.0,0.0,0.0,0.0,0.0,0.0,0.0,0.0,0.0,0.0,0.0,0.0,0.0,0.0,0.0,0.0,0.0,0.0,0.0,0.0,0.0,0.0,0.0,0.0,0.0,0.0,0.0,0.0,0.0,0.0,0.0,0.0,0.0,0.0,0.0,0.0,0.0,0.0,0.0,0.0,0.0,0.0,0.0,0.0,0.0,0.0,0.0,0.0,0.0,0.0,0.0,0.0,0.0,0.0,0.0,0.0,0.0,0.0,0.0,0.0,0.0,0.0,0.0,0.0,0.0,0.0,0.0,0.0,0.0,0.0,0.0,0.0,0.0,0.0,1.8167,2.1306,2.2949,2.3075,2.1619,2.1457,1.9911,0.0,0.0,0.0,0.0,0.0,0.0,0.0,0.0,0.0,0.0,0.0,0.0,0.0,0.0,0.0,0.0,0.0,0.0,0.0,0.0,0.0,0.0,0.0,0.0,0.0,0.0,0.0,0.0,0.0,0.0,0.0,0.0,0.0,0.0,0.0,0.0,0.0,0.0,0.0,0.0,0.0,0.0,0.0,0.0,0.0,0.0,0.0,0.0,0.0,0.0,0.0,0.0,0.0,0.0,0.0,0.0,0.0,0.0,0.0,0.0,0.0,0.0,0.0,0.0,0.0,0.0,0.0,0.0,0.0,0.0,0.0,0.0,0.0,0.0,0.0,0.0,0.0,0.0,0.0,0.0,0.0,0.0,0.0,0.0,0.0,0.0,0.0,0.0,0.0,0.0,0.0,0.0,0.0,0.0,0.0,0.0,0.0,0.0,0.0,0.0,0.0,0.0,0.0,0.0,0.0,0.0,0.0,0.0,0.0,1.9823,2.1794,2.3135,2.3662,2.1178,1.9999,0.0,0.0,0.0,0.0,0.0,0.0,0.0,0.0,0.0,0.0,0.0,0.0,0.0,0.0,0.0,0.0,0.0,0.0,0.0,0.0,0.0,0.0,0.0,0.0,0.0,0.0,0.0,0.0,0.0,0.0,0.0,0.0,0.0,0.0,0.0,0.0,0.0,0.0,0.0,0.0,0.0,0.0,0.0,0.0,0.0,0.0,0.0,0.0,0.0,0.0,0.0,0.0,0.0,0.0,0.0,0.0,0.0,0.0,0.0,0.0,0.0,0.0,0.0,0.0,0.0,0.0,0.0,0.0,0.0,0.0,0.0,0.0,0.0,0.0,0.0,0.0,0.0,0.0,0.0,0.0,0.0,0.0,0.0,0.0,0.0,0.0,0.0,0.0,0.0,0.0,0.0,0.0,0.0,0.0,0.0,0.0,0.0,0.0,0.0,0.0,0.0,0.0,0.0,0.0,0.0,0.0,0.0,0.0,0.0,2.1084,2.3243,2.4566,2.4816,2.2031,2.0788,2.1278,0.0,0.0,0.0,0.0,0.0,0.0,0.0,0.0,0.0,0.0,0.0,0.0,0.0,0.0,0.0,0.0,0.0,0.0,0.0,0.0,0.0,0.0,0.0,0.0,0.0,0.0,0.0,0.0,0.0,0.0,0.0,0.0,0.0,0.0,0.0,0.0,0.0,0.0,0.0,0.0,0.0,0.0,0.0,0.0,0.0,0.0,0.0,0.0,0.0,0.0,0.0,0.0,0.0,0.0,0.0,0.0,0.0,0.0,0.0,0.0,0.0,0.0,0.0,0.0,0.0,0.0,0.0,0.0,0.0,0.0,0.0,0.0,0.0,0.0,0.0,0.0,0.0,0.0,0.0,0.0,0.0,0.0,0.0,0.0,0.0,0.0,0.0,0.0,0.0,0.0,0.0,0.0,0.0,0.0,0.0,0.0,0.0,0.0,0.0,0.0,0.0,0.0,0.0,0.0,0.0,0.0,0.0,0.0,2.4333,2.6856,2.7179,2.5176,2.3838,2.2128,0.0,0.0,0.0,0.0,0.0,0.0,0.0,0.0,0.0,0.0,0.0,0.0,0.0,0.0,0.0,0.0,0.0,0.0,0.0,0.0,0.0,0.0,0.0,0.0,0.0,0.0,0.0,0.0,0.0,0.0,0.0,0.0,0.0,0.0,0.0,0.0,0.0,0.0,0.0,0.0,0.0,0.0,0.0,0.0,0.0,0.0,0.0,0.0,0.0,0.0,0.0,0.0,0.0,0.0,0.0,0.0,0.0,0.0,0.0,0.0,0.0,0.0,0.0,0.0,0.0,0.0,0.0,0.0,0.0,0.0,0.0,0.0,0.0,0.0,0.0,0.0,0.0,0.0,0.0,0.0,0.0,0.0,0.0,0.0,0.0,0.0,0.0,0.0,0.0,0.0,0.0,0.0,0.0,0.0,0.0,0.0,0.0,0.0,0.0,0.0,0.0,0.0,0.0,0.0,0.0,0.0,0.0,0.0,0.0,2.5951,2.8083,2.8968,2.8436,2.5419,2.3232,0.0,0.0,0.0,0.0,0.0,0.0,0.0,0.0,0.0,0.0,0.0,0.0,0.0,0.0,0.0,0.0,0.0,0.0,0.0,0.0,0.0,0.0,0.0,0.0,0.0,0.0,0.0,0.0,0.0,0.0,0.0,0.0,0.0,0.0,0.0,0.0,0.0,0.0,0.0,0.0,0.0,0.0,0.0,0.0,0.0,0.0,0.0,0.0,0.0,0.0,0.0,0.0,0.0,0.0,0.0,0.0,0.0,0.0,0.0,0.0,0.0,0.0,0.0,0.0,0.0,0.0,0.0,0.0,0.0,0.0,0.0,0.0,0.0,0.0,0.0,0.0,0.0,0.0,0.0,0.0,0.0,0.0,0.0,0.0,0.0,0.0,0.0,0.0,0.0,0.0,0.0,0.0,0.0,0.0,0.0,0.0,0.0,0.0,0.0,0.0,0.0,0.0,0.0,0.0,0.0,0.0,0.0,0.0,2.4474,2.6157,2.7897,2.919,3.0037,2.6968,2.4476,0.0,0.0,0.0,0.0,0.0,0.0,0.0,0.0,0.0,0.0,0.0,0.0,0.0,0.0,0.0,0.0,0.0,0.0,0.0,0.0,0.0,0.0,0.0,0.0,0.0,0.0,0.0,0.0,0.0,0.0,0.0,0.0,0.0,0.0,0.0,0.0,0.0,0.0,0.0,0.0,0.0,0.0,0.0,0.0,0.0,0.0,0.0,0.0,0.0,0.0,0.0,0.0,0.0,0.0,0.0,0.0,0.0,0.0,0.0,0.0,0.0,0.0,0.0,0.0,0.0,0.0,0.0,0.0,0.0,0.0,0.0,0.0,0.0,0.0,0.0,0.0,0.0,0.0,0.0,0.0,0.0,0.0,0.0,0.0,0.0,0.0,0.0,0.0,0.0,0.0,0.0,0.0,0.0,0.0,0.0,0.0,0.0,0.0,0.0,0.0,0.0,0.0,0.0,0.0,0.0,0.0,0.0,0.0,2.487,2.5675,2.6976,2.8429,2.9888,2.8031,2.5568,0.0,0.0,0.0,0.0,0.0,0.0,0.0,0.0,0.0,0.0,0.0,0.0,0.0,0.0,0.0,0.0,0.0,0.0,0.0,0.0,0.0,0.0,0.0,0.0,0.0,0.0,0.0,0.0,0.0,0.0,0.0,0.0,0.0,0.0,0.0,0.0,0.0,0.0,0.0,0.0,0.0,0.0,0.0,0.0,0.0,0.0,0.0,0.0,0.0,0.0,0.0,0.0,0.0,0.0,0.0,0.0,0.0,0.0,0.0,0.0,0.0,0.0,0.0,0.0,0.0,0.0,0.0,0.0,0.0,0.0,0.0,0.0,0.0,0.0,0.0,0.0,0.0,0.0,0.0,0.0,0.0,0.0,0.0,0.0,0.0,0.0,0.0,0.0,0.0,0.0,0.0,0.0,0.0,0.0,0.0,0.0,0.0,0.0,0.0,0.0,0.0,0.0,0.0,0.0,0.0,0.0,0.0,0.0,2.4577,2.6117,2.7119,2.7624,2.7642,2.6438,2.5429,0.0,0.0,0.0,0.0,0.0,0.0,0.0,0.0,0.0,0.0,0.0,0.0,0.0,0.0,0.0,0.0,0.0,0.0,0.0,0.0,0.0,0.0,0.0,0.0,0.0,0.0,0.0,0.0,0.0,0.0,0.0,0.0,0.0,0.0,0.0,0.0,0.0,0.0,0.0,0.0,0.0,0.0,0.0,0.0,0.0,0.0,0.0,0.0,1.5733,0.0,0.0,0.0,0.0,0.0,0.0,0.0,0.0,0.0,0.0,0.0,0.0,0.0,0.0,0.0,0.0,0.0,0.0,0.0,0.0,0.0,0.0,0.0,0.0,0.0,0.0,0.0,0.0,0.0,0.0,0.0,0.0,0.0,0.0,0.0,0.0,0.0,0.0,0.0,0.0,0.0,0.0,0.0,0.0,0.0,0.0,0.0,0.0,0.0,0.0,0.0,0.0,0.0,0.0,0.0,0.0,0.0,0.0,0.0,2.4539,2.5712,2.6374,2.688,2.7156,2.5727,2.4527,0.0,0.0,0.0,0.0,0.0,0.0,0.0,0.0,0.0,0.0,0.0,0.0,0.0,0.0,0.0,0.0,0.0,0.0,0.0,0.0,0.0,0.0,0.0,0.0,0.0,0.0,0.0,0.0,0.0,0.0,0.0,0.0,0.0,0.0,0.0,0.0,0.0,0.0,0.0,0.0,0.0,0.0,0.0,0.0,0.0,0.0,0.0,0.0,0.0,0.0,0.0,0.0,0.0,0.0,0.0,0.0,0.0,0.0,0.0,0.0,0.0,0.0,0.0,0.0,0.0,0.0,0.0,0.0,0.0,0.0,0.0,0.0,0.0,0.0,0.0,0.0,0.0,0.0,0.0,0.0,0.0,0.0,0.0,0.0,0.0,0.0,0.0,0.0,0.0,0.0,0.0,0.0,0.0,0.0,0.0,0.0,0.0,0.0,0.0,0.0,0.0,0.0,0.0,0.0,0.0,0.0,0.0,2.345,2.4662,2.5188,2.5523,2.6211,2.7247,2.5425,2.3507,2.1675,0.0,0.0,0.0,0.0,0.0,0.0,0.0,0.0,0.0,0.0,0.0,0.0,0.0,0.0,0.0,0.0,0.0,0.0,0.0,0.0,0.0,0.0,0.0,0.0,0.0,0.0,0.0,0.0,0.0,0.0,0.0,0.0,0.0,0.0,0.0,0.0,0.0,0.0,1.4743,1.6582,0.0,0.0,0.0,0.0,0.0,0.0,0.0,0.0,1.6728,0.0,0.0,0.0,0.0,0.0,0.0,0.0,0.0,0.0,0.0,0.0,0.0,0.0,0.0,0.0,0.0,0.0,0.0,0.0,0.0,0.0,0.0,0.0,0.0,0.0,0.0,0.0,0.0,0.0,0.0,0.0,0.0,0.0,0.0,0.0,0.0,0.0,0.0,0.0,0.0,0.0,0.0,0.0,0.0,0.0,0.0,0.0,0.0,0.0,0.0,0.0,0.0,0.0,0.0,0.0,0.0,2.276,2.3857,2.4781,2.5566,2.5654,2.5795,2.597,2.4977,2.3423,2.1351,0.0,0.0,0.0,0.0,0.0,0.0,0.0,0.0,0.0,0.0,0.0,0.0,0.0,0.0,0.0,0.0,0.0,0.0,0.0,0.0,0.0,0.0,0.0,0.0,0.0,0.0,0.0,0.0,0.0,0.0,0.0,0.0,0.0,0.0,0.0,0.0,0.0,0.0,0.0,1.9141,1.9823,0.0,0.0,0.0,0.0,0.0,0.0,0.0,0.0,1.5803,0.0,0.0,0.0,0.0,0.0,0.0,0.0,0.0,0.0,0.0,0.0,0.0,0.0,0.0,0.0,0.0,0.0,0.0,0.0,0.0,0.0,0.0,0.0,0.0,0.0,0.0,0.0,0.0,0.0,0.0,0.0,0.0,0.0,0.0,0.0,0.0,0.0,0.0,0.0,0.0,0.0,0.0,0.0,0.0,0.0,0.0,0.0,0.0,0.0,0.0,0.0,0.0,0.0,0.0,0.0,2.2612,2.3814,2.4828,2.5659,2.5698,2.5601,2.5371,2.4121,2.2519,0.0,0.0,0.0,0.0,0.0,0.0,0.0,0.0,0.0,0.0,0.0,0.0,0.0,0.0,0.0,0.0,0.0,0.0,0.0,0.0,0.0,0.0,0.0,0.0,0.0,0.0,0.0,0.0,0.0,0.0,0.0,0.0,0.0,0.0,0.0,0.0,0.0,0.0,0.0,0.0,1.8583,1.8857,1.8472,0.0,0.0,0.0,0.0,0.0,0.0,1.7044,1.6401,0.0,0.0,0.0,0.0,0.0,0.0,0.0,0.0,0.0,0.0,0.0,0.0,0.0,0.0,0.0,0.0,0.0,0.0,0.0,0.0,0.0,0.0,0.0,0.0,0.0,0.0,0.0,0.0,0.0,0.0,0.0,0.0,0.0,0.0,0.0,0.0,0.0,0.0,0.0,0.0,0.0,0.0,0.0,0.0,0.0,0.0,0.0,0.0,0.0,0.0,0.0,0.0,0.0,0.0,0.0,2.2167,2.3664,2.4831,2.564,2.5698,2.5503,2.5082,2.3652,2.1932,0.0,0.0,0.0,0.0,0.0,0.0,0.0,0.0,0.0,0.0,0.0,0.0,0.0,0.0,0.0,0.0,0.0,0.0,0.0,0.0,0.0,0.0,0.0,0.0,0.0,0.0,0.0,0.0,0.0,0.0,0.0,0.0,0.0,0.0,0.0,0.0,0.0,0.0,0.0,0.0,0.0,1.8066,1.7846,1.7771,0.0,0.0,0.0,0.0,1.8523,1.7549,0.0,0.0,0.0,0.0,0.0,0.0,0.0,0.0,0.0,0.0,0.0,0.0,0.0,0.0,0.0,0.0,0.0,0.0,0.0,0.0,0.0,0.0,0.0,0.0,0.0,0.0,0.0,0.0,0.0,0.0,0.0,0.0,0.0,0.0,0.0,0.0,0.0,0.0,0.0,0.0,0.0,0.0,0.0,0.0,0.0,0.0,0.0,0.0,0.0,0.0,0.0,0.0,0.0,0.0,0.0,0.0,2.1904,2.3545,2.4811,2.5649,2.5698,2.5503,2.5125,2.4492,2.2852,0.0,0.0,0.0,0.0,0.0,0.0,0.0,0.0,0.0,0.0,0.0,0.0,0.0,0.0,0.0,0.0,0.0,0.0,0.0,0.0,0.0,0.0,0.0,0.0,0.0,0.0,0.0,0.0,0.0,0.0,0.0,0.0,0.0,0.0,0.0,0.0,0.0,0.0,0.0,0.0,0.0,1.9892,1.8735,1.8548,1.8164,0.0,0.0,1.6858,1.6762,1.6472,0.0,0.0,0.0,0.0,0.0,0.0,0.0,0.0,0.0,0.0,0.0,0.0,0.0,0.0,0.0,0.0,0.0,0.0,0.0,0.0,0.0,0.0,0.0,0.0,0.0,0.0,0.0,0.0,0.0,0.0,0.0,0.0,0.0,0.0,0.0,0.0,0.0,0.0,0.0,0.0,0.0,0.0,0.0,0.0,0.0,0.0,0.0,0.0,0.0,0.0,0.0,0.0,0.0,0.0,0.0,1.9519,2.1877,2.3815,2.5103,2.5659,2.5698,2.5386,2.473,2.3809,2.201,0.0,0.0,0.0,0.0,0.0,0.0,0.0,0.0,0.0,0.0,0.0,0.0,0.0,0.0,0.0,0.0,0.0,0.0,0.0,0.0,0.0,0.0,0.0,0.0,0.0,0.0,0.0,0.0,0.0,0.0,0.0,0.0,0.0,0.0,0.0,0.0,0.0,0.0,0.0,0.0,0.0,0.0,1.8191,1.8412,0.0,0.0,0.0,1.8085,1.7957,0.0,0.0,0.0,0.0,0.0,0.0,0.0,0.0,0.0,0.0,0.0,0.0,0.0,0.0,0.0,0.0,0.0,0.0,0.0,0.0,0.0,0.0,0.0,0.0,0.0,0.0,0.0,0.0,0.0,0.0,0.0,0.0,0.0,0.0,0.0,0.0,0.0,0.0,0.0,0.0,0.0,0.0,0.0,0.0,0.0,0.0,0.0,0.0,0.0,0.0,0.0,0.0,0.0,0.0,0.0,0.0,0.0,2.1875,2.4007,2.5293,2.5674,2.5698,2.5289,2.441,2.3496,0.0,0.0,0.0,0.0,0.0,0.0,0.0,0.0,0.0,0.0,0.0,0.0,0.0,0.0,0.0,0.0,0.0,0.0,0.0,0.0,0.0,0.0,0.0,0.0,0.0,0.0,0.0,1.2559,0.0,0.0,0.0,0.0,0.0,0.0,0.0,0.0,0.0,0.0,0.0,0.0,0.0,0.0,1.779,1.7722,1.8164,1.8288,0.0,0.0,1.8855,1.8651,1.7912,1.72,0.0,0.0,0.0,0.0,0.0,0.0,0.0,0.0,0.0,0.0,0.0,0.0,0.0,0.0,0.0,0.0,0.0,0.0,0.0,0.0,0.0,0.0,0.0,0.0,0.0,0.0,0.0,0.0,0.0,0.0,0.0,0.0,0.0,0.0,0.0,0.0,0.0,0.0,0.0,0.0,0.0,0.0,0.0,0.0,0.0,0.0,0.0,0.0,0.0,0.0,0.0,0.0,0.0,0.0,0.0,2.1875,2.4007,2.5317,2.5698,2.5698,2.5289,2.443,2.4336,2.2479,0.0,0.0,0.0,0.0,0.0,0.0,0.0,0.0,0.0,0.0,0.0,0.0,0.0,0.0,0.0,0.0,0.0,0.0,0.0,0.0,0.0,0.0,0.0,0.0,0.0,0.0,0.0,0.0,0.0,0.0,0.0,0.0,0.0,0.0,0.0,0.0,0.0,0.0,0.0,0.0,0.0,1.8673,1.7825,1.8047,1.8145,0.0,0.0,1.8108,1.744,1.7482,1.7086,1.5661,0.0,0.0,0.0,0.0,0.0,0.0,0.0,0.0,0.0,0.0,0.0,0.0,0.0,0.0,0.0,0.0,0.0,0.0,0.0,0.0,0.0,0.0,0.0,0.0,0.0,0.0,0.0,0.0,0.0,0.0,0.0,0.0,0.0,0.0,0.0,0.0,0.0,0.0,0.0,0.0,0.0,0.0,0.0,0.0,0.0,0.0,0.0,0.0,0.0,0.0,0.0,0.0,0.0,2.0136,2.2266,2.4394,2.5684,2.6113,2.5854,2.5425,2.4867,2.4551,2.283,0.0,0.0,0.0,0.0,0.0,0.0,0.0,0.0,0.0,0.0,0.0,0.0,0.0,0.0,0.0,0.0,0.0,0.0,0.0,0.0,0.0,0.0,0.0,0.0,0.0,0.0,0.0,0.0,1.5142,1.5409,1.4632,0.0,0.0,0.0,0.0,0.0,0.0,0.0,0.0,0.0,0.0,1.8372,1.8695,1.9052,0.0,0.0,1.8535,1.8855,1.763,1.7234,1.6664,1.5562,1.4881,0.0,0.0,0.0,0.0,0.0,0.0,0.0,0.0,0.0,0.0,0.0,0.0,0.0,0.0,0.0,0.0,0.0,0.0,0.0,0.0,0.0,0.0,0.0,0.0,0.0,0.0,0.0,0.0,0.0,0.0,0.0,0.0,0.0,0.0,0.0,0.0,0.0,0.0,0.0,0.0,0.0,0.0,0.0,0.0,0.0,0.0,0.0,0.0,0.0,0.0,0.0,0.0,2.0527,2.2674,2.4801,2.6074,2.6412,2.6094,2.5644,2.5125,2.4648,2.3103,0.0,0.0,0.0,0.0,0.0,0.0,0.0,0.0,0.0,0.0,0.0,0.0,0.0,0.0,0.0,0.0,0.0,0.0,0.0,0.0,0.0,0.0,0.0,0.0,0.0,0.0,0.0,0.0,1.5257,1.5195,1.4004,0.0,0.0,0.0,0.0,0.0,0.0,0.0,0.0,0.0,0.0,1.8506,1.905,1.9325,1.913,1.8131,1.8609,1.8761,1.7848,1.7301,1.6633,1.5661,0.0,0.0,0.0,0.0,0.0,0.0,0.0,0.0,0.0,0.0,0.0,0.0,0.0,0.0,0.0,0.0,0.0,0.0,0.0,0.0,0.0,0.0,0.0,0.0,0.0,0.0,0.0,0.0,0.0,0.0,1.48,0.0,0.0,0.0,0.0,0.0,0.0,0.0,0.0,0.0,0.0,0.0,0.0,0.0,0.0,0.0,0.0,0.0,0.0,0.0,0.0,0.0,0.0,2.0937,2.3081,2.5273,2.6387,2.6387,2.6387,2.5962,2.5141,2.4648,2.3354,2.121,0.0,0.0,0.0,0.0,0.0,0.0,0.0,0.0,0.0,0.0,0.0,0.0,0.0,0.0,0.0,0.0,0.0,0.0,0.0,0.0,0.0,0.0,0.0,0.0,0.0,0.0,1.4159,1.3644,1.3168,0.0,0.0,0.0,0.0,0.0,0.0,0.0,0.0,0.0,0.0,1.8596,1.9384,1.8631,1.8532,1.8667,1.8796,1.7983,1.7447,1.7929,1.7756,1.7168,0.0,0.0,0.0,0.0,0.0,0.0,0.0,0.0,0.0,0.0,0.0,0.0,0.0,0.0,0.0,0.0,0.0,0.0,0.0,0.0,0.0,0.0,0.0,0.0,0.0,0.0,0.0,1.9512,1.8234,0.0,0.0,0.0,0.0,0.0,0.0,0.0,0.0,0.0,0.0,0.0,2.0955,2.2046,0.0,0.0,0.0,0.0,0.0,0.0,0.0,0.0,0.0,0.0,0.0,0.0,2.123,2.3903,2.5566,2.6523,2.6752,2.6543,2.6113,2.5527,2.5078,2.3711,2.1268,0.0,0.0,0.0,0.0,0.0,0.0,0.0,0.0,0.0,0.0,0.0,0.0,0.0,0.0,0.0,0.0,0.0,0.0,0.0,0.0,0.0,0.0,0.0,0.0,0.0,1.3354,0.0,0.0,0.0,0.0,0.0,0.0,0.0,0.0,0.0,0.0,0.0,1.7279,1.8344,1.8722,1.8878,1.8772,1.9105,1.9265,0.0,0.0,0.0,0.0,0.0,0.0,0.0,0.0,0.0,0.0,0.0,0.0,0.0,0.0,1.7729,1.5414,1.4723,1.4304,1.3629,0.0,0.0,0.0,0.0,0.0,0.0,0.0,0.0,0.0,0.0,0.0,0.0,0.0,0.0,0.0,0.0,1.9286,0.0,0.0,0.0,0.0,0.0,0.0,0.0,0.0,2.2246,2.3379,2.3262,2.4332,2.4274,0.0,2.2814,2.131,0.0,0.0,0.0,0.0,0.0,0.0,0.0,0.0,2.209,2.459,2.6118,2.6973,2.7207,2.6836,2.6406,2.5952,2.4919,2.3358,2.1225,1.8829,1.7383,0.0,0.0,0.0,0.0,0.0,0.0,0.0,0.0,0.0,0.0,0.0,0.0,0.0,0.0,0.0,0.0,0.0,0.0,0.0,0.0,0.0,0.0,0.0,1.3028,0.0,0.0,0.0,0.0,0.0,0.0,0.0,0.0,0.0,1.5917,1.664,1.7604,1.9058,1.9015,1.8905,1.9185,0.0,0.0,0.0,0.0,0.0,0.0,0.0,1.7796,1.8249,1.8103,1.7859,1.7654,1.8415,1.8744,1.7876,0.0,0.0,1.6211,1.5644,1.5071,1.3787,1.3323,1.281,1.1872,1.1662,1.1639,0.0,0.0,0.0,0.0,0.0,0.0,0.0,0.0,2.3053,2.2596,0.0,2.1335,0.0,0.0,0.0,0.0,0.0,2.1172,0.0,0.0,2.5234,2.623,2.5791,2.5854,2.5835,2.5835,2.6137,2.5392,2.3621,1.9965,0.0,0.0,0.0,0.0,0.0,0.0,2.3332,2.5046,2.6701,2.7578,2.748,2.7066,2.6639,2.6168,2.4085,2.2339,2.1118,1.9441,1.7836,1.6289,1.6149,0.0,0.0,0.0,0.0,0.0,0.0,0.0,0.0,0.0,0.0,0.0,0.0,0.0,0.0,0.0,0.0,0.0,0.0,0.0,0.0,1.3494,0.0,0.0,0.0,0.0,0.0,0.0,0.0,0.0,0.0,0.0,1.611,1.7194,1.8369,1.9281,0.0,0.0,0.0,0.0,1.9548,1.9773,1.9345,1.9092,1.9374,1.933,1.9165,1.8882,0.0,0.0,1.7323,1.7687,1.75,1.5127,1.5332,1.5963,1.714,1.6654,1.5765,1.4391,1.2723,1.1616,1.1779,1.1165,1.0509,2.7993,0.0,0.0,0.0,0.0,2.6948,2.7212,2.7846,2.717,2.5993,2.4496,2.3747,0.0,0.0,0.0,0.0,0.0,0.0,2.4375,2.5352,2.7018,2.7832,2.8001,2.832,2.8301,2.7955,2.6664,2.5609,2.4692,2.1976,2.0152,1.9185,0.0,0.0,0.0,0.0,2.2957,2.4804,2.5684,2.5548,2.4512,2.4354,2.3964,2.3323,2.2195,2.1389,2.1021,1.9233,1.8133,1.7862,1.6303,0.0,0.0,0.0,0.0,0.0,0.0,0.0,0.0,0.0,0.0,0.0,0.0,0.0,0.0,0.0,0.0,0.0,0.0,0.0,1.209,1.2396,1.2526,0.0,0.0,0.0,0.0,0.0,0.0,0.0,0.0,0.0,1.8597,1.8838,1.9158,0.0,0.0,1.9933,1.9813,2.011,2.0284,2.012,2.0147,0.0,0.0,1.861,1.7712,1.8258,1.7762,1.7098,1.6674,1.6786,1.6714,1.5942,1.5999,1.5905,1.5049,1.5374,1.5159,1.389,1.3091,1.2425,1.1618,1.1149,1.0955,3.0315,2.9485,2.8645,2.8555,2.8911,2.8708,2.8877,2.9236,2.8678,2.787,2.6928,2.6245,2.5035,2.3493,2.312,0.0,0.0,0.0,2.6139,2.6491,2.7398,2.7622,2.7287,2.7525,2.7506,2.7184,2.6007,2.5287,2.4979,2.3425,2.2113,2.1051,0.0,0.0,2.1342,2.169,2.2512,2.3852,2.4487,2.434,2.3437,2.3278,2.2878,2.2277,2.1318,2.0749,2.0632,1.8879,1.7944,1.8015,1.6602,1.5418,0.0,0.0,0.0,0.0,0.0,0.0,0.0,0.0,0.0,0.0,0.0,1.2166,1.1191,0.0,0.0,0.0,1.1878,1.2252,1.2591,1.326,0.0,0.0,0.0,0.0,0.0,0.0,0.0,1.8223,1.8958,1.9506,1.992,2.0027,2.012,2.0294,2.0237,2.0224,2.0321,0.0,2.0655,2.0557,2.0735,2.0565,1.9738,1.8444,1.7521,1.7419,1.6862,1.6102,1.5524,1.555,1.5365,1.4717,1.451,1.4163,1.3137,1.3505,1.3671,1.2715,1.249,1.2239,1.1441,1.1288,1.1288,3.2198,3.2105,3.0942,3.0116,2.9591,2.9889,2.9466,2.8582,2.8516,2.8691,2.8984,2.8613,2.7988,2.7142,2.6381,0.0,2.7098,2.79,2.7599,2.6483,2.685,2.6232,2.4831,2.4818,2.4789,2.4818,2.4672,2.4613,2.4597,2.4053,2.3411,2.2632,2.1258,2.0651,2.0804,2.1532,2.2117,2.25,2.3282,2.3575,2.3431,2.3035,2.2668,2.2151,2.0963,2.0163,1.9853,1.843,1.7474,1.7205,1.6922,1.6276,1.5161,0.0,0.0,0.0,0.0,0.0,0.0,0.0,0.0,0.0,0.0,0.0,0.0,0.0,0.0,0.0,1.3073,0.0,1.4554,1.5368,0.0,0.0,0.0,1.6567,1.6941,1.7943,1.8718,1.8996,0.0,0.0,2.0304,2.0744,2.1046,2.0919,2.0518,2.0464,2.1042,2.0712,2.0646,2.0713,2.0729,2.0163,1.862,1.8133,1.7412,1.6049,1.6192,1.554,1.4178,1.3988,1.3436,1.2094,1.1613,1.1678,1.1613,1.1758,1.1538,1.1371,1.1426,1.1444,1.1409,1.1409,1.1409,3.2198,3.215,3.1868,3.1627,3.1474,3.1227,3.0954,3.0723,3.041,3.0165,2.9883,2.9785,2.9481,2.8973,2.8777,2.8295,2.7618,2.783,2.7267,2.6172,2.6227,2.6051,2.569,2.569,2.569,2.56,2.4435,2.3856,2.3764,2.2291,2.1409,2.118,2.0574,2.094,2.2215,2.2081,2.2152,2.2487,2.2467,2.1782,2.0486,2.009,1.9794,1.9429,1.8877,1.8467,1.8191,1.7807,1.7474,1.7206,1.6909,1.6218,1.5077,1.3852,0.0,0.0,0.0,0.0,0.0,0.0,0.0,0.0,0.0,1.2909,1.099,0.0,1.3193,0.0,1.4274,1.5101,1.5438,1.6088,0.0,0.0,1.7649,1.8063,1.9236,1.9452,1.9693,2.0201,2.0708,2.0975,2.0909,2.0984,2.0589,1.9343,2.0124,2.0962,2.1064,1.9859,1.9047,1.9004,1.8159,1.7183,1.6753,1.5697,1.4488,1.2862,1.2687,1.2544,1.2251,1.2223,1.2115,1.1655,1.1584,1.1584,1.1584,1.1584,1.1647,1.1653,1.1619,1.1529,1.1565,1.1565,1.1565,3.2715,3.2734,3.2734,3.2734,3.2676,3.207,3.1816,3.1777,3.1348,3.1035,3.0762,3.0615,2.9978,2.9097,2.9068,2.8293,2.7031,2.7002,2.6255,2.4947,2.4932,2.4532,2.3823,2.3823,2.3823,2.3792,2.292,2.2497,2.2421,2.1374,2.0869,2.09,2.0708,2.1091,2.1965,2.1493,2.1282,2.1466,2.1184,2.0575,1.9618,1.9279,1.8918,1.8504,1.8303,1.7969,1.7448,1.7434,1.7313,1.6993,1.6698,1.6152,1.5401,1.4223,1.3267,0.0,0.0,0.0,0.0,0.0,0.0,0.0,0.0,0.0,0.0,0.0,1.4514,1.4767,1.5765,1.6593,1.7129,1.7126,1.7375,1.8018,1.7551,1.7431,1.8124,1.8254,1.8419,1.8767,1.8921,1.9016,1.9016,1.9016,1.8657,1.7697,1.8384,1.8968,1.8829,1.7997,1.7445,1.7511,1.6815,1.5937,1.5316,1.3837,1.2535,1.1719,1.1491,1.1525,1.1563,1.1584,1.1584,1.1584,1.1584,1.1604,1.1665,1.1671,1.1719,1.1877,1.187,1.1796,1.1728,1.1678,1.1701,3.3484,3.3464,3.3425,3.3386,3.3379,3.2667,3.2335,3.2257,3.1777,3.1443,3.1186,3.0819,2.9705,2.811,2.808,2.7224,2.5741,2.5711,2.484,2.3325,2.3294,2.2497,2.1109,2.1109,2.1109,2.1109,2.1109,2.1109,2.1109,2.1109,2.1109,2.1109,2.1109,2.1109,2.1082,2.057,2.029,2.0264,2.004,1.988,1.98,1.9575,1.9147,1.8558,1.845,1.8063,1.7246,1.7206,1.7085,1.6767,1.6538,1.627,1.5928,1.5088,1.4461,0.0,1.3654,0.0,0.0,0.0,0.0,0.0,0.0,0.0,0.0,1.5391,1.5772,1.6216,1.6847,1.7566,1.8342,1.7769,1.739,1.7374,1.6678,1.6051,1.5849,1.6148,1.6402,1.6402,1.6402,1.6402,1.6527,1.6402,1.6402,1.6112,1.6136,1.6019,1.561,1.5686,1.5858,1.6044,1.5856,1.4928,1.3831,1.2542,1.1671,1.1613,1.1606,1.1584,1.1577,1.1584,1.1584,1.1584,1.1584,1.1617,1.1746,1.1773,1.184,1.2057,1.2098,1.2033,1.1904,1.1827,1.178,3.3945,3.3938,3.3574,3.3386,3.3367,3.3262,3.2988,3.2656,3.2226,3.1123,2.9586,2.9464,2.8323,2.65,2.647,2.5605,2.4054,2.4054,2.317,2.1569,2.1569,2.1411,2.1109,2.1109,2.1109,2.1109,2.1109,2.1109,2.1109,2.1109,2.1109,2.1109,2.1109,2.1109,2.1096,0.0,0.0,0.0,2.0535,2.0281,1.9826,1.9746,1.9332,1.8517,1.8237,0.0,1.7246,1.7206,1.7179,1.71,1.7072,0.0,0.0,0.0,0.0,0.0,0.0,0.0,0.0,0.0,0.0,0.0,1.4693,1.4935,1.5602,1.6175,1.6382,1.6014,1.5671,1.5559,1.5738,1.595,1.6131,1.6349,1.6338,1.6322,1.6292,1.6328,1.6402,1.6402,1.6368,1.6378,1.6253,1.6402,1.5803,1.454,1.4283,1.3719,1.2569,1.3513,1.4215,1.4215,1.3362,1.2402,1.208,1.1807,1.1584,1.1584,1.1584,1.1584,1.1584,1.1584,1.1584,1.1584,1.1584,1.159,1.1631,1.1712,1.1854,1.207,1.2162,1.2203,1.2091,1.202,1.2006,3.4375,0.0,3.4141,3.3425,0.0,3.241,3.1685,3.0592,3.1956,3.1302,2.9249,2.8398,2.6891,2.4999,2.503,2.4051,2.2386,2.2528,2.2169,2.1368,2.1355,2.1323,2.1323,2.1176,2.1109,2.1109,2.1109,2.1109,2.1109,2.1109,2.1109,2.1109,2.1109,2.1109,2.1109,2.1109,2.1029,2.0895,2.0748,2.0565,2.0241,1.9947,1.9452,1.8731,0.0,0.0,0.0,0.0,0.0,0.0,0.0,0.0,0.0,0.0,0.0,1.6462,1.5795,1.5381,1.538,1.517,1.4835,1.4399,1.4738,1.5011,1.5003,1.5422,1.569,1.5701,1.5412,1.5319,1.5507,1.4987,1.469,1.4892,1.4344,1.3949,1.3923,1.3998,1.4014,1.4014,1.4049,1.4014,1.4014,1.4049,1.3708,1.2877,1.2702,1.2416,1.1754,1.2099,1.2604,1.2687,1.2108,1.156,1.1563,1.1584,1.1584,1.1584,1.1584,1.1584,1.1584,1.1584,1.1584,1.1584,1.1584,1.1617,1.1816,1.1898,1.2013,1.2223,1.2338,1.2372,1.2329,1.2261,1.2186,3.4126,3.3809,3.3733,3.2629,3.0997,3.0946,2.9974,2.8444,0.0,0.0,0.0,2.7205,2.5499,2.3679,2.3632,2.2783,2.1315,2.1542,2.1695,2.1662,2.1662,2.1662,2.1649,2.1323,2.1189,2.1189,2.1136,2.1109,2.1109,2.1109,2.1109,2.1109,2.1109,2.1109,2.1109,2.1109,2.1109,2.1096,2.0882,2.0753,2.0699,2.0201,1.9679,1.9063,1.8529,1.7996,1.7434,1.6911,1.6626,1.6548,1.6381,1.6354,1.657,1.6837,1.7167,1.7558,1.662,1.5991,1.5973,1.5016,1.421,1.3677,1.3988,1.4306,1.4379,1.4393,1.4572,1.5047,1.4849,1.4795,1.5125,1.3974,1.3196,1.3334,1.2203,1.1465,1.1472,1.1538,1.1743,1.1584,1.1743,1.1613,1.1743,1.1743,1.1584,1.1613,1.1736,1.1584,1.157,1.1575,1.1641,1.1708,1.1628,1.1577,1.1584,1.1584,1.1584,1.1584,1.1584,1.1584,1.1584,1.1584,1.1584,1.1584,1.1584,1.1728,1.1952,1.2064,1.2193,1.2413,1.2488,1.2501,1.2494,1.2406,1.2298,3.1887,3.0375,2.9985,2.9613,2.9324,2.9324,2.9024,2.8576,2.8774,2.7654,2.5703,2.5441,2.4196,2.2271,2.2271,2.216,2.1871,2.1943,2.1957,0.0,2.1957,2.1957,2.1943,2.1662,2.1515,2.1502,2.1229,2.1109,2.1109,2.1109,2.1109,2.1109,2.1109,2.1109,2.1109,2.1109,2.1109,2.1109,2.1069,2.0922,2.0681,2.0619,2.0281,1.9706,1.9374,1.8905,1.833,1.7074,1.625,1.601,1.5088,1.4448,1.4218,1.4566,1.459,1.4429,1.4669,1.4832,1.4842,1.5123,1.476,1.3436,1.2107,1.2418,1.5015,1.4189,1.3516,1.3552,1.2474,1.156,1.1632,1.1752,1.1804,1.1811,1.1668,1.1586,1.1579,1.1563,1.1584,1.1584,1.1584,1.1584,1.1584,1.1584,1.1584,1.1584,1.1597,1.159,1.1626,1.1563,1.1556,1.1613,1.1584,1.1584,1.1584,1.1584,1.1584,1.1584,1.1584,1.1584,1.1584,1.1584,1.1584,1.159,1.1597,1.1671,1.1827,1.1979,1.2173,1.2318,1.2433,1.2494,1.2501,1.2397,1.2338,3.0815,3.0045,2.9775,2.9002,2.7815,2.6683,2.6115,2.5953,2.5677,2.5506,2.5241,2.4338,2.3292,2.2265,2.2218,2.2138,2.2024,2.2151,2.2218,2.2218,2.2218,2.2218,2.2191,2.1957,2.1729,2.1614,2.1448,2.1269,2.1122,2.1109,2.1109,2.1109,2.1109,2.1109,2.1109,2.1109,2.1109,2.1109,2.1109,2.1042,2.0909,2.0793,2.0579,2.0281,1.987,1.9041,1.7815,1.7024,1.6071,1.5032,1.4488,1.4192,1.4182,1.4469,1.4658,1.4657,1.4163,1.3889,1.3889,1.3257,1.262,1.1952,1.1181,1.1278,1.2751,1.2267,1.1898,1.1988,1.1312,1.0982,1.1137,1.1314,1.1423,1.1504,1.1579,1.1584,1.1584,1.1584,1.1584,1.1584,1.1584,1.1584,1.1584,1.1584,1.1584,1.159,1.1674,1.1692,1.1728,1.1692,1.1665,1.1633,1.1584,1.1584,1.1584,1.1584,1.1584,1.1584,1.1584,1.1584,1.1584,1.1584,1.1653,1.1685,1.1692,1.183,1.202,1.2135,1.2244,1.2366,1.2447,1.2494,1.2463,1.1682,1.125,2.9401,2.9043,2.9043,2.8029,2.6336,2.4682,2.3964,2.3848,2.3656,2.4067,2.4717,2.3502,2.2773,2.2539,2.2512,2.2392,2.2265,2.2418,2.2525,2.2525,2.2512,2.2525,2.2485,2.2218,2.1964,2.1783,2.1716,2.1555,2.1323,2.1309,2.1269,2.1216,2.1149,2.1109,2.1109,2.1109,2.0919,2.0557,2.0526,2.0526,2.0513,2.0305,2.0032,1.9587,1.9147,1.8234,1.6918,1.6299,1.5356,1.4015,1.3566,1.3514,1.3722,1.3909,1.4161,1.4286,1.337,1.2701,1.2643,1.1472,1.0717,1.0717,1.0717,1.0717,1.0724,1.0718,1.0786,1.086,1.0975,1.1076,1.1328,1.1423,1.1491,1.1606,1.1584,1.1584,1.1584,1.1584,1.1584,1.1584,1.1584,1.1584,1.1584,1.1584,1.1597,1.1644,1.1705,1.1753,1.178,1.1773,1.1698,1.166,1.1584,1.1584,1.1584,1.1584,1.1584,1.1584,1.1584,1.1584,1.1584,1.1584,1.1638,1.1746,1.1786,1.1945,1.2203,1.2284,1.2109,1.1786,1.156,1.1482,1.074,0.9726,0.9138,2.6743,2.5235,2.5272,2.5051,2.4864,2.4616,2.4396,2.4168,2.4128,2.3843,2.3566,2.3096,2.288,2.2853,2.2853,2.2813,2.2786,2.284,2.2853,2.284,2.2853,2.2853,2.2813,2.2512,2.2331,2.2285,2.2071,2.1911,2.1857,2.1871,2.1796,2.1542,2.1243,2.1077,2.1046,2.1046,2.0322,1.8768,1.8736,1.8736,1.8736,1.8712,1.7953,1.6367,1.6326,1.6083,1.5624,1.4364,1.3429,1.2939,1.177,1.1056,1.1136,1.1117,1.1139,1.1219,1.1075,1.0949,1.0949,1.079,1.0731,1.0717,1.0731,1.0738,1.0738,1.0819,1.086,1.0948,1.107,1.1219,1.1375,1.1511,1.1592,1.1613,1.1584,1.1584,1.1584,1.1584,1.1584,1.1584,1.1584,1.1584,1.1584,1.1626,1.1638,1.1719,1.1705,1.1742,1.1766,1.1712,1.1644,1.164,1.1584,1.1584,1.1584,1.1584,1.1584,1.1584,1.1584,1.1584,1.1584,1.1626,1.1667,1.1837,1.1593,1.1632,1.1963,1.2222,1.1415,1.0042,0.9571,0.9177,0.7501,0.6761,0.68,2.5359,2.4599,2.4599,2.4599,2.4599,2.4599,2.4532,2.4412,2.4275,2.4062,2.3808,2.3354,2.3033,2.2907,2.2893,2.2893,2.2893,2.2893,2.2893,2.2893,2.2893,2.2893,2.288,2.2752,2.2592,2.2418,2.2298,2.2151,2.2004,2.2024,2.1863,2.1609,2.1462,2.0791,1.9686,1.9546,1.8704,1.7055,1.6947,1.6496,1.5686,1.6431,1.6625,1.601,1.5913,1.5333,1.4294,1.3609,1.2767,1.1705,1.1014,1.0717,1.0717,1.0717,1.0717,1.0724,1.0772,1.0779,1.0731,1.088,1.0948,1.0826,1.0934,1.0982,1.1016,1.1043,1.1111,1.1199,1.126,1.1397,1.1504,1.155,1.1584,1.1584,1.1584,1.1584,1.1584,1.1584,1.1584,1.1584,1.1584,1.1584,1.1597,1.1658,1.1685,1.1712,1.1775,1.1857,1.18,1.1739,1.1755,1.1735,1.1681,1.1619,1.1584,1.1584,1.1584,1.1584,1.1584,1.1584,1.1512,1.1584,1.1687,1.1844,1.0823,1.0292,1.0432,0.9421,0.8397,0.7579,0.7462,0.6917,0.4849,0.442,0.4029,2.4756,2.4743,2.4639,2.4599,2.4599,2.4599,2.4599,2.4572,2.4372,2.4275,2.4155,2.3741,2.3354,2.3006,2.2947,2.2893,2.2893,2.2893,2.2893,2.2893,2.2893,2.2893,2.2893,2.2893,2.2786,2.2579,2.2539,2.2432,2.2231,2.2138,2.176,2.1169,2.098,1.9898,1.806,1.7832,1.698,1.5339,1.5167,1.4362,1.3029,1.3807,1.4493,1.4493,1.4493,1.3872,1.2668,1.261,1.2025,1.0784,1.0717,1.0717,1.0717,1.0725,1.0765,1.0846,1.0941,1.0928,1.0853,1.1077,1.1152,1.0995,1.1111,1.12,1.1206,1.1234,1.1308,1.1362,1.143,1.1504,1.1592,1.1584,1.1584,1.1584,1.1584,1.1584,1.1584,1.1584,1.1584,1.1584,1.1584,1.1584,1.1604,1.1692,1.1753,1.1735,1.1823,1.1938,1.1843,1.1759,1.1726,1.1732,1.1681,1.159,1.1584,1.1584,1.1584,1.1584,1.1584,1.1397,1.1038,1.0779,1.0245,0.9393,0.8668,0.8361,0.8481,0.7181,0.5864,0.5474,0.5045,0.4305,0.2585,0.0,0.0,2.5101,2.501,2.4756,2.4599,2.4599,2.4599,2.4599,2.4599,2.4572,2.4462,2.4249,2.4155,2.3834,2.3313,2.3081,2.2907,2.2893,2.2893,2.2893,2.2893,2.2893,2.2893,2.2893,2.2893,2.288,2.284,2.284,2.2758,2.2684,2.2356,2.1424,1.974,1.9415,1.8272,1.6499,1.6227,1.5271,1.3621,1.3399,1.2635,1.1148,1.1016,1.1174,1.124,1.1016,1.1108,1.0916,1.085,1.0784,1.0717,1.0717,1.0724,1.0704,1.0826,1.0961,1.1145,1.1179,1.1186,1.1166,1.12,1.1206,1.1193,1.122,1.1213,1.1247,1.1349,1.1424,1.1396,1.1518,1.1606,1.1613,1.1584,1.1584,1.1584,1.159,1.159,1.159,1.1624,1.1584,1.1626,1.1604,1.1617,1.1604,1.1705,1.1786,1.1753,1.1692,1.1694,1.1703,1.1678,1.1401,1.1352,1.1302,1.1476,1.1512,1.1139,1.1253,1.1067,1.0593,1.0671,0.9646,0.8657,0.7851,0.7087,0.6496,0.6273,0.6358,0.5825,0.4771,0.3718,0.2076,0.0941,0.0,0.0,0.0,2.5251,2.5088,2.4719,2.4599,2.4599,2.4599,2.4599,2.4599,2.4599,2.4546,2.4462,2.4289,2.4088,2.3875,2.3616,2.3268,2.292,2.2893,2.2893,2.2893,2.2893,2.2893,2.2893,2.2893,2.2893,2.2893,2.2859,2.2263,2.0997,1.9773,1.8682,1.7979,1.7722,1.6648,1.4965,1.4493,1.357,1.1952,1.1696,1.1306,1.079,1.0717,1.0717,1.0717,1.0717,1.0717,1.0717,1.0717,1.0717,1.0717,1.0717,1.0732,1.0833,1.1002,1.1104,1.12,1.1288,1.1302,1.124,1.1383,1.1409,1.1363,1.1402,1.1443,1.1463,1.1504,1.1538,1.1545,1.1579,1.1584,1.1584,1.1584,1.1584,1.159,1.1665,1.1705,1.1739,1.1837,1.187,1.1746,1.1719,1.1789,1.1724,1.1908,1.1938,1.1813,1.1746,1.159,1.1398,1.0624,0.9723,0.9502,0.8709,0.791,0.7873,0.9069,0.9646,0.9285,0.8853,0.795,0.6938,0.6841,0.622,0.5625,0.4869,0.4116,0.4158,0.3327,0.0,0.0,0.0,0.0,0.0,0.0,0.0,2.5344,2.505,2.4756,2.4599,2.4599,2.4599,2.4599,2.4599,2.4599,2.4599,2.4559,2.4386,2.3961,2.3284,2.3032,2.2258,2.1503,2.248,2.3134,2.3054,2.3148,2.3134,2.2951,2.2406,2.2116,2.1965,2.1346,2.0328,1.9217,1.7844,1.6817,1.6088,1.6044,1.5004,1.3322,1.2867,1.2149,1.1138,1.0867,1.0765,1.0752,1.0711,1.0717,1.0717,1.0717,1.0717,1.0717,1.0717,1.0717,1.0724,1.0732,1.0853,1.1043,1.1185,1.126,1.1314,1.1409,1.1423,1.1383,1.1504,1.1572,1.1484,1.1552,1.1584,1.1584,1.1584,1.1584,1.1584,1.1584,1.1469,1.0815,1.0635,1.0923,1.141,1.1671,1.1746,1.1793,1.1918,1.1945,1.1814,1.1205,1.1027,1.0952,1.0392,0.9956,0.9886,0.984,0.9809,0.9529,0.8709,0.7761,0.7652,0.6821,0.6279,0.6039,0.6704,0.7344,0.7123,0.7019,0.5869,0.4898,0.487,0.458,0.4026,0.0,0.0,0.0,0.0,0.0,0.0,0.0,0.0,0.0,0.0,0.0,2.5344,2.505,2.4719,2.4599,2.4599,2.4599,2.4599,2.4599,2.4599,2.4488,2.4203,2.4388,2.31,2.153,2.1201,2.0002,1.9148,2.1642,2.2943,2.2709,2.3072,2.3046,2.2648,2.1121,2.0415,2.0309,1.8311,1.7328,1.7178,1.6721,1.583,1.4636,1.4336,1.3483,1.1495,1.1601,1.1434,1.1165,1.0988,1.0914,1.0901,1.0792,1.0765,1.0751,1.0751,1.0758,1.0744,1.0738,1.0744,1.0765,1.084,1.1049,1.1314,1.1382,1.145,1.1558,1.1606,1.1613,1.1599,1.1606,1.1577,1.1592,1.1613,1.1512,1.1253,1.1289,1.1181,1.0887,1.0923,1.0557,0.8992,0.8667,0.9285,1.1074,1.0919,1.0983,1.1298,1.1587,1.175,1.1369,1.0146,0.918,0.8587,0.7761,0.6896,0.6707,0.656,0.662,0.668,0.6206,0.5808,0.5736,0.5084,0.4361,0.4342,0.4399,0.4752,0.497,0.4975,0.4449,0.3304,0.2855,0.2438,0.0,0.0,0.0,0.0,0.0,0.0,0.0,0.0,0.0,0.0,0.0,0.0,2.5344,2.505,2.4719,2.4599,2.4599,2.4599,2.4599,2.4599,2.4599,2.3846,2.2732,2.2546,2.1368,1.9768,1.9409,1.8993,1.8445,1.9702,1.9937,1.9554,1.9601,1.9709,1.9451,1.8899,1.8526,1.8128,1.6449,1.5408,1.5053,1.4022,1.296,1.2567,1.2495,1.2158,1.1574,1.145,1.1397,1.1307,1.1172,1.1097,1.1132,1.105,1.1057,1.1057,1.1023,1.1023,1.1016,1.0901,1.0894,1.1016,1.107,1.1185,1.1362,1.1491,1.1565,1.1606,1.1584,1.1584,1.1584,1.1584,1.1584,1.1584,1.1584,1.0851,0.9831,0.961,0.9033,0.7982,0.7621,0.7255,0.6857,0.6713,0.7006,0.7548,0.7715,0.797,0.8146,0.7995,0.7891,0.8004,0.7429,0.7048,0.6979,0.6146,0.5662,0.5638,0.5603,0.5525,0.5518,0.4395,0.3851,0.3778,0.2981,0.0,0.0,0.0,0.0,0.0,0.0,0.0,0.0,0.0,0.0,0.0,0.0,0.0,0.0,0.0,0.0,0.0,0.0,0.0,0.0,0.0,0.0,2.5344,2.5064,2.4756,2.4599,2.4488,2.387,2.3487,2.3351,2.2657,2.1676,2.0654,2.0504,1.9365,1.7777,1.7436,1.7018,1.6418,1.6341,1.6132,1.6181,1.7603,1.7933,1.7716,1.7034,1.6232,1.5404,1.4208,1.3584,1.3367,1.2244,1.1619,1.1619,1.1584,1.1613,1.1577,1.1496,1.1477,1.1457,1.1328,1.1246,1.1268,1.1227,1.12,1.1193,1.1193,1.1227,1.1233,1.1158,1.1124,1.1206,1.1247,1.1321,1.1463,1.1565,1.1584,1.1584,1.1584,1.1584,1.1584,1.1584,1.1217,1.0743,1.0521,0.9651,0.8126,0.7616,0.6966,0.6098,0.5917,0.5518,0.4905,0.471,0.4462,0.3699,0.5189,0.5813,0.5978,0.6062,0.6214,0.6312,0.5592,0.5151,0.502,0.4143,0.3838,0.3766,0.369,0.365,0.3425,0.2547,0.0,0.0,0.1239,0.0,0.0,0.0,0.0,0.0,0.0,0.0,0.0,0.0,0.0,0.0,0.0,0.0,0.0,0.0,0.0,0.0,0.0,0.0,0.0,0.0,0.0,2.5344,2.505,2.4608,2.429,2.3994,2.2285,2.144,2.1141,1.9704,1.8799,1.8497,1.8421,1.7284,1.5693,1.5348,1.4522,1.2881,1.2997,1.3144,1.3907,1.5899,1.7406,1.6936,1.5682,1.4287,1.2769,1.2241,1.2004,1.2088,1.1773,1.159,1.1584,1.1584,1.1584,1.1577,1.1613,1.1563,1.1536,1.147,1.1409,1.1396,1.1315,1.1247,1.1247,1.1261,1.1315,1.1382,1.1382,1.1328,1.1268,1.1341,1.1463,1.1579,1.1584,1.1584,1.1584,1.1584,1.1584,1.1584,1.1217,1.0563,0.9208,0.8667,0.7724,0.6025,0.5627,0.538,0.488,0.492,0.4441,0.3105,0.2764,0.2004,0.0931,0.3058,0.4777,0.5511,0.5468,0.5134,0.51,0.4158,0.2927,0.2888,0.1449,0.0,0.0,0.0,0.0,0.0,0.0,0.0,0.0,0.0,0.0,0.0,0.0,0.0,0.0,0.0,0.0,0.0,0.0,0.0,0.0,0.0,0.0,0.0,0.0,0.0,0.0,0.0,0.0,0.0,0.0,0.0,2.5344,2.4938,2.3154,2.2397,2.2087,2.023,1.9403,1.9327,1.8837,1.7512,1.6599,1.6333,1.5234,1.3414,1.3337,1.2958,1.2617,1.2501,1.2501,1.2617,1.3414,1.4045,1.3969,1.3532,1.297,1.2275,1.2162,1.2054,1.1807,1.1753,1.1685,1.1584,1.1584,1.1584,1.1584,1.1584,1.1584,1.1584,1.155,1.1552,1.1545,1.1518,1.1497,1.1497,1.1491,1.1511,1.1558,1.1558,1.1552,1.1511,1.1531,1.1536,1.1613,1.1584,1.1548,1.1433,1.1512,1.1512,1.1224,1.0209,0.9219,0.8667,0.724,0.5699,0.3887,0.3669,0.2959,0.2025,0.1515,0.0,0.0,0.0,0.0,0.0267,0.0,0.0,0.0,0.1595,0.1645,0.1562,0.0,0.0,0.0,0.0,0.0,0.0,0.0,0.0,0.0,0.0,0.0,0.0,0.0,0.0,0.0,0.0,0.0,0.0,0.0,0.0,0.0,0.0,0.0,0.0,0.0,0.0,0.0,0.0,0.0,0.0,0.0,0.0,0.0,0.0,0.0,2.5489,2.4913,2.2703,2.1717,2.1291,1.8575,1.7331,1.7196,1.6368,1.5425,1.4406,1.4253,1.3606,1.2579,1.254,1.2501,1.2501,1.2501,1.2501,1.2501,1.2617,1.2649,1.2572,1.2501,1.2454,1.2379,1.2318,1.2196,1.2026,1.1861,1.1753,1.1678,1.1611,1.1584,1.1584,1.1584,1.1584,1.1584,1.1584,1.1584,1.1584,1.1584,1.1577,1.1584,1.1584,1.1584,1.1584,1.1584,1.1584,1.1613,1.1584,1.1584,1.1584,1.1584,1.1253,1.0563,1.039,1.0063,0.9154,0.8043,0.715,0.6305,0.509,0.3729,0.2182,0.1663,0.1004,0.0374,0.0,0.0,0.0,0.0,0.0,0.0,0.0,0.0,0.0,0.0,0.0,0.0,0.0,0.0,0.0,0.0,0.0,0.0,0.0,0.0,0.0,0.0,0.0,0.0,0.0,0.0,0.0,0.0,0.0,0.0,0.0,0.0,0.0,0.0,0.0,0.0,0.0,0.0,0.0,0.0,0.0,0.0,0.0,0.0,0.0,0.0,0.0,2.533,2.4629,2.2341,2.1326,2.0413,1.6994,1.5328,1.5069,1.3673,1.2804,1.2695,1.2579,1.2695,1.2501,1.2501,1.2501,1.2501,1.2501,1.2501,1.2501,1.2501,1.2501,1.2501,1.2501,1.2494,1.2467,1.2366,1.2305,1.2203,1.1999,1.187,1.1766,1.1665,1.1633,1.1626,1.1584,1.1584,1.1584,1.1584,1.1584,1.1584,1.1584,1.1584,1.1584,1.1624,1.1604,1.1647,1.1624,1.1536,1.1244,1.1496,1.1437,1.1394,1.125,1.0287,0.8806,0.8328,0.7703,0.6274,0.5904,0.489,0.3612,0.3012,0.1965,0.0,0.0,0.0,0.0,0.0,0.0,0.0,0.0,0.0,0.0,0.0,0.0,0.0,0.0,0.0,0.0,0.0,0.0,0.0,0.0,0.0,0.0,0.0,0.0,0.0,0.0,0.0,0.0,0.0,0.0,0.0,0.0,0.0,0.0,0.0,0.0,0.0,0.0,0.0,0.0,0.0,0.0,0.0,0.0,0.0,0.0,0.0,0.0,0.0,0.0,0.0,2.3333,2.2889,1.8916,1.728,1.6822,1.4453,1.3358,1.3379,1.2802,1.2515,1.2501,1.2501,1.2501,1.2501,1.2501,1.2501,1.2501,1.2501,1.2501,1.2501,1.2501,1.2501,1.2501,1.2501,1.2501,1.2488,1.2474,1.24,1.2284,1.221,1.206,1.1813,1.1759,1.1692,1.1633,1.1584,1.1584,1.1584,1.1584,1.1584,1.1584,1.1584,1.159,1.1604,1.1685,1.1649,1.1658,1.1843,1.1118,1.0193,1.0572,1.0694,0.9626,0.9392,0.8456,0.6976,0.6395,0.6189,0.5559,0.4296,0.3398,0.2765,0.1555,0.0,0.0,0.0,0.0,0.0,0.0,0.0,0.0,0.0,0.0,0.0,0.0,0.0,0.0,0.0,0.0,0.0,0.0,0.0,0.0,0.0,0.0,0.0,0.0,0.0,0.0,0.0,0.0,0.0,0.0,0.0,0.0,0.0,0.0,0.0,0.0,0.0,0.0,0.0,0.0,0.0,0.0,0.0,0.0,0.0,0.0,0.0,0.0,0.0,0.0,0.0,0.0,2.2225,2.0863,1.7576,1.6145,1.576,1.3804,1.2834,1.2807,1.2671,1.2569,1.2508,1.2501,1.2501,1.2501,1.2501,1.2501,1.2501,1.2501,1.2501,1.2501,1.2501,1.2501,1.2501,1.2501,1.2501,1.2501,1.2501,1.2447,1.2393,1.2311,1.2162,1.1945,1.187,1.1748,1.164,1.159,1.1584,1.1584,1.1584,1.1584,1.1584,1.1584,1.1631,1.1671,1.1723,1.1444,1.0443,1.047,0.9372,0.823,0.843,0.8621,0.7653,0.7356,0.6405,0.4866,0.4439,0.3841,0.3008,0.2221,0.154,0.0,0.0,0.0,0.0,0.0,0.0,0.0,0.0,0.0,0.0,0.0,0.0,0.0,0.0,0.0,0.0,0.0,0.0,0.0,0.0,0.0,0.0,0.0,0.0,0.0,0.0,0.0,0.0,0.0,0.0,0.0,0.0,0.0,0.0,0.0,0.0,0.0,0.0,0.0,0.0,0.0,0.0,0.0,0.0,0.0,0.0,0.0,0.0,0.0,0.0,0.0,0.0,0.0,0.0,2.0911,1.8894,1.6823,1.5902,1.5473,1.381,1.3016,1.2975,1.2793,1.263,1.2522,1.2501,1.2501,1.2501,1.2501,1.2501,1.2501,1.2501,1.2501,1.2501,1.2501,1.2501,1.2501,1.2501,1.2501,1.2501,1.2501,1.2488,1.2454,1.2379,1.2264,1.2139,1.1979,1.185,1.1671,1.1681,1.1681,1.1597,1.166,1.1638,1.1631,1.1595,1.1583,1.1067,1.11,1.0156,0.8865,0.8356,0.7582,0.5597,0.5466,0.5314,0.5056,0.5228,0.4512,0.2663,0.2458,0.189,0.0,0.0,0.0,0.0,0.0,0.0,0.0,0.0,0.0,0.0,0.0,0.0,0.0,0.0,0.0,0.0,0.0,0.0,0.0,0.0,0.0,0.0,0.0,0.0,0.0,0.0,0.0,0.0,0.0,0.0,0.0,0.0,0.0,0.0,0.0,0.0,0.0,0.0,0.0,0.0,0.0,0.0,0.0,0.0,0.0,0.0,0.0,0.0,0.0,0.0,0.0,0.0,0.0,0.0,0.0,0.0,0.0,1.7439,1.6882,1.4784,1.3893,1.3823,1.3322,1.3111,1.2949,1.2807,1.2605,1.2522,1.2501,1.2501,1.2501,1.2501,1.2501,1.2501,1.2501,1.2501,1.2501,1.2501,1.2501,1.2501,1.2501,1.2501,1.2501,1.2501,1.2501,1.2501,1.2467,1.2366,1.2264,1.2203,1.206,1.1898,1.1898,1.1837,1.1714,1.1755,1.1759,1.1759,1.1474,1.0865,0.983,0.9677,0.8413,0.6902,0.6493,0.5691,0.369,0.3527,0.2646,0.206,0.2794,0.2446,0.0,0.0,0.0,0.0,0.0,0.0,0.0,0.0,0.0,0.0,0.0,0.0,0.0,0.0,0.0,0.0,0.0,0.0,0.0,0.0,0.0,0.0,0.0,0.0,0.0,0.0,0.0,0.0,0.0,0.0,0.0,0.0,0.0,0.0,0.0,0.0,0.0,0.0,0.0,0.0,0.0,0.0,0.0,0.0,0.0,0.0,0.0,0.0,0.0,0.0,0.0,0.0,0.0,0.0,0.0,0.0,0.0,0.0,0.0,0.0,1.5958,1.4863,1.3804,1.3397,1.339,1.3329,1.3248,1.3105,1.2915,1.2759,1.263,1.2542,1.2501,1.2501,1.2501,1.2501,1.2501,1.2501,1.2501,1.2501,1.2501,1.2501,1.2501,1.2501,1.2501,1.2501,1.2501,1.2501,1.2501,1.2501,1.2427,1.2318,1.2291,1.2169,1.205,1.2043,1.2023,1.1877,1.1874,1.1871,1.1686,1.0977,0.9697,0.9149,0.7875,0.6479,0.4935,0.4534,0.3591,0.1908,0.1485,0.0,0.0,0.0,0.0,0.0,0.0,0.0,0.0,0.0,0.0,0.0,0.0,0.0,0.0,0.0,0.0,0.0,0.0,0.0,0.0,0.0,0.0,0.0,0.0,0.0,0.0,0.0,0.0,0.0,0.0,0.0,0.0,0.0,0.0,0.0,0.0,0.0,0.0,0.0,0.0,0.0,0.0,0.0,0.0,0.0,0.0,0.0,0.0,0.0,0.0,0.0,0.0,0.0,0.0,0.0,0.0,0.0,0.0,0.0,0.0,0.0,0.0,0.0,0.0,1.4946,1.3397,1.3397,1.3397,1.3397,1.3397,1.3308,1.3207,1.3091,1.2955,1.2766,1.263,1.2556,1.2542,1.2515,1.2501,1.2501,1.2501,1.2501,1.2501,1.2501,1.2501,1.2501,1.2501,1.2501,1.2501,1.2501,1.2501,1.2501,1.2501,1.2433,1.2379,1.2338,1.2295,1.2186,1.2207,1.2166,1.1999,1.1564,1.142,1.0514,0.9327,0.8152,0.7957,0.6277,0.4492,0.2691,0.2464,0.1802,0.0,0.0,0.0,0.0,0.0,0.0,0.0,0.0,0.0,0.0,0.0,0.0,0.0,0.0,0.0,0.0,0.0,0.0,0.0,0.0,0.0,0.0,0.0,0.0,0.0,0.0,0.0,0.0,0.0,0.0,0.0,0.0,0.0,0.0,0.0,0.0,0.0,0.0,0.0,0.0,0.0,0.0,0.0,0.0,0.0,0.0,0.0,0.0,0.0,0.0,0.0,0.0,0.0,0.0,0.0,0.0,0.0,0.0,0.0,0.0,0.0,0.0,0.0,0.0,0.0,0.0,1.3645,1.3397,1.3397,1.3397,1.3397,1.3397,1.3315,1.3227,1.3193,1.3111,1.2922,1.2766,1.2645,1.2644,1.2549,1.2508,1.2501,1.2501,1.2501,1.2501,1.2501,1.2501,1.2501,1.2501,1.2501,1.2501,1.2501,1.2501,1.2501,1.2501,1.2494,1.2461,1.244,1.2406,1.2322,1.2338,1.2305,1.1835,1.0396,0.8726,0.7324,0.6803,0.5674,0.4517,0.3548,0.2616,0.0,0.0,0.0,0.0,0.0,0.0,0.0,0.0,0.0,0.0,0.0,0.0,0.0,0.0,0.0,0.0,0.0,0.0,0.0,0.0,0.0,0.0,0.0,0.0,0.0,0.0,0.0,0.0,0.0,0.0,0.0,0.0,0.0,0.0,0.0,0.0,0.0,0.0,0.0,0.0,0.0,0.0,0.0,0.0,0.0,0.0,0.0,0.0,0.0,0.0,0.0,0.0,0.0,0.0,0.0,0.0,0.0,0.0,0.0,0.0,0.0,0.0,0.0,0.0,0.0,0.0,0.0,0.0,0.0,1.3397,1.3397,1.3397,1.3397,1.3397,1.3397,1.337,1.3295,1.3248,1.318,1.3084,1.2827,1.2645,1.2603,1.2522,1.2501,1.2501,1.2501,1.2501,1.2501,1.2501,1.2501,1.2501,1.2501,1.2501,1.2501,1.2501,1.2501,1.2501,1.2463,1.2501,1.2501,1.2501,1.2474,1.2201,1.2429,1.1644,1.0388,0.8659,0.7173,0.6136,0.5067,0.4068,0.3091,0.1998,0.0,0.0,0.0,0.0,0.0,0.0,0.0,0.0,0.0,0.0,0.0,0.0,0.0,0.0,0.0,0.0,0.0,0.0,0.0,0.0,0.0,0.0,0.0,0.0,0.0,0.0,0.0,0.0,0.0,0.0,0.0,0.0,0.0,0.0,0.0,0.0,0.0,0.0,0.0,0.0,0.0,0.0,0.0,0.0,0.0,0.0,0.0,0.0,0.0,0.0,0.0,0.0,0.0,0.0,0.0,0.0,0.0,0.0,0.0,0.0,0.0,0.0,0.0,0.0,0.0,0.0,0.0,0.0,0.0,0.0,1.3397,1.3397,1.3397,1.3397,1.3397,1.3397,1.3397,1.3383,1.3281,1.3234,1.3193,1.2929,1.2691,1.2535,1.2508,1.2501,1.2501,1.2501,1.2501,1.2501,1.2501,1.2501,1.2501,1.2501,1.2501,1.2501,1.2501,1.2108,1.1637,1.1676,1.176,1.2424,1.2501,1.2063,1.1714,1.1327,1.0369,0.7484,0.6202,0.5117,0.4261,0.3013,0.2467,0.1802,0.0,0.0,0.0,0.0,0.0,0.0,0.0,0.0,0.0,0.0,0.0,0.0,0.0,0.0,0.0,0.0,0.0,0.0,0.0,0.0,0.0,0.0,0.0,0.0,0.0,0.0,0.0,0.0,0.0,0.0,0.0,0.0,0.0,0.0,0.0,0.0,0.0,0.0,0.0,0.0,0.0,0.0,0.0,0.0,0.0,0.0,0.0,0.0,0.0,0.0,0.0,0.0,0.0,0.0,0.0,0.0,0.0,0.0,0.0,0.0,0.0,0.0,0.0,0.0,0.0,0.0,0.0,0.0,0.0,0.0,0.0,1.3397,1.3397,1.3397,1.3397,1.3397,1.3397,1.3397,1.3397,1.3383,1.3363,1.3281,1.3057,1.2745,1.2562,1.2501,1.2501,1.2501,1.2501,1.2501,1.2501,1.2501,1.2501,1.2424,1.2347,1.2224,1.2192,1.1682,1.0701,1.0036,0.9609,1.074,1.2147,1.1405,1.0856,1.0036,0.9138,0.7501,0.5042,0.3638,0.2507,0.0,0.0,0.0,0.0,0.0,0.0,0.0,0.0,0.0,0.0,0.0,0.0,0.0,0.0,0.0,0.0,0.0,0.0,0.0,0.0,0.0,0.0,0.0,0.0,0.0,0.0,0.0,0.0,0.0,0.0,0.0,0.0,0.0,0.0,0.0,0.0,0.0,0.0,0.0,0.0,0.0,0.0,0.0,0.0,0.0,0.0,0.0,0.0,0.0,0.0,0.0,0.0,0.0,0.0,0.0,0.0,0.0,0.0,0.0,0.0,0.0,0.0,0.0,0.0,0.0,0.0,0.0,0.0,0.0,0.0,0.0,0.0,0.0,0.0,0.0,1.3397,1.3397,1.3397,1.3397,1.3397,1.3397,1.3397,1.3397,1.3397,1.3288,1.3166,1.2908,1.2705,1.2549,1.2501,1.2501,1.2501,1.2501,1.2463,1.2501,1.2501,1.2501,1.2192,1.1172,1.0546,1.0314,0.9493,0.8517,0.7622,0.7505,0.7773,0.8517,0.8672,0.8322,0.7423,0.6368,0.4574,0.3443,0.0,0.0,0.0,0.0,0.0,0.0,0.0,0.0,0.0,0.0,0.0,0.0,0.0,0.0,0.0,0.0,0.0,0.0,0.0,0.0,0.0,0.0,0.0,0.0,0.0,0.0,0.0,0.0,0.0,0.0,0.0,0.0,0.0,0.0,0.0,0.0,0.0,0.0,0.0,0.0,0.0,0.0,0.0,0.0,0.0,0.0,0.0,0.0,0.0,0.0,0.0,0.0,0.0,0.0,0.0,0.0,0.0,0.0,0.0,0.0,0.0,0.0,0.0,0.0,0.0,0.0,0.0,0.0,0.0,0.0,0.0,0.0,0.0,0.0,0.0,0.0,0.0,1.3397,1.3397,1.3349,1.3356,1.3397,1.3397,1.337,1.3336,1.3329,1.3166,1.2888,1.2773,1.2644,1.2535,1.2501,1.2501,1.2501,1.2463,1.203,1.1676,1.1405,1.125,1.0347,0.941,0.8439,0.8089,0.7228,0.6293,0.5357,0.5357,0.4927,0.4615,0.4498,0.4576,0.4888,0.3366,0.2194,0.1725,0.0,0.0,0.0,0.0,0.0,0.0,0.0,0.0,0.0,0.0,0.0,0.0,0.0,0.0,0.0,0.0,0.0,0.0,0.0,0.0,0.0,0.0,0.0,0.0,0.0,0.0,0.0,0.0,0.0,0.0,0.0,0.0,0.0,0.0,0.0,0.0,0.0,0.0,0.0,0.0,0.0,0.0,0.0,0.0,0.0,0.0,0.0,0.0,0.0,0.0,0.0,0.0,0.0,0.0,0.0,0.0,0.0,0.0,0.0,0.0,0.0,0.0,0.0,0.0,0.0,0.0,0.0,0.0,0.0,0.0,0.0,0.0,0.0,0.0,0.0,0.0,0.0,1.339,1.3383,1.3275,1.3261,1.3363,1.3397,1.3308,1.3186,1.32,1.301,1.2773,1.2679,1.2637,1.2522,1.2501,1.2308,1.1992,1.2069,1.125,0.9804,0.941,0.8361,0.7384,0.6644,0.6332,0.6371,0.5474,0.4263,0.3169,0.3171,0.2233,0.0,0.0,0.1725,0.2858,0.1177,0.0157,0.0,0.0,0.0,0.0,0.0,0.0,0.0,0.0,0.0,0.0,0.0,0.0,0.0,0.0,0.0,0.0,0.0,0.0,0.0,0.0,0.0,0.0,0.0,0.0,0.0,0.0,0.0,0.0,0.0,0.0,0.0,0.0,0.0,0.0,0.0,0.0,0.0,0.0,0.0,0.0,0.0,0.0,0.0,0.0,0.0,0.0,0.0,0.0,0.0,0.0,0.0,0.0,0.0,0.0,0.0,0.0,0.0,0.0,0.0,0.0,0.0,0.0,0.0,0.0,0.0,0.0,0.0,0.0,0.0,0.0,0.0,0.0,0.0,0.0,0.0,0.0,0.0,0.0,1.3152,1.3146,1.3091,1.3098,1.3146,1.3152,1.3118,1.3024,1.2929,1.278,1.2686,1.2637,1.2562,1.2508,1.2263,1.1721,1.0546,1.0391,0.9333,0.754,0.7345,0.7033,0.602,0.4732,0.4185,0.3756,0.3053,0.0,0.1059,0.0,0.0,0.0,0.0,0.0,0.0784,0.0,0.0,0.0,0.0,0.0,0.0,0.0,0.0,0.0,0.0,0.0,0.0,0.0,0.0,0.0,0.0,0.0,0.0,0.0,0.0,0.0,0.0,0.0,0.0,0.0,0.0,0.0,0.0,0.0,0.0,0.0,0.0,0.0,0.0,0.0,0.0,0.0,0.0,0.0,0.0,0.0,0.0,0.0,0.0,0.0,0.0,0.0,0.0,0.0,0.0,0.0,0.0,0.0,0.0,0.0,0.0,0.0,0.0,0.0,0.0,0.0,0.0,0.0,0.0,0.0,0.0,0.0,0.0,0.0,0.0,0.0,0.0,0.0,0.0,0.0,0.0,0.0,0.0,0.0,0.0,1.3003,1.2996,1.2901,1.2881,1.2928,1.2975,1.2975,1.2861,1.2725,1.2651,1.263,1.2542,1.1992,1.1605,1.1289,1.0308,0.8439,0.8283,0.7189,0.5396,0.5201,0.4537,0.364,0.0,0.2155,0.0,0.0,0.0,0.0,0.0,0.0,0.0,0.0,0.0,0.0,0.0,0.0,0.0,0.0,0.0,0.0,0.0,0.0,0.0,0.0,0.0,0.0,0.0,0.0,0.0,0.0,0.0,0.0,0.0,0.0,0.0,0.0,0.0,0.0,0.0,0.0,0.0,0.0,0.0,0.0,0.0,0.0,0.0,0.0,0.0,0.0,0.0,0.0,0.0,0.0,0.0,0.0,0.0,0.0,0.0,0.0,0.0,0.0,0.0,0.0,0.0,0.0,0.0,0.0,0.0,0.0,0.0,0.0,0.0,0.0,0.0,0.0,0.0,0.0,0.0,0.0,0.0,0.0,0.0,0.0,0.0,0.0,0.0,0.0,0.0,0.0,0.0,0.0,0.0,0.0,1.2982,1.2962,1.2786,1.2725,1.2752,1.2861,1.2847,1.2672,1.2576,1.2431,1.2269,1.216,1.1095,0.9532,0.9333,0.8123,0.6527,0.6215,0.481,0.3562,0.3053,0.1959,0.0,0.0,0.0,0.0,0.0,0.0,0.0,0.0,0.0,0.0,0.0,0.0,0.0,0.0,0.0,0.0,0.0,0.0,0.0,0.0,0.0,0.0,0.0,0.0,0.0,0.0,0.0,0.0,0.0,0.0,0.0,0.0,0.0,0.0,0.0,0.0,0.0,0.0,0.0,0.0,0.0,0.0,0.0,0.0,0.0,0.0,0.0,0.0,0.0,0.0,0.0,0.0,0.0,0.0,0.0,0.0,0.0,0.0,0.0,0.0,0.0,0.0,0.0,0.0,0.0,0.0,0.0,0.0,0.0,0.0,0.0,0.0,0.0,0.0,0.0,0.0,0.0,0.0,0.0,0.0,0.0,0.0,0.0,0.0,0.0,0.0,0.0,0.0,0.0,0.0,0.0,0.0,0.0,1.2669,1.263,1.2589,1.2569,1.2569,1.2617,1.261,1.2562,1.2476,1.1798,1.0275,1.0275,0.926,0.731,0.715,0.5825,0.4732,0.3756,0.2585,0.0,0.0,0.0,0.0,0.0,0.0,0.0,0.0,0.0,0.0,0.0,0.0,0.0,0.0,0.0,0.0,0.0,0.0,0.0,0.0,0.0,0.0,0.0,0.0,0.0,0.0,0.0,0.0,0.0,0.0,0.0,0.0,0.0,0.0,0.0,0.0,0.0,0.0,0.0,0.0,0.0,0.0,0.0,0.0,0.0,0.0,0.0,0.0,0.0,0.0,0.0,0.0,0.0,0.0,0.0,0.0,0.0,0.0,0.0,0.0,0.0,0.0,0.0,0.0,0.0,0.0,0.0,0.0,0.0,0.0,0.0,0.0,0.0,0.0,0.0,0.0,0.0,0.0,0.0,0.0,0.0,0.0,0.0,0.0,0.0,0.0,0.0,0.0,0.0,0.0,0.0,0.0,0.0,0.0,0.0,0.0,1.2501,1.2501,1.2501,1.2501,1.2501,1.2501,1.2501,1.2501,1.2501,1.1327,0.9532,0.9454,0.7812,0.5276,0.4927,0.3912,0.1998,0.1841,0.0,0.0,0.0,0.0,0.0,0.0,0.0,0.0,0.0,0.0,0.0,0.0,0.0,0.0,0.0,0.0,0.0,0.0,0.0,0.0,0.0,0.0,0.0,0.0,0.0,0.0,0.0,0.0,0.0,0.0,0.0,0.0,0.0,0.0,0.0,0.0,0.0,0.0,0.0,0.0,0.0,0.0,0.0,0.0,0.0,0.0,0.0,0.0,0.0,0.0,0.0,0.0,0.0,0.0,0.0,0.0,0.0,0.0,0.0,0.0,0.0,0.0,0.0,0.0,0.0,0.0,0.0,0.0,0.0,0.0,0.0,0.0,0.0,0.0,0.0,0.0,0.0,0.0,0.0,0.0,0.0,0.0,0.0,0.0,0.0,0.0,0.0,0.0,0.0,0.0,0.0,0.0,0.0,0.0,0.0,0.0,0.0,1.2501,1.2501,1.2501,1.2501,1.2501,1.2501,1.2385,1.2263,1.2069,1.1056,0.926,0.8828,0.6329,0.3365,0.2819,0.1998,0.0,0.0,0.0,0.0,0.0,0.0,0.0,0.0,0.0,0.0,0.0,0.0,0.0,0.0,0.0,0.0,0.0,0.0,0.0,0.0,0.0,0.0,0.0,0.0,0.0,0.0,0.0,0.0,0.0,0.0,0.0,0.0,0.0,0.0,0.0,0.0,0.0,0.0,0.0,0.0,0.0,0.0,0.0,0.0,0.0,0.0,0.0,0.0,0.0,0.0,0.0,0.0,0.0,0.0,0.0,0.0,0.0,0.0,0.0,0.0,0.0,0.0,0.0,0.0,0.0,0.0,0.0,0.0,0.0,0.0,0.0,0.0,0.0,0.0,0.0,0.0,0.0,0.0,0.0,0.0,0.0,0.0,0.0,0.0,0.0,0.0,0.0,0.0,0.0,0.0,0.0,0.0,0.0,0.0,0.0,0.0,0.0,0.0,0.0,1.2501,1.2501,1.2501,1.2501,1.2501,1.2501,1.1566,1.0192,1.0153,0.8983,0.7033,0.5315,0.3404,0.1333,0.0,0.0,0.0,0.0,0.0,0.0,0.0,0.0,0.0,0.0,0.0,0.0,0.0,0.0,0.0,0.0,0.0,0.0,0.0,0.0,0.0,0.0,0.0,0.0,0.0,0.0,0.0,0.0,0.0,0.0,0.0,0.0,0.0,0.0,0.0,0.0,0.0,0.0,0.0,0.0,0.0,0.0,0.0,0.0,0.0,0.0,0.0,0.0,0.0,0.0,0.0,0.0,0.0,0.0,0.0,0.0,0.0,0.0,0.0,0.0,0.0,0.0,0.0,0.0,0.0,0.0,0.0,0.0,0.0,0.0,0.0,0.0,0.0,0.0,0.0,0.0,0.0,0.0,0.0,0.0,0.0,0.0,0.0,0.0,0.0,0.0,0.0,0.0,0.0,0.0,0.0,0.0,0.0,0.0,0.0,0.0,0.0,0.0,0.0,0.0,0.0,1.2501,1.2501,1.2501,1.2501,1.2501,1.2501,1.1327,0.9493,0.8439,0.6839,0.4967,0.3521,0.192,0.0,0.0,0.0,0.0,0.0,0.0,0.0,0.0,0.0,0.0,0.0,0.0,0.0,0.0,0.0,0.0,0.0,0.0,0.0,0.0,0.0,0.0,0.0,0.0,0.0,0.0,0.0,0.0,0.0,0.0,0.0,0.0,0.0,0.0,0.0,0.0,0.0,0.0,0.0,0.0,0.0,0.0,0.0,0.0,0.0,0.0,0.0,0.0,0.0,0.0,0.0,0.0,0.0,0.0,0.0,0.0,0.0,0.0,0.0,0.0,0.0,0.0,0.0,0.0,0.0,0.0,0.0,0.0,0.0,0.0,0.0,0.0,0.0,0.0,0.0,0.0,0.0,0.0,0.0,0.0,0.0,0.0,0.0,0.0,0.0,0.0,0.0,0.0,0.0,0.0,0.0,0.0,0.0,0.0,0.0,0.0,0.0,0.0,0.0,0.0,0.0,0.0,1.2501,1.2501,1.2501,1.2501,1.2501,1.2501,1.1327,0.9299,0.7228,0.5201,0.3326,0.2819,0.1529,0.0,0.0,0.0,0.0,0.0,0.0,0.0,0.0,0.0,0.0,0.0,0.0,0.0,0.0,0.0,0.0,0.0,0.0,0.0,0.0,0.0,0.0,0.0,0.0,0.0,0.0,0.0,0.0,0.0,0.0,0.0,0.0,0.0,0.0,0.0,0.0,0.0,0.0,0.0,0.0,0.0,0.0,0.0,0.0,0.0,0.0,0.0,0.0,0.0,0.0,0.0,0.0,0.0,0.0,0.0,0.0,0.0,0.0,-0.231,-0.2561,0.0,0.0,0.0,0.0,0.0,0.0,0.0,0.0,0.0,0.0,0.0,0.0,0.0,-0.0295,-0.0168,0.0,0.0,0.0,0.0,0.0,0.0,0.0,0.0,0.0,0.0,0.0,0.0,0.0,0.0,0.0,0.0,0.0,0.0,0.0,0.0,0.0,0.0,0.0,0.0,0.0,0.0,0.0,1.2501,1.2501,1.2501,1.2501,1.2501,1.2501,1.1327,0.926,0.7154,0.5084,0.2975,0.1254,0.0,0.0,0.0,0.0,0.0,0.0,0.0,0.0,0.0,0.0,0.0,0.0,0.0,0.0,0.0,0.0,0.0,0.0,0.0,0.0,0.0,0.0,0.0,0.0,0.0,0.0,0.0,0.0,0.0,0.0,0.0,0.0,0.0,0.0,0.0,0.0,0.0,0.0,0.0,0.0,0.0,0.0,0.0,0.0,0.0,0.0,0.0,0.0,0.0,0.0,0.0,0.0,0.0,0.0,0.0,0.0,0.0,0.0,-0.2771,-0.3232,-0.3566,-0.4069,0.0,0.0,0.0,0.0,0.0,0.0,0.0,0.0,0.0,0.0,0.0,-0.3357,-0.231,-0.2016,-0.0714,0.0,0.0,0.0,0.0,0.0,0.0,0.0,0.0,0.0,0.0,0.0,0.0,0.0,0.0,0.0,0.0,0.0,0.0,0.0,0.0,0.0,0.0,0.0,0.0,0.0,0.0]},{"header":{"parameterUnit":"m.s-1","parameterCategory":1,"la1":31.0,"la2":29.5877,"lo1":-88.7671,"lo2":-86.6584,"dy":0.0162,"dx":0.0185,"nx":115,"ny":88,"refTime":"2024-09-29T18:00:00:Z","depth":0,"parameterNumber":3,"parameterNumberName":"V-component_of_WINDS"},"data":[0.0,0.0,0.0,0.0,0.0,0.0,0.0,0.0,0.0,0.0,0.0,0.0,0.0,0.0,0.0,0.0,0.0,0.0,0.0,0.0,0.0,0.0,0.0,0.0,0.0,0.0,0.0,0.0,0.0,0.0,0.0,0.0,0.0,0.0,0.0,0.0,0.0,0.0,0.0,0.0,0.0,0.0,0.0,0.0,0.0,0.0,0.0,0.0,0.0,0.0,0.0,0.0,0.0,0.0,0.0,0.0,0.0,0.0,0.0,0.0,0.0,0.0,0.0,0.0,0.0,0.0,0.0,0.0,0.0,0.0,0.0,0.0,0.0,0.0,0.0,0.0,0.0,0.0,0.0,0.0,0.0,0.0,0.0,0.0,0.0,0.0,0.0,0.0,0.0,0.0,0.0,0.0,0.0,0.0,0.0,0.0,0.0,0.0,0.0,0.0,0.0,0.0,0.0,0.0,0.0,0.0,0.0,0.0,0.0,0.0,0.0,0.0,0.0,0.0,0.0,0.0,0.0,0.0,0.0,0.0,0.0,0.0,0.0,0.0,0.0,0.0,0.0,0.0,0.0,0.0,0.0,0.0,0.0,0.0,0.0,0.0,0.0,0.0,0.0,0.0,0.0,0.0,0.0,0.0,0.0,0.0,0.0,0.0,0.0,0.0,0.0,0.0,0.0,0.0,0.0,0.0,0.0,0.0,0.0,0.0,0.0,0.0,0.0,0.0,0.0,0.0,0.0,0.0,0.0,0.0,0.0,0.0,0.0,0.0,0.0,0.0,0.0,0.0,0.0,0.0,0.0,0.0,0.0,0.0,0.0,0.0,0.0,0.0,0.0,0.0,0.0,0.0,0.0,0.0,0.0,0.0,0.0,0.0,0.0,0.0,0.0,0.0,0.0,0.0,0.0,0.0,0.0,0.0,0.0,0.0,0.0,0.0,0.0,0.0,0.0,0.0,0.0,0.0,0.0,0.0,0.0,0.0,0.0,0.0,0.0,0.0,0.0,0.0,0.0,0.0,0.0,0.0,0.0,0.0,0.0,0.0,0.0,0.0,0.0,0.0,0.0,0.0,0.0,0.0,0.0,0.0,0.0,0.0,0.0,0.0,0.0,0.0,0.0,0.0,0.0,0.0,0.0,0.0,0.0,0.0,0.0,0.0,0.0,0.0,0.0,0.0,0.0,0.0,0.0,0.0,0.0,0.0,0.0,0.0,0.0,0.0,0.0,0.0,0.0,0.0,0.0,0.0,0.0,0.0,0.0,0.0,0.0,0.0,0.0,0.0,0.0,0.0,0.0,0.0,0.0,0.0,0.0,0.0,0.0,0.0,0.0,0.0,0.0,0.0,0.0,0.0,0.0,0.0,0.0,0.0,0.0,0.0,0.0,0.0,0.0,0.0,0.0,0.0,0.0,0.0,0.0,0.0,0.0,0.0,0.0,0.0,0.0,0.0,0.0,0.0,0.0,0.0,0.0,0.0,0.0,0.0,0.0,0.0,0.0,0.0,0.0,0.0,0.0,0.0,0.0,0.0,0.0,0.0,0.0,0.0,0.0,0.0,0.0,0.0,0.0,0.0,0.0,0.0,0.0,0.0,0.0,0.0,0.0,0.0,0.0,0.0,0.0,0.0,0.0,0.0,0.0,0.0,0.0,0.0,0.0,0.0,0.0,0.0,0.0,0.0,0.0,0.0,0.0,0.0,0.0,0.0,0.0,0.0,0.0,0.0,0.0,0.0,0.0,0.0,0.0,0.0,0.0,0.0,0.0,0.0,0.0,0.0,0.0,0.0,0.0,0.0,0.0,0.0,0.0,0.0,0.0,0.0,0.0,0.0,0.0,0.0,0.0,0.0,0.0,0.0,0.0,0.0,0.0,0.0,0.0,0.0,0.0,0.0,0.0,0.0,0.0,0.0,0.0,0.0,0.0,0.0,0.0,0.0,0.0,0.0,0.0,0.0,0.0,0.0,0.0,0.0,0.0,0.0,0.0,0.0,0.0,0.0,0.0,0.0,0.0,0.0,0.0,0.0,0.0,0.0,0.0,0.0,0.0,0.0,0.0,0.0,0.0,0.0,0.0,0.0,0.0,0.0,0.0,0.0,0.0,0.0,0.0,0.0,0.0,0.0,0.0,0.0,0.0,0.0,0.0,0.0,0.0,0.0,0.0,0.0,0.0,0.0,0.0,0.0,0.0,0.0,0.0,0.0,0.0,0.0,0.0,0.0,0.0,0.0,0.0,0.0,0.0,0.0,0.0,0.0,0.0,0.0,0.0,0.0,0.0,0.0,0.0,0.0,0.0,0.0,0.0,0.0,0.0,0.0,0.0,0.0,0.0,0.0,0.0,0.0,0.0,0.0,0.0,0.0,0.0,0.0,0.0,0.0,0.0,0.0,0.0,0.0,0.0,0.0,0.0,0.0,0.0,0.0,0.0,0.0,0.0,0.0,0.0,0.0,0.0,0.0,0.0,0.0,0.0,0.0,0.0,0.0,0.0,0.0,0.0,0.0,0.0,0.0,0.0,0.0,0.0,0.0,0.0,0.0,0.0,0.0,0.0,0.0,0.0,0.0,0.0,0.0,0.0,0.0,0.0,0.0,0.0,0.0,0.0,0.0,0.0,0.0,0.0,0.0,0.0,0.0,0.0,0.0,0.0,0.0,0.0,0.0,0.0,0.0,0.0,0.0,0.0,0.0,0.0,0.0,0.0,0.0,0.0,0.0,0.0,0.0,0.0,0.0,0.0,0.0,0.0,0.0,0.0,0.0,0.0,0.0,0.0,0.0,0.0,0.0,0.0,0.0,0.0,0.0,0.0,0.0,0.0,0.0,0.0,0.0,0.0,0.0,0.0,0.0,0.0,0.0,0.0,0.0,0.0,0.0,0.0,0.0,0.0,0.0,0.0,0.0,0.0,0.0,0.0,0.0,0.0,0.0,0.0,0.0,0.0,0.0,0.0,0.0,0.0,0.0,0.0,0.0,0.0,0.0,0.0,0.0,0.0,0.0,0.0,0.0,0.0,0.0,0.0,0.0,0.0,0.0,0.0,0.0,0.0,0.0,0.0,0.0,0.0,0.0,0.0,0.0,0.0,0.0,0.0,0.0,0.0,0.0,0.0,0.0,0.0,0.0,0.0,0.0,0.0,0.0,0.0,0.0,0.0,0.0,0.0,0.0,0.0,0.0,0.0,0.0,0.0,0.0,0.0,0.0,0.0,0.0,0.0,0.0,0.0,0.0,0.0,0.0,0.0,0.0,0.0,0.0,0.0,0.0,0.0,0.0,0.0,0.0,0.0,0.0,0.0,0.0,0.0,0.0,0.0,0.0,0.0,0.0,0.0,0.0,0.0,0.0,0.0,0.0,0.0,0.0,0.0,0.0,0.0,0.0,0.0,0.0,0.0,0.0,0.0,0.0,0.0,0.0,0.0,0.0,0.0,0.0,0.0,0.0,0.0,0.0,0.0,0.0,0.0,0.0,0.0,0.0,0.0,0.0,0.0,0.0,0.0,0.0,0.0,0.0,0.0,0.0,0.0,0.0,0.0,0.0,0.0,0.0,0.0,0.0,0.0,0.0,0.0,0.0,0.0,0.0,0.0,0.0,0.0,0.0,0.0,0.0,0.0,0.0,0.0,0.0,0.0,0.0,0.0,0.0,0.0,0.0,0.0,0.0,0.0,0.0,0.0,0.0,0.0,0.0,0.0,0.0,0.0,0.0,0.0,0.0,0.0,0.0,0.0,0.0,0.0,0.0,0.0,0.0,0.0,0.0,0.0,0.0,0.0,0.0,0.0,0.0,0.0,0.0,0.0,0.0,0.0,0.0,0.0,0.0,0.0,0.0,0.0,0.0,0.0,0.0,0.0,0.0,0.0,0.0,0.0,0.0,0.0,0.0,0.0,0.0,0.0,0.0,0.0,0.0,0.0,0.0,0.0,0.0,0.0,0.0,0.0,0.0,0.0,0.0,0.0,0.0,0.0,0.0,0.0,0.0,0.0,0.0,0.0,0.0,0.0,0.0,0.0,0.0,0.0,0.0,0.0,0.0,0.0,0.0,0.0,0.0,0.0,0.0,0.0,0.0,0.0,0.0,0.0,0.0,0.0,0.0,0.0,0.0,0.0,0.0,0.0,0.0,0.0,0.0,0.0,0.0,0.0,0.0,0.0,0.0,0.0,0.0,0.0,0.0,0.0,0.0,0.0,0.0,0.0,0.0,0.0,0.0,0.0,0.0,0.0,0.0,0.0,0.0,0.0,0.0,0.0,0.0,0.0,0.0,0.0,0.0,2.1555,0.0,0.0,0.0,0.0,0.0,0.0,0.0,0.0,0.0,0.0,0.0,0.0,0.0,0.0,0.0,0.0,0.0,0.0,0.0,0.0,0.0,0.0,0.0,0.0,0.0,0.0,0.0,0.0,0.0,0.0,0.0,0.0,0.0,0.0,0.0,0.0,0.0,0.0,0.0,0.0,0.0,0.0,0.0,0.0,0.0,0.0,0.0,0.0,0.0,0.0,0.0,0.0,0.0,0.0,0.0,0.0,0.0,0.0,0.0,0.0,0.0,0.0,0.0,0.0,0.0,0.0,0.0,0.0,0.0,0.0,0.0,0.0,0.0,0.0,0.0,0.0,0.0,0.0,0.0,0.0,0.0,0.0,0.0,0.0,0.0,0.0,0.0,0.0,0.0,0.0,0.0,0.0,0.0,0.0,0.0,0.0,0.0,0.0,0.0,0.0,0.0,0.0,0.0,0.0,0.0,0.0,0.0,0.0,0.0,0.0,2.3261,2.3561,2.2353,2.1704,2.1694,0.0,0.0,0.0,0.0,0.0,0.0,0.0,0.0,0.0,0.0,0.0,0.0,0.0,0.0,0.0,0.0,0.0,0.0,0.0,0.0,0.0,0.0,0.0,0.0,0.0,0.0,0.0,0.0,0.0,0.0,0.0,0.0,0.0,0.0,0.0,0.0,0.0,0.0,0.0,0.0,0.0,0.0,0.0,0.0,0.0,0.0,0.0,0.0,0.0,0.0,0.0,0.0,0.0,0.0,0.0,0.0,0.0,0.0,0.0,0.0,0.0,0.0,0.0,0.0,0.0,0.0,0.0,0.0,0.0,0.0,0.0,0.0,0.0,0.0,0.0,0.0,0.0,0.0,0.0,0.0,0.0,0.0,0.0,0.0,0.0,0.0,0.0,0.0,0.0,0.0,0.0,0.0,0.0,0.0,0.0,0.0,0.0,0.0,0.0,0.0,0.0,0.0,0.0,0.0,0.0,0.0,0.0,0.0,0.0,0.0,0.0,0.0,2.2951,2.2254,2.2083,0.0,0.0,0.0,0.0,0.0,0.0,0.0,0.0,0.0,0.0,0.0,0.0,0.0,0.0,0.0,0.0,0.0,0.0,0.0,0.0,0.0,0.0,0.0,0.0,0.0,0.0,0.0,0.0,0.0,0.0,0.0,0.0,0.0,0.0,0.0,0.0,0.0,0.0,0.0,0.0,0.0,0.0,0.0,0.0,0.0,0.0,0.0,0.0,0.0,0.0,0.0,0.0,0.0,0.0,0.0,0.0,0.0,0.0,0.0,0.0,0.0,0.0,0.0,0.0,0.0,0.0,0.0,0.0,0.0,0.0,0.0,0.0,0.0,0.0,0.0,0.0,0.0,0.0,0.0,0.0,0.0,0.0,0.0,0.0,0.0,0.0,0.0,0.0,0.0,0.0,0.0,0.0,0.0,0.0,0.0,0.0,0.0,0.0,0.0,0.0,0.0,0.0,0.0,0.0,0.0,0.0,0.0,0.0,0.0,0.0,2.3561,2.5334,2.4694,0.0,2.3242,0.0,0.0,0.0,0.0,0.0,0.0,0.0,0.0,0.0,0.0,0.0,0.0,0.0,0.0,0.0,0.0,0.0,0.0,0.0,0.0,0.0,0.0,0.0,0.0,0.0,0.0,0.0,0.0,0.0,0.0,0.0,0.0,0.0,0.0,0.0,0.0,0.0,0.0,0.0,0.0,0.0,0.0,0.0,0.0,0.0,0.0,0.0,0.0,0.0,0.0,0.0,0.0,0.0,0.0,0.0,0.0,0.0,0.0,0.0,0.0,0.0,0.0,0.0,0.0,0.0,0.0,0.0,0.0,0.0,0.0,0.0,0.0,0.0,0.0,0.0,0.0,0.0,0.0,0.0,0.0,0.0,0.0,0.0,0.0,0.0,0.0,0.0,0.0,0.0,0.0,0.0,0.0,0.0,0.0,0.0,0.0,0.0,0.0,0.0,0.0,0.0,0.0,0.0,0.0,0.0,0.0,0.0,0.0,0.0,0.0,2.3789,2.4993,2.4335,2.3666,0.0,0.0,0.0,0.0,0.0,0.0,0.0,0.0,0.0,0.0,0.0,0.0,0.0,0.0,0.0,0.0,0.0,0.0,0.0,0.0,0.0,0.0,0.0,0.0,0.0,0.0,0.0,0.0,0.0,0.0,0.0,0.0,0.0,0.0,0.0,0.0,0.0,0.0,0.0,0.0,0.0,0.0,0.0,0.0,0.0,0.0,0.0,0.0,0.0,0.0,0.0,0.0,0.0,0.0,0.0,0.0,0.0,0.0,0.0,0.0,0.0,0.0,0.0,0.0,0.0,0.0,0.0,0.0,0.0,0.0,0.0,0.0,0.0,0.0,0.0,0.0,0.0,0.0,0.0,0.0,0.0,0.0,0.0,0.0,0.0,0.0,0.0,0.0,0.0,0.0,0.0,0.0,0.0,0.0,0.0,0.0,0.0,0.0,0.0,0.0,0.0,0.0,0.0,0.0,0.0,0.0,0.0,0.0,0.0,0.0,2.343,2.4088,2.5064,2.4496,2.3699,2.2743,0.0,0.0,0.0,0.0,0.0,0.0,0.0,0.0,0.0,0.0,0.0,0.0,0.0,0.0,0.0,0.0,0.0,0.0,0.0,0.0,0.0,0.0,0.0,0.0,0.0,0.0,0.0,0.0,0.0,0.0,0.0,0.0,0.0,0.0,0.0,0.0,0.0,0.0,0.0,0.0,0.0,0.0,0.0,0.0,0.0,0.0,0.0,0.0,0.0,0.0,0.0,0.0,0.0,0.0,0.0,0.0,0.0,0.0,0.0,0.0,0.0,0.0,0.0,0.0,0.0,0.0,0.0,0.0,0.0,0.0,0.0,0.0,0.0,0.0,0.0,0.0,0.0,0.0,0.0,0.0,0.0,0.0,0.0,0.0,0.0,0.0,0.0,0.0,0.0,0.0,0.0,0.0,0.0,0.0,0.0,0.0,0.0,0.0,0.0,0.0,0.0,0.0,0.0,0.0,0.0,0.0,0.0,0.0,0.0,2.4507,2.4537,2.6435,2.5854,2.4627,0.0,0.0,0.0,0.0,0.0,0.0,0.0,0.0,0.0,0.0,0.0,0.0,0.0,0.0,0.0,0.0,0.0,0.0,0.0,0.0,0.0,0.0,0.0,0.0,0.0,0.0,0.0,0.0,0.0,0.0,0.0,0.0,0.0,0.0,0.0,0.0,0.0,0.0,0.0,0.0,0.0,0.0,0.0,0.0,0.0,0.0,0.0,0.0,0.0,0.0,0.0,0.0,0.0,0.0,0.0,0.0,0.0,0.0,0.0,0.0,0.0,0.0,0.0,0.0,0.0,0.0,0.0,0.0,0.0,0.0,0.0,0.0,0.0,0.0,0.0,0.0,0.0,0.0,0.0,0.0,0.0,0.0,0.0,0.0,0.0,0.0,0.0,0.0,0.0,0.0,0.0,0.0,0.0,0.0,0.0,0.0,0.0,0.0,0.0,0.0,0.0,0.0,0.0,0.0,0.0,0.0,0.0,0.0,0.0,2.2124,2.2733,2.4578,2.7619,2.5207,2.401,0.0,0.0,0.0,0.0,0.0,0.0,0.0,0.0,0.0,0.0,0.0,0.0,0.0,0.0,0.0,0.0,0.0,0.0,0.0,0.0,0.0,0.0,0.0,0.0,0.0,0.0,0.0,0.0,0.0,0.0,0.0,0.0,0.0,0.0,0.0,0.0,0.0,0.0,0.0,0.0,0.0,0.0,0.0,0.0,0.0,0.0,0.0,0.0,0.0,0.0,0.0,0.0,0.0,0.0,0.0,0.0,0.0,0.0,0.0,0.0,0.0,0.0,0.0,0.0,0.0,0.0,0.0,0.0,0.0,0.0,0.0,0.0,0.0,0.0,0.0,0.0,0.0,0.0,0.0,0.0,0.0,0.0,0.0,0.0,0.0,0.0,0.0,0.0,0.0,0.0,0.0,0.0,0.0,0.0,0.0,0.0,0.0,0.0,0.0,0.0,0.0,0.0,0.0,0.0,0.0,0.0,0.0,0.0,0.0,2.1615,0.0,2.5585,0.0,2.5046,2.365,0.0,0.0,0.0,0.0,0.0,0.0,0.0,0.0,0.0,0.0,0.0,0.0,0.0,0.0,0.0,0.0,0.0,0.0,0.0,0.0,0.0,0.0,0.0,0.0,0.0,0.0,0.0,0.0,0.0,0.0,0.0,0.0,0.0,0.0,0.0,0.0,0.0,0.0,0.0,0.0,0.0,0.0,0.0,0.0,0.0,0.0,0.0,0.0,0.0,0.0,0.0,0.0,0.0,0.0,0.0,0.0,0.0,0.0,0.0,0.0,0.0,0.0,0.0,0.0,0.0,0.0,0.0,0.0,0.0,0.0,0.0,0.0,0.0,0.0,0.0,0.0,0.0,0.0,0.0,0.0,0.0,0.0,0.0,0.0,0.0,0.0,0.0,0.0,0.0,0.0,0.0,0.0,0.0,0.0,0.0,0.0,0.0,0.0,0.0,0.0,0.0,0.0,0.0,0.0,0.0,0.0,0.0,0.0,2.1675,2.5364,2.735,2.75,2.5764,2.5543,2.3729,0.0,0.0,0.0,0.0,0.0,0.0,0.0,0.0,0.0,0.0,0.0,0.0,0.0,0.0,0.0,0.0,0.0,0.0,0.0,0.0,0.0,0.0,0.0,0.0,0.0,0.0,0.0,0.0,0.0,0.0,0.0,0.0,0.0,0.0,0.0,0.0,0.0,0.0,0.0,0.0,0.0,0.0,0.0,0.0,0.0,0.0,0.0,0.0,0.0,0.0,0.0,0.0,0.0,0.0,0.0,0.0,0.0,0.0,0.0,0.0,0.0,0.0,0.0,0.0,0.0,0.0,0.0,0.0,0.0,0.0,0.0,0.0,0.0,0.0,0.0,0.0,0.0,0.0,0.0,0.0,0.0,0.0,0.0,0.0,0.0,0.0,0.0,0.0,0.0,0.0,0.0,0.0,0.0,0.0,0.0,0.0,0.0,0.0,0.0,0.0,0.0,0.0,0.0,0.0,0.0,0.0,0.0,0.0,0.0,2.365,2.5974,2.7602,2.8231,2.5267,2.386,0.0,0.0,0.0,0.0,0.0,0.0,0.0,0.0,0.0,0.0,0.0,0.0,0.0,0.0,0.0,0.0,0.0,0.0,0.0,0.0,0.0,0.0,0.0,0.0,0.0,0.0,0.0,0.0,0.0,0.0,0.0,0.0,0.0,0.0,0.0,0.0,0.0,0.0,0.0,0.0,0.0,0.0,0.0,0.0,0.0,0.0,0.0,0.0,0.0,0.0,0.0,0.0,0.0,0.0,0.0,0.0,0.0,0.0,0.0,0.0,0.0,0.0,0.0,0.0,0.0,0.0,0.0,0.0,0.0,0.0,0.0,0.0,0.0,0.0,0.0,0.0,0.0,0.0,0.0,0.0,0.0,0.0,0.0,0.0,0.0,0.0,0.0,0.0,0.0,0.0,0.0,0.0,0.0,0.0,0.0,0.0,0.0,0.0,0.0,0.0,0.0,0.0,0.0,0.0,0.0,0.0,0.0,0.0,0.0,2.6153,2.8071,2.9309,2.9608,2.6285,2.4829,2.5387,0.0,0.0,0.0,0.0,0.0,0.0,0.0,0.0,0.0,0.0,0.0,0.0,0.0,0.0,0.0,0.0,0.0,0.0,0.0,0.0,0.0,0.0,0.0,0.0,0.0,0.0,0.0,0.0,0.0,0.0,0.0,0.0,0.0,0.0,0.0,0.0,0.0,0.0,0.0,0.0,0.0,0.0,0.0,0.0,0.0,0.0,0.0,0.0,0.0,0.0,0.0,0.0,0.0,0.0,0.0,0.0,0.0,0.0,0.0,0.0,0.0,0.0,0.0,0.0,0.0,0.0,0.0,0.0,0.0,0.0,0.0,0.0,0.0,0.0,0.0,0.0,0.0,0.0,0.0,0.0,0.0,0.0,0.0,0.0,0.0,0.0,0.0,0.0,0.0,0.0,0.0,0.0,0.0,0.0,0.0,0.0,0.0,0.0,0.0,0.0,0.0,0.0,0.0,0.0,0.0,0.0,0.0,0.0,3.1747,3.309,3.2571,3.0071,2.844,2.6459,0.0,0.0,0.0,0.0,0.0,0.0,0.0,0.0,0.0,0.0,0.0,0.0,0.0,0.0,0.0,0.0,0.0,0.0,0.0,0.0,0.0,0.0,0.0,0.0,0.0,0.0,0.0,0.0,0.0,0.0,0.0,0.0,0.0,0.0,0.0,0.0,0.0,0.0,0.0,0.0,0.0,0.0,0.0,0.0,0.0,0.0,0.0,0.0,0.0,0.0,0.0,0.0,0.0,0.0,0.0,0.0,0.0,0.0,0.0,0.0,0.0,0.0,0.0,0.0,0.0,0.0,0.0,0.0,0.0,0.0,0.0,0.0,0.0,0.0,0.0,0.0,0.0,0.0,0.0,0.0,0.0,0.0,0.0,0.0,0.0,0.0,0.0,0.0,0.0,0.0,0.0,0.0,0.0,0.0,0.0,0.0,0.0,0.0,0.0,0.0,0.0,0.0,0.0,0.0,0.0,0.0,0.0,0.0,0.0,3.3706,3.6107,3.6255,3.3964,3.0326,2.8182,0.0,0.0,0.0,0.0,0.0,0.0,0.0,0.0,0.0,0.0,0.0,0.0,0.0,0.0,0.0,0.0,0.0,0.0,0.0,0.0,0.0,0.0,0.0,0.0,0.0,0.0,0.0,0.0,0.0,0.0,0.0,0.0,0.0,0.0,0.0,0.0,0.0,0.0,0.0,0.0,0.0,0.0,0.0,0.0,0.0,0.0,0.0,0.0,0.0,0.0,0.0,0.0,0.0,0.0,0.0,0.0,0.0,0.0,0.0,0.0,0.0,0.0,0.0,0.0,0.0,0.0,0.0,0.0,0.0,0.0,0.0,0.0,0.0,0.0,0.0,0.0,0.0,0.0,0.0,0.0,0.0,0.0,0.0,0.0,0.0,0.0,0.0,0.0,0.0,0.0,0.0,0.0,0.0,0.0,0.0,0.0,0.0,0.0,0.0,0.0,0.0,0.0,0.0,0.0,0.0,0.0,0.0,0.0,3.3302,3.6713,3.8397,3.8605,3.73,3.3602,3.0943,0.0,0.0,0.0,0.0,0.0,0.0,0.0,0.0,0.0,0.0,0.0,0.0,0.0,0.0,0.0,0.0,0.0,0.0,0.0,0.0,0.0,0.0,0.0,0.0,0.0,0.0,0.0,0.0,0.0,0.0,0.0,0.0,0.0,0.0,0.0,0.0,0.0,0.0,0.0,0.0,0.0,0.0,0.0,0.0,0.0,0.0,0.0,0.0,0.0,0.0,0.0,0.0,0.0,0.0,0.0,0.0,0.0,0.0,0.0,0.0,0.0,0.0,0.0,0.0,0.0,0.0,0.0,0.0,0.0,0.0,0.0,0.0,0.0,0.0,0.0,0.0,0.0,0.0,0.0,0.0,0.0,0.0,0.0,0.0,0.0,0.0,0.0,0.0,0.0,0.0,0.0,0.0,0.0,0.0,0.0,0.0,0.0,0.0,0.0,0.0,0.0,0.0,0.0,0.0,0.0,0.0,0.0,0.0,3.5518,3.9916,4.023,4.0226,3.9889,3.7326,3.4046,0.0,0.0,0.0,0.0,0.0,0.0,0.0,0.0,0.0,0.0,0.0,0.0,0.0,0.0,0.0,0.0,0.0,0.0,0.0,0.0,0.0,0.0,0.0,0.0,0.0,0.0,0.0,0.0,0.0,0.0,0.0,0.0,0.0,0.0,0.0,0.0,0.0,0.0,0.0,0.0,0.0,0.0,0.0,0.0,0.0,0.0,0.0,0.0,0.0,0.0,0.0,0.0,0.0,0.0,0.0,0.0,0.0,0.0,0.0,0.0,0.0,0.0,0.0,0.0,0.0,0.0,0.0,0.0,0.0,0.0,0.0,0.0,0.0,0.0,0.0,0.0,0.0,0.0,0.0,0.0,0.0,0.0,0.0,0.0,0.0,0.0,0.0,0.0,0.0,0.0,0.0,0.0,0.0,0.0,0.0,0.0,0.0,0.0,0.0,0.0,0.0,0.0,0.0,0.0,0.0,0.0,0.0,0.0,3.8254,4.0701,4.196,4.2284,4.1664,3.8423,3.512,0.0,0.0,0.0,0.0,0.0,0.0,0.0,0.0,0.0,0.0,0.0,0.0,0.0,0.0,0.0,0.0,0.0,0.0,0.0,0.0,0.0,0.0,0.0,0.0,0.0,0.0,0.0,0.0,0.0,0.0,0.0,0.0,0.0,0.0,0.0,0.0,0.0,0.0,0.0,0.0,0.0,0.0,0.0,0.0,0.0,0.0,0.0,0.0,2.7181,0.0,0.0,0.0,0.0,0.0,0.0,0.0,0.0,0.0,0.0,0.0,0.0,0.0,0.0,0.0,0.0,0.0,0.0,0.0,0.0,0.0,0.0,0.0,0.0,0.0,0.0,0.0,0.0,0.0,0.0,0.0,0.0,0.0,0.0,0.0,0.0,0.0,0.0,0.0,0.0,0.0,0.0,0.0,0.0,0.0,0.0,0.0,0.0,0.0,0.0,0.0,0.0,0.0,0.0,0.0,0.0,0.0,0.0,0.0,3.9801,4.206,4.3304,4.3543,4.2678,4.0578,3.7588,0.0,0.0,0.0,0.0,0.0,0.0,0.0,0.0,0.0,0.0,0.0,0.0,0.0,0.0,0.0,0.0,0.0,0.0,0.0,0.0,0.0,0.0,0.0,0.0,0.0,0.0,0.0,0.0,0.0,0.0,0.0,0.0,0.0,0.0,0.0,0.0,0.0,0.0,0.0,0.0,0.0,0.0,0.0,0.0,0.0,0.0,0.0,0.0,0.0,0.0,0.0,0.0,0.0,0.0,0.0,0.0,0.0,0.0,0.0,0.0,0.0,0.0,0.0,0.0,0.0,0.0,0.0,0.0,0.0,0.0,0.0,0.0,0.0,0.0,0.0,0.0,0.0,0.0,0.0,0.0,0.0,0.0,0.0,0.0,0.0,0.0,0.0,0.0,0.0,0.0,0.0,0.0,0.0,0.0,0.0,0.0,0.0,0.0,0.0,0.0,0.0,0.0,0.0,0.0,0.0,0.0,0.0,3.7166,4.0642,4.3463,4.4262,4.4222,4.3499,4.2735,4.0057,3.5371,0.0,0.0,0.0,0.0,0.0,0.0,0.0,0.0,0.0,0.0,0.0,0.0,0.0,0.0,0.0,0.0,0.0,0.0,0.0,0.0,0.0,0.0,0.0,0.0,0.0,0.0,0.0,0.0,0.0,0.0,0.0,0.0,0.0,0.0,0.0,0.0,0.0,0.0,2.5633,2.8721,0.0,0.0,0.0,0.0,0.0,0.0,0.0,0.0,2.9492,0.0,0.0,0.0,0.0,0.0,0.0,0.0,0.0,0.0,0.0,0.0,0.0,0.0,0.0,0.0,0.0,0.0,0.0,0.0,0.0,0.0,0.0,0.0,0.0,0.0,0.0,0.0,0.0,0.0,0.0,0.0,0.0,0.0,0.0,0.0,0.0,0.0,0.0,0.0,0.0,0.0,0.0,0.0,0.0,0.0,0.0,0.0,0.0,0.0,0.0,0.0,0.0,0.0,0.0,0.0,0.0,3.8639,3.9074,4.0889,4.4282,4.4547,4.4511,4.4364,4.3044,4.0468,3.6612,0.0,0.0,0.0,0.0,0.0,0.0,0.0,0.0,0.0,0.0,0.0,0.0,0.0,0.0,0.0,0.0,0.0,0.0,0.0,0.0,0.0,0.0,0.0,0.0,0.0,0.0,0.0,0.0,0.0,0.0,0.0,0.0,0.0,0.0,0.0,0.0,0.0,0.0,0.0,3.3152,3.4292,0.0,0.0,0.0,0.0,0.0,0.0,0.0,0.0,3.0439,0.0,0.0,0.0,0.0,0.0,0.0,0.0,0.0,0.0,0.0,0.0,0.0,0.0,0.0,0.0,0.0,0.0,0.0,0.0,0.0,0.0,0.0,0.0,0.0,0.0,0.0,0.0,0.0,0.0,0.0,0.0,0.0,0.0,0.0,0.0,0.0,0.0,0.0,0.0,0.0,0.0,0.0,0.0,0.0,0.0,0.0,0.0,0.0,0.0,0.0,0.0,0.0,0.0,0.0,0.0,3.7727,3.983,4.2045,4.4499,4.4567,4.4398,4.3944,4.1779,3.9005,0.0,0.0,0.0,0.0,0.0,0.0,0.0,0.0,0.0,0.0,0.0,0.0,0.0,0.0,0.0,0.0,0.0,0.0,0.0,0.0,0.0,0.0,0.0,0.0,0.0,0.0,0.0,0.0,0.0,0.0,0.0,0.0,0.0,0.0,0.0,0.0,0.0,0.0,0.0,0.0,3.427,3.5187,3.5963,0.0,0.0,0.0,0.0,0.0,0.0,3.2523,3.1801,0.0,0.0,0.0,0.0,0.0,0.0,0.0,0.0,0.0,0.0,0.0,0.0,0.0,0.0,0.0,0.0,0.0,0.0,0.0,0.0,0.0,0.0,0.0,0.0,0.0,0.0,0.0,0.0,0.0,0.0,0.0,0.0,0.0,0.0,0.0,0.0,0.0,0.0,0.0,0.0,0.0,0.0,0.0,0.0,0.0,0.0,0.0,0.0,0.0,0.0,0.0,0.0,0.0,0.0,0.0,3.6307,3.9874,4.2632,4.4465,4.4567,4.4228,4.3389,4.0967,3.8036,0.0,0.0,0.0,0.0,0.0,0.0,0.0,0.0,0.0,0.0,0.0,0.0,0.0,0.0,0.0,0.0,0.0,0.0,0.0,0.0,0.0,0.0,0.0,0.0,0.0,0.0,0.0,0.0,0.0,0.0,0.0,0.0,0.0,0.0,0.0,0.0,0.0,0.0,0.0,0.0,0.0,3.6038,3.7839,3.6184,0.0,0.0,0.0,0.0,3.4746,3.4723,0.0,0.0,0.0,0.0,0.0,0.0,0.0,0.0,0.0,0.0,0.0,0.0,0.0,0.0,0.0,0.0,0.0,0.0,0.0,0.0,0.0,0.0,0.0,0.0,0.0,0.0,0.0,0.0,0.0,0.0,0.0,0.0,0.0,0.0,0.0,0.0,0.0,0.0,0.0,0.0,0.0,0.0,0.0,0.0,0.0,0.0,0.0,0.0,0.0,0.0,0.0,0.0,0.0,0.0,0.0,0.0,3.7465,3.8897,4.1191,4.437,4.4567,4.4228,4.3409,4.2422,3.958,0.0,0.0,0.0,0.0,0.0,0.0,0.0,0.0,0.0,0.0,0.0,0.0,0.0,0.0,0.0,0.0,0.0,0.0,0.0,0.0,0.0,0.0,0.0,0.0,0.0,0.0,0.0,0.0,0.0,0.0,0.0,0.0,0.0,0.0,0.0,0.0,0.0,0.0,0.0,0.0,0.0,3.8571,3.6969,3.6451,3.6382,0.0,0.0,3.7477,3.931,3.9644,0.0,0.0,0.0,0.0,0.0,0.0,0.0,0.0,0.0,0.0,0.0,0.0,0.0,0.0,0.0,0.0,0.0,0.0,0.0,0.0,0.0,0.0,0.0,0.0,0.0,0.0,0.0,0.0,0.0,0.0,0.0,0.0,0.0,0.0,0.0,0.0,0.0,0.0,0.0,0.0,0.0,0.0,0.0,0.0,0.0,0.0,0.0,0.0,0.0,0.0,0.0,0.0,0.0,0.0,0.0,3.2931,3.7797,4.0329,4.2563,4.4499,4.4567,4.4025,4.278,4.1238,3.8171,0.0,0.0,0.0,0.0,0.0,0.0,0.0,0.0,0.0,0.0,0.0,0.0,0.0,0.0,0.0,0.0,0.0,0.0,0.0,0.0,0.0,0.0,0.0,0.0,0.0,0.0,0.0,0.0,0.0,0.0,0.0,0.0,0.0,0.0,0.0,0.0,0.0,0.0,0.0,0.0,0.0,0.0,3.9917,3.9428,0.0,0.0,0.0,4.0265,4.1176,0.0,0.0,0.0,0.0,0.0,0.0,0.0,0.0,0.0,0.0,0.0,0.0,0.0,0.0,0.0,0.0,0.0,0.0,0.0,0.0,0.0,0.0,0.0,0.0,0.0,0.0,0.0,0.0,0.0,0.0,0.0,0.0,0.0,0.0,0.0,0.0,0.0,0.0,0.0,0.0,0.0,0.0,0.0,0.0,0.0,0.0,0.0,0.0,0.0,0.0,0.0,0.0,0.0,0.0,0.0,0.0,0.0,3.7889,4.1529,4.3809,4.4581,4.4567,4.3856,4.2333,4.0696,0.0,0.0,0.0,0.0,0.0,0.0,0.0,0.0,0.0,0.0,0.0,0.0,0.0,0.0,0.0,0.0,0.0,0.0,0.0,0.0,0.0,0.0,0.0,0.0,0.0,0.0,0.0,2.1752,0.0,0.0,0.0,0.0,0.0,0.0,0.0,0.0,0.0,0.0,0.0,0.0,0.0,0.0,4.0311,4.272,4.2406,4.2438,0.0,0.0,4.2915,4.3217,4.3782,4.2638,0.0,0.0,0.0,0.0,0.0,0.0,0.0,0.0,0.0,0.0,0.0,0.0,0.0,0.0,0.0,0.0,0.0,0.0,0.0,0.0,0.0,0.0,0.0,0.0,0.0,0.0,0.0,0.0,0.0,0.0,0.0,0.0,0.0,0.0,0.0,0.0,0.0,0.0,0.0,0.0,0.0,0.0,0.0,0.0,0.0,0.0,0.0,0.0,0.0,0.0,0.0,0.0,0.0,0.0,0.0,3.7889,4.1529,4.3795,4.4567,4.4567,4.3856,4.2367,4.2151,3.8983,0.0,0.0,0.0,0.0,0.0,0.0,0.0,0.0,0.0,0.0,0.0,0.0,0.0,0.0,0.0,0.0,0.0,0.0,0.0,0.0,0.0,0.0,0.0,0.0,0.0,0.0,0.0,0.0,0.0,0.0,0.0,0.0,0.0,0.0,0.0,0.0,0.0,0.0,0.0,0.0,0.0,4.2313,4.3775,4.4529,4.5626,0.0,0.0,4.5388,4.6568,4.7386,4.5699,3.9131,0.0,0.0,0.0,0.0,0.0,0.0,0.0,0.0,0.0,0.0,0.0,0.0,0.0,0.0,0.0,0.0,0.0,0.0,0.0,0.0,0.0,0.0,0.0,0.0,0.0,0.0,0.0,0.0,0.0,0.0,0.0,0.0,0.0,0.0,0.0,0.0,0.0,0.0,0.0,0.0,0.0,0.0,0.0,0.0,0.0,0.0,0.0,0.0,0.0,0.0,0.0,0.0,0.0,3.4833,3.8565,4.2252,4.4485,4.5229,4.4838,4.4093,4.3017,4.2523,3.9592,0.0,0.0,0.0,0.0,0.0,0.0,0.0,0.0,0.0,0.0,0.0,0.0,0.0,0.0,0.0,0.0,0.0,0.0,0.0,0.0,0.0,0.0,0.0,0.0,0.0,0.0,0.0,0.0,2.626,2.7097,2.6636,0.0,0.0,0.0,0.0,0.0,0.0,0.0,0.0,0.0,0.0,4.4015,4.591,4.6861,0.0,0.0,4.7739,4.7487,4.7789,4.7269,4.5398,4.1348,4.0268,0.0,0.0,0.0,0.0,0.0,0.0,0.0,0.0,0.0,0.0,0.0,0.0,0.0,0.0,0.0,0.0,0.0,0.0,0.0,0.0,0.0,0.0,0.0,0.0,0.0,0.0,0.0,0.0,0.0,0.0,0.0,0.0,0.0,0.0,0.0,0.0,0.0,0.0,0.0,0.0,0.0,0.0,0.0,0.0,0.0,0.0,0.0,0.0,0.0,0.0,0.0,0.0,3.5554,3.9322,4.301,4.5162,4.5689,4.5196,4.4418,4.3409,4.2692,4.0066,0.0,0.0,0.0,0.0,0.0,0.0,0.0,0.0,0.0,0.0,0.0,0.0,0.0,0.0,0.0,0.0,0.0,0.0,0.0,0.0,0.0,0.0,0.0,0.0,0.0,0.0,0.0,0.0,2.763,2.8242,2.7191,0.0,0.0,0.0,0.0,0.0,0.0,0.0,0.0,0.0,0.0,4.6239,4.8208,4.8982,4.9352,4.9395,4.8715,4.8322,4.8625,4.7535,4.57,4.3102,0.0,0.0,0.0,0.0,0.0,0.0,0.0,0.0,0.0,0.0,0.0,0.0,0.0,0.0,0.0,0.0,0.0,0.0,0.0,0.0,0.0,0.0,0.0,0.0,0.0,0.0,0.0,0.0,0.0,0.0,2.0966,0.0,0.0,0.0,0.0,0.0,0.0,0.0,0.0,0.0,0.0,0.0,0.0,0.0,0.0,0.0,0.0,0.0,0.0,0.0,0.0,0.0,0.0,3.631,4.0079,4.3775,4.5703,4.5703,4.5703,4.4911,4.349,4.2692,4.0553,3.6829,0.0,0.0,0.0,0.0,0.0,0.0,0.0,0.0,0.0,0.0,0.0,0.0,0.0,0.0,0.0,0.0,0.0,0.0,0.0,0.0,0.0,0.0,0.0,0.0,0.0,0.0,2.7199,2.7592,2.7606,0.0,0.0,0.0,0.0,0.0,0.0,0.0,0.0,0.0,0.0,4.6245,4.921,5.0501,5.0745,5.1028,5.173,4.9241,4.7773,4.9344,4.8783,4.7168,0.0,0.0,0.0,0.0,0.0,0.0,0.0,0.0,0.0,0.0,0.0,0.0,0.0,0.0,0.0,0.0,0.0,0.0,0.0,0.0,0.0,0.0,0.0,0.0,0.0,0.0,0.0,2.6429,2.6192,0.0,0.0,0.0,0.0,0.0,0.0,0.0,0.0,0.0,0.0,0.0,3.5486,3.7427,0.0,0.0,0.0,0.0,0.0,0.0,0.0,0.0,0.0,0.0,0.0,0.0,3.6818,4.1454,4.4282,4.594,4.6394,4.5974,4.5229,4.4215,4.3436,4.1068,3.6931,0.0,0.0,0.0,0.0,0.0,0.0,0.0,0.0,0.0,0.0,0.0,0.0,0.0,0.0,0.0,0.0,0.0,0.0,0.0,0.0,0.0,0.0,0.0,0.0,0.0,2.7647,0.0,0.0,0.0,0.0,0.0,0.0,0.0,0.0,0.0,0.0,0.0,4.1973,4.5546,4.8378,5.0492,5.1489,5.2491,5.2931,0.0,0.0,0.0,0.0,0.0,0.0,0.0,0.0,0.0,0.0,0.0,0.0,0.0,0.0,4.871,4.2278,4.0451,4.0394,4.2025,0.0,0.0,0.0,0.0,0.0,0.0,0.0,0.0,0.0,0.0,0.0,0.0,0.0,0.0,0.0,0.0,2.9627,0.0,0.0,0.0,0.0,0.0,0.0,0.0,0.0,3.8531,4.0493,4.029,4.2198,4.2097,0.0,3.9466,3.6817,0.0,0.0,0.0,0.0,0.0,0.0,0.0,0.0,3.8261,4.2591,4.5181,4.6718,4.7124,4.6481,4.5737,4.5007,4.4157,4.2031,3.839,3.6658,3.4676,0.0,0.0,0.0,0.0,0.0,0.0,0.0,0.0,0.0,0.0,0.0,0.0,0.0,0.0,0.0,0.0,0.0,0.0,0.0,0.0,0.0,0.0,0.0,2.9348,0.0,0.0,0.0,0.0,0.0,0.0,0.0,0.0,0.0,4.0668,4.286,4.5712,4.9086,5.0775,5.194,5.2711,0.0,0.0,0.0,0.0,0.0,0.0,0.0,4.8893,5.0225,4.9821,4.9743,5.1181,5.3481,5.502,5.461,0.0,0.0,4.767,4.5676,4.5704,4.7492,4.8557,4.9421,5.0297,5.1669,5.2635,0.0,0.0,0.0,0.0,0.0,0.0,0.0,0.0,3.4583,3.4837,0.0,3.4434,0.0,0.0,0.0,0.0,0.0,3.6671,0.0,0.0,4.3707,4.5432,4.4784,4.4838,4.4804,4.4804,4.5441,4.4202,4.112,3.4931,0.0,0.0,0.0,0.0,0.0,0.0,4.0565,4.3545,4.6423,4.7947,4.7958,4.7295,4.6549,4.5784,4.4883,4.3374,4.1279,4.093,3.9478,3.6533,3.3715,0.0,0.0,0.0,0.0,0.0,0.0,0.0,0.0,0.0,0.0,0.0,0.0,0.0,0.0,0.0,0.0,0.0,0.0,0.0,0.0,3.1361,0.0,0.0,0.0,0.0,0.0,0.0,0.0,0.0,0.0,0.0,4.4186,4.7241,5.0555,5.2884,0.0,0.0,0.0,0.0,5.3618,5.4326,5.3151,5.2454,5.3141,5.3198,5.2926,5.2322,0.0,0.0,5.5361,5.7293,5.8493,5.7456,5.8493,5.8931,5.6725,5.426,5.3222,5.4418,5.4431,5.4798,5.632,5.744,5.8477,4.1994,0.0,0.0,0.0,0.0,3.9163,4.0871,4.3814,4.2855,4.2209,4.1742,4.0415,0.0,0.0,0.0,0.0,0.0,0.0,4.2219,4.391,4.6737,4.8206,4.856,4.9052,4.9018,4.8541,4.8728,4.81,4.6685,4.4258,3.9711,3.3397,0.0,0.0,0.0,0.0,4.3006,4.6404,4.7926,4.8882,4.9366,4.9183,4.8461,4.7165,4.5761,4.4718,4.4071,4.3389,4.1952,3.9595,3.7551,0.0,0.0,0.0,0.0,0.0,0.0,0.0,0.0,0.0,0.0,0.0,0.0,0.0,0.0,0.0,0.0,0.0,0.0,0.0,3.084,3.2397,3.3392,0.0,0.0,0.0,0.0,0.0,0.0,0.0,0.0,0.0,5.1096,5.1756,5.2637,0.0,0.0,5.4766,5.4436,5.5159,5.5636,5.528,5.5354,0.0,0.0,5.424,5.4211,5.5676,5.776,5.9384,5.987,6.0528,6.0912,6.0554,6.0902,6.1088,6.0782,5.9047,5.8094,5.9133,5.9355,5.9737,6.1013,6.1656,6.1929,4.941,4.6844,4.3483,4.2887,4.4149,4.4049,4.5658,4.8238,4.7434,4.6962,4.6699,4.5514,4.3416,4.0743,4.0146,0.0,0.0,0.0,4.6025,4.7977,4.9618,5.0742,5.1454,5.1903,5.1869,5.1465,5.1457,5.1206,5.0792,5.0021,4.6623,4.0874,0.0,0.0,4.0943,4.3266,4.5649,4.8168,4.9248,4.9973,5.0403,5.0133,4.9414,4.8185,4.7463,4.6947,4.6614,4.6003,4.4907,4.3359,4.0899,3.7923,0.0,0.0,0.0,0.0,0.0,0.0,0.0,0.0,0.0,0.0,0.0,2.8105,2.5547,0.0,0.0,0.0,2.9915,3.2285,3.4534,3.6494,0.0,0.0,0.0,0.0,0.0,0.0,0.0,5.0151,5.2087,5.3592,5.473,5.5023,5.528,5.5757,5.5695,5.5658,5.5831,0.0,5.6748,5.6576,5.6969,5.7279,5.7322,5.6766,5.6976,5.8924,6.0547,6.1844,6.2555,6.2952,6.3238,6.3432,6.348,6.3558,6.3858,6.2862,6.1987,6.215,6.2435,6.2962,6.3668,6.3814,6.3814,5.5699,5.5121,4.8279,4.6209,4.747,4.8066,4.8738,4.9442,4.939,4.9695,5.0202,4.956,4.8477,4.7071,4.5751,0.0,4.7412,4.8753,5.0176,5.1697,5.2343,5.3048,5.3632,5.3681,5.3695,5.3681,5.3748,5.3775,5.374,5.3086,5.2047,5.0684,4.7747,4.6179,4.5981,4.7453,4.8602,4.9372,5.0647,5.1286,5.1266,5.0545,4.9811,4.9102,4.9536,4.9361,4.8602,4.8407,4.7929,4.703,4.3798,4.0862,3.8489,0.0,0.0,0.0,0.0,0.0,0.0,0.0,0.0,0.0,0.0,0.0,0.0,0.0,0.0,0.0,3.598,0.0,4.0055,4.2294,0.0,0.0,0.0,4.5516,4.6544,4.9297,5.1426,5.2281,0.0,0.0,5.5879,5.709,5.802,5.8065,5.6757,5.6319,5.7813,5.7392,5.7209,5.789,5.8133,5.8663,5.9621,5.9893,6.0473,6.1777,6.2749,6.3356,6.3955,6.4596,6.5312,6.5653,6.5859,6.5808,6.5859,6.5635,6.5436,6.3878,6.4186,6.4699,6.4705,6.4705,6.4705,5.5699,5.5546,5.3765,5.3226,5.3499,5.3145,5.3079,5.3213,5.2672,5.2182,5.1758,5.1589,5.0998,5.0119,4.9781,5.046,5.1942,5.2272,5.3227,5.4641,5.4832,5.5002,5.5171,5.5171,5.5171,5.5213,5.5781,5.6116,5.607,5.5874,5.559,5.5176,5.386,5.1828,4.9244,5.1012,5.2426,5.3217,5.2929,5.275,5.268,5.1912,5.1147,5.0367,4.9908,4.9228,4.8414,4.8348,4.7929,4.7113,4.5682,4.3522,4.0528,3.644,0.0,0.0,0.0,0.0,0.0,0.0,0.0,0.0,0.0,3.4583,2.9296,0.0,3.631,0.0,3.9284,4.156,4.256,4.4277,0.0,0.0,4.8573,4.9711,5.2941,5.3445,5.4106,5.55,5.6895,5.7629,5.7446,5.7751,5.8142,5.8445,5.7932,5.7593,5.7971,5.8189,5.8295,5.8597,5.9395,6.0173,6.0537,6.1384,6.2443,6.3754,6.4148,6.4534,6.5306,6.555,6.5768,6.5891,6.5904,6.5904,6.5904,6.5904,6.6051,6.609,6.5897,6.5596,6.559,6.559,6.559,5.6664,5.6697,5.6697,5.6697,5.6596,5.5547,5.5108,5.504,5.4296,5.3754,5.3281,5.296,5.2784,5.2696,5.2711,5.3353,5.4439,5.4454,5.5121,5.6196,5.6245,5.6421,5.6724,5.6724,5.6724,5.6737,5.7179,5.7388,5.7376,5.7358,5.7336,5.7324,5.6895,5.567,5.3773,5.4131,5.455,5.5023,5.4211,5.3776,5.3717,5.2968,5.1977,5.0839,5.0372,4.937,4.7856,4.7736,4.7406,4.6608,4.5801,4.4378,4.2241,3.9011,3.645,0.0,0.0,0.0,0.0,0.0,0.0,0.0,0.0,0.0,0.0,0.0,3.9945,4.0642,4.3314,4.559,4.7141,4.9214,5.1277,5.308,5.4017,5.5286,5.7156,5.7566,5.8087,5.896,5.9444,5.9742,5.9742,5.9742,5.9855,6.0105,5.9898,5.9593,5.9268,5.9445,5.9731,6.0078,6.0763,6.1484,6.2003,6.323,6.4297,6.5007,6.5166,6.5359,6.5788,6.5904,6.5904,6.5904,6.5904,6.6019,6.6365,6.6404,6.6673,6.7359,6.7321,6.6898,6.6513,6.6442,6.6359,5.8069,5.8035,5.7967,5.79,5.7814,5.6511,5.5936,5.58,5.504,5.4736,5.4703,5.4059,5.4145,5.4726,5.4741,5.5129,5.5836,5.5851,5.6286,5.7015,5.7027,5.7388,5.7997,5.7997,5.7997,5.7997,5.7997,5.7997,5.7997,5.7997,5.7997,5.7997,5.7997,5.7997,5.7923,5.6613,5.5842,5.5768,5.506,5.462,5.4399,5.3691,5.2517,5.0902,5.0692,4.9544,4.7223,4.7113,4.6782,4.6067,4.536,4.4626,4.3836,4.1523,3.9798,0.0,3.7514,0.0,0.0,0.0,0.0,0.0,0.0,0.0,0.0,4.2868,4.4308,4.5477,4.7905,5.0302,5.2431,5.5096,5.6771,5.6939,5.926,6.0565,5.9932,6.1065,6.1887,6.1887,6.1887,6.1887,6.1813,6.1887,6.1887,6.1882,6.1835,6.1664,6.1325,6.1064,6.1181,6.19,6.215,6.2781,6.3871,6.5092,6.5769,6.5859,6.582,6.5904,6.5865,6.5904,6.5904,6.5904,6.5904,6.6096,6.6827,6.6981,6.7366,6.816,6.8391,6.8244,6.7513,6.7289,6.7019,5.8795,5.8709,5.8152,5.79,5.7866,5.7611,5.7137,5.6562,5.5818,5.5502,5.5497,5.534,5.5363,5.548,5.5495,5.5942,5.6668,5.6668,5.7078,5.7785,5.7785,5.7844,5.7997,5.7997,5.7997,5.7997,5.7997,5.7997,5.7997,5.7997,5.7997,5.7997,5.7997,5.7997,5.796,0.0,0.0,0.0,5.6418,5.5721,5.4473,5.4252,5.3115,5.0875,5.0105,0.0,4.7223,4.7113,4.7039,4.6902,4.6746,0.0,0.0,0.0,0.0,0.0,0.0,0.0,0.0,0.0,0.0,0.0,4.6688,4.5626,4.3456,4.8342,5.1275,5.0408,5.3331,5.5517,5.6035,5.776,5.9168,5.9838,6.0974,6.1585,6.1471,6.1745,6.1887,6.1887,6.1896,6.1933,6.2007,6.1887,6.2083,6.2511,6.249,6.2856,6.3733,6.2901,6.2345,6.2505,6.3372,6.4363,6.5378,6.5705,6.5904,6.5904,6.5904,6.5904,6.5904,6.5904,6.5904,6.5904,6.5904,6.5942,6.6173,6.6635,6.7443,6.8237,6.8975,6.9206,6.8353,6.8167,6.809,5.9539,0.0,5.9133,5.9003,0.0,5.9076,5.8892,5.8455,5.6916,5.6252,5.6336,5.6726,5.6938,5.6899,5.6885,5.7094,5.7474,5.7838,5.8227,5.8609,5.8572,5.8584,5.8584,5.818,5.7997,5.7997,5.7997,5.7997,5.7997,5.7997,5.7997,5.7997,5.7997,5.7997,5.7997,5.7997,5.7776,5.7409,5.7005,5.6407,5.5611,5.4803,5.3445,5.1463,0.0,0.0,0.0,0.0,0.0,0.0,0.0,0.0,0.0,0.0,0.0,4.5305,4.5872,4.6219,4.6301,4.793,4.9586,5.1055,5.2258,5.1815,4.9168,5.259,5.483,5.4868,5.653,5.793,5.877,5.9831,6.0749,6.1584,6.2596,6.3246,6.3291,6.3635,6.3871,6.3871,6.3864,6.3871,6.3871,6.3864,6.3977,6.419,6.4225,6.444,6.5,6.4301,6.3726,6.4148,6.4737,6.5352,6.5788,6.5904,6.5904,6.5904,6.5904,6.5904,6.5904,6.5904,6.5904,6.5904,6.5904,6.6096,6.7013,6.7475,6.8129,6.9321,6.9975,7.0167,6.9699,6.9314,6.8891,6.0625,6.0758,6.0621,6.0647,6.0752,6.0734,6.0698,6.0481,0.0,0.0,0.0,5.8258,5.8556,5.8515,5.8492,5.8493,5.8462,5.9086,5.9404,5.9416,5.9416,5.9416,5.938,5.8584,5.8217,5.8217,5.807,5.7997,5.7997,5.7997,5.7997,5.7997,5.7997,5.7997,5.7997,5.7997,5.7997,5.796,5.7373,5.6921,5.6774,5.55,5.4069,5.2464,5.0996,4.9444,4.7819,4.7344,4.7031,4.6892,4.724,4.7663,4.8208,4.8984,4.9944,5.1173,5.2511,5.3236,5.3282,5.4492,5.5071,5.4602,5.6497,5.6981,5.535,5.6032,5.7116,5.8446,5.8738,5.9476,6.0803,6.1599,6.2249,6.2899,6.4083,6.4814,6.4852,6.5436,6.5756,6.5904,6.5756,6.5859,6.5756,6.5756,6.5904,6.5859,6.5718,6.5904,6.5827,6.5231,6.4981,6.5564,6.5737,6.5865,6.5904,6.5904,6.5904,6.5904,6.5904,6.5904,6.5904,6.5904,6.5904,6.5904,6.5904,6.6513,6.7782,6.8199,6.893,7.0398,7.0821,7.0898,7.086,7.036,6.9744,6.2666,6.3326,6.269,6.2435,6.2441,6.2441,6.2064,6.1368,6.0325,5.9901,5.9915,6.0026,6.0076,6.0066,6.0066,6.0066,6.0089,6.0187,6.0224,0.0,6.0224,6.0224,6.0187,5.9416,5.9013,5.8976,5.8327,5.7997,5.7997,5.7997,5.7997,5.7997,5.7997,5.7997,5.7997,5.7997,5.7997,5.7997,5.7886,5.7483,5.6822,5.6554,5.5721,5.4142,5.3141,5.194,5.0362,5.1213,5.144,5.0778,5.2402,5.3109,5.2604,5.3198,5.3515,5.3154,5.4506,5.5352,5.539,5.6811,5.8116,5.9077,5.9842,5.9539,5.7929,5.882,5.958,5.9892,6.0804,6.162,6.2004,6.3214,6.4078,6.4315,6.5135,6.5705,6.5667,6.5788,6.5904,6.5904,6.5904,6.5904,6.5904,6.5904,6.5904,6.5904,6.5981,6.5942,6.5936,6.5788,6.575,6.5859,6.5904,6.5904,6.5904,6.5904,6.5904,6.5904,6.5904,6.5904,6.5904,6.5904,6.5904,6.5942,6.5981,6.6404,6.7289,6.7936,6.8814,6.986,7.0514,7.086,7.0898,7.0758,7.0649,6.4155,6.4433,6.4127,6.4009,6.4066,6.4123,6.3934,6.3536,6.2763,6.1862,6.1126,6.1491,6.1478,6.1068,6.1043,6.0823,6.0407,6.086,6.1043,6.1043,6.1043,6.1043,6.097,6.0224,5.96,5.9184,5.8829,5.8437,5.8033,5.7997,5.7997,5.7997,5.7997,5.7997,5.7997,5.7997,5.7997,5.7997,5.7997,5.7813,5.7446,5.7031,5.6444,5.5721,5.4499,5.3676,5.3148,5.3284,5.3293,5.319,5.4069,5.4632,5.4715,5.5448,5.5923,5.6045,5.7339,5.8129,5.8129,5.9037,5.9856,6.0431,6.0697,6.0481,5.9668,6.0128,6.068,6.114,6.1785,6.248,6.3364,6.4166,6.4782,6.5243,6.5667,6.5904,6.5904,6.5904,6.5904,6.5904,6.5904,6.5904,6.5904,6.5904,6.5904,6.5942,6.6205,6.6519,6.6513,6.6519,6.6365,6.5974,6.5904,6.5904,6.5904,6.5904,6.5904,6.5904,6.5904,6.5904,6.5904,6.5904,6.609,6.6481,6.6519,6.709,6.8167,6.8821,6.9436,7.0129,7.0591,7.086,7.0905,7.0998,7.1029,6.5458,6.5617,6.5617,6.5633,6.5699,6.5796,6.5729,6.5521,6.4884,6.3732,6.2349,6.2651,6.2462,6.1924,6.1851,6.152,6.1068,6.1594,6.1887,6.1887,6.1851,6.1887,6.1777,6.1043,6.0346,5.9747,5.9563,5.9123,5.8584,5.8547,5.8437,5.829,5.8107,5.7997,5.7997,5.7997,5.8065,5.8153,5.8164,5.8164,5.8127,5.7538,5.7261,5.7291,5.6203,5.5602,5.5772,5.5467,5.5371,5.5564,5.5836,5.6291,5.6884,5.7522,5.8144,5.8797,5.9693,6.0238,6.029,6.0603,6.0781,6.0781,6.0781,6.0781,6.0819,6.0979,6.1364,6.1985,6.2243,6.3018,6.4243,6.4782,6.5166,6.582,6.5904,6.5904,6.5904,6.5904,6.5904,6.5904,6.5904,6.5904,6.5904,6.5904,6.5981,6.625,6.6596,6.6865,6.7019,6.6981,6.6558,6.6128,6.5904,6.5904,6.5904,6.5904,6.5904,6.5904,6.5904,6.5904,6.5904,6.5904,6.6211,6.6827,6.7058,6.7744,6.9206,6.9667,7.0015,7.0664,7.0979,7.0991,7.1068,7.1174,7.1213,6.6714,6.7383,6.7369,6.7451,6.7396,6.7403,6.7026,6.6402,6.6292,6.5398,6.3877,6.3134,6.2756,6.2683,6.2683,6.2572,6.2499,6.2646,6.2683,6.2646,6.2683,6.2683,6.2572,6.1851,6.1459,6.1227,6.0639,6.0199,6.0052,6.0089,5.9783,5.9086,5.8364,5.8008,5.802,5.802,5.8194,5.8632,5.8642,5.8642,5.8642,5.8568,5.8723,5.9144,5.8993,5.8615,5.793,5.8979,5.9199,5.8668,5.9511,6.0204,6.0269,6.0352,6.0467,6.0531,6.0677,6.074,6.074,6.0808,6.0858,6.0781,6.0858,6.0896,6.0896,6.1556,6.1985,6.2287,6.2781,6.3628,6.4512,6.5282,6.5743,6.5859,6.5904,6.5904,6.5904,6.5904,6.5904,6.5904,6.5904,6.5904,6.5904,6.5936,6.6211,6.6673,6.6596,6.659,6.6942,6.6635,6.625,6.6013,6.5904,6.5904,6.5904,6.5904,6.5904,6.5904,6.5904,6.5904,6.5904,6.5936,6.6167,6.7128,6.725,6.7917,6.9168,6.9758,7.0092,7.0894,7.1195,7.1208,7.1365,7.1438,7.1435,6.7378,6.77,6.77,6.77,6.77,6.77,6.7517,6.7187,6.6696,6.6109,6.5411,6.4163,6.3282,6.2829,6.2793,6.2793,6.2793,6.2793,6.2793,6.2793,6.2793,6.2793,6.2756,6.2511,6.2071,6.1594,6.1263,6.086,6.0456,6.0407,5.9967,5.9269,5.8866,5.8609,5.8412,5.8418,5.8652,5.9112,5.9102,5.923,5.945,5.9248,5.9194,5.9363,5.9389,5.9421,5.9398,5.9839,6.0064,6.0041,6.0529,6.0781,6.0781,6.0781,6.0781,6.0819,6.1287,6.1325,6.0858,6.1704,6.2089,6.1595,6.2012,6.2281,6.2275,6.2627,6.3012,6.3512,6.3858,6.4429,6.5243,6.5711,6.5904,6.5904,6.5904,6.5904,6.5904,6.5904,6.5904,6.5904,6.5904,6.5904,6.5981,6.6327,6.6481,6.6635,6.6782,6.7244,6.7135,6.6789,6.6667,6.6551,6.6244,6.5897,6.5904,6.5904,6.5904,6.5904,6.5904,6.5904,6.5916,6.5904,6.6282,6.7603,6.7853,6.8607,7.0324,7.0664,7.095,7.1356,7.1369,7.1424,7.1594,7.1621,7.1644,6.8017,6.7981,6.7811,6.77,6.77,6.77,6.77,6.7627,6.7076,6.6696,6.6366,6.5228,6.4163,6.3209,6.2939,6.2793,6.2793,6.2793,6.2793,6.2793,6.2793,6.2793,6.2793,6.2793,6.2499,6.2034,6.1924,6.163,6.108,6.0823,6.0503,6.0091,5.9868,5.9577,5.9303,5.925,5.9337,5.958,5.9584,5.9823,6.0168,5.9954,5.9792,5.9792,5.9792,5.9939,6.0245,6.0297,6.0456,6.0769,6.0781,6.0781,6.0781,6.1018,6.1248,6.1512,6.205,6.2172,6.155,6.2621,6.3045,6.2557,6.3012,6.3314,6.3352,6.3506,6.3929,6.4436,6.482,6.5243,6.5743,6.5904,6.5904,6.5904,6.5904,6.5904,6.5904,6.5904,6.5904,6.5904,6.5904,6.5904,6.6019,6.6519,6.6865,6.6551,6.7051,6.7705,6.7167,6.6904,6.6712,6.675,6.6244,6.5942,6.5904,6.5904,6.5904,6.5904,6.5904,6.5897,6.5958,6.5961,6.656,6.7908,6.8437,6.9341,7.0665,7.1319,7.1518,7.1549,7.158,7.1668,7.1789,7.1797,7.1836,6.8848,6.8715,6.8017,6.77,6.77,6.77,6.77,6.77,6.7627,6.721,6.6623,6.6366,6.5485,6.4053,6.3306,6.2829,6.2793,6.2793,6.2793,6.2793,6.2793,6.2793,6.2793,6.2793,6.2756,6.2646,6.2646,6.2634,6.2536,6.1949,6.1781,6.2135,6.1459,6.0953,6.0647,6.0559,6.0404,6.0197,6.0127,6.0252,6.0703,6.0728,6.0659,6.0647,6.0728,6.0671,6.0746,6.0757,6.0769,6.0781,6.0781,6.0819,6.0902,6.1595,6.2364,6.3006,6.3198,6.3237,6.3121,6.3314,6.3352,6.3275,6.3429,6.3391,6.3583,6.416,6.4583,6.4628,6.532,6.582,6.5859,6.5904,6.5904,6.5904,6.5942,6.5942,6.5942,6.6134,6.5904,6.5936,6.6019,6.6096,6.6019,6.6596,6.7058,6.6865,6.6519,6.632,6.6795,6.6442,6.6134,6.6063,6.5992,6.5923,6.5916,6.5901,6.5921,6.5913,6.5951,6.5978,6.6018,6.6312,6.7278,6.8148,6.8638,6.9522,7.0887,7.1521,7.1599,7.17,7.1806,7.1908,7.1914,7.1953,7.1992,6.9376,6.8811,6.8031,6.77,6.77,6.77,6.77,6.77,6.77,6.7554,6.721,6.6733,6.6182,6.5595,6.4774,6.382,6.2866,6.2793,6.2793,6.2793,6.2793,6.2793,6.2793,6.2793,6.2793,6.2793,6.2805,6.2978,6.3328,6.3312,6.3195,6.283,6.2578,6.2266,6.1888,6.1399,6.1209,6.1307,6.0879,6.0634,6.0808,6.0781,6.0781,6.0781,6.0781,6.0781,6.0781,6.0781,6.0781,6.0781,6.0781,6.1056,6.1633,6.2397,6.2974,6.3314,6.3814,6.3891,6.3545,6.4352,6.4705,6.4237,6.4666,6.4897,6.5013,6.5243,6.5436,6.5474,6.5667,6.5904,6.5904,6.5904,6.5904,6.5942,6.6365,6.6596,6.6789,6.7128,6.7321,6.6827,6.6673,6.6859,6.7346,6.775,6.7705,6.7212,6.6827,6.6577,6.6332,6.6144,6.6046,6.6039,6.6148,6.6209,6.6213,6.6099,6.6018,6.6069,6.6129,6.6243,6.6357,6.6485,6.7291,6.8598,6.9086,6.98,7.1168,7.172,7.1797,7.1836,7.1992,7.1992,7.1992,7.1992,7.1992,6.9633,6.8825,6.8017,6.77,6.77,6.77,6.77,6.77,6.77,6.77,6.759,6.7113,6.6851,6.6676,6.6185,6.5336,6.4148,6.3812,6.3453,6.3233,6.349,6.3453,6.3271,6.3383,6.3443,6.3454,6.3336,6.3505,6.385,6.4207,6.4161,6.3783,6.3754,6.3566,6.3181,6.2717,6.2502,6.2373,6.1627,6.1248,6.1172,6.0941,6.0781,6.0781,6.0781,6.0781,6.0781,6.0781,6.0781,6.0819,6.1056,6.1749,6.2826,6.3435,6.3858,6.4166,6.4705,6.4782,6.4352,6.5243,6.5628,6.5128,6.5513,6.5904,6.5904,6.5904,6.5904,6.5904,6.5904,6.5884,6.5955,6.5984,6.5937,6.5973,6.6404,6.6827,6.7096,6.759,6.7744,6.7648,6.787,6.8176,6.8426,6.8513,6.8144,6.7404,6.7095,6.6625,6.6232,6.6148,6.6187,6.62,6.629,6.6344,6.6523,6.6577,6.6392,6.6377,6.7134,6.7087,6.6891,6.7011,6.7618,6.8906,6.9844,7.0508,7.1133,7.1758,7.1992,7.1992,7.1992,7.1992,7.1992,7.1992,7.1992,6.9633,6.8825,6.8031,6.77,6.77,6.77,6.77,6.77,6.77,6.7741,6.776,6.7694,6.7566,6.7386,6.7368,6.7122,6.6639,6.5872,6.5016,6.4353,6.4929,6.4855,6.4291,6.4645,6.4748,6.4659,6.4522,6.4389,6.4389,6.4509,6.4693,6.5013,6.5,6.4823,6.4571,6.4353,6.4026,6.332,6.2518,6.2095,6.2018,6.1402,6.105,6.0973,6.0973,6.1012,6.0935,6.0896,6.0935,6.105,6.1672,6.2864,6.4166,6.4551,6.4936,6.5551,6.582,6.5859,6.5782,6.582,6.5865,6.5743,6.5859,6.5916,6.5921,6.5915,6.5933,6.5943,6.5937,6.5957,6.607,6.6114,6.6069,6.5952,6.6136,6.6521,6.7063,6.7212,6.75,6.8397,6.9182,6.9435,6.8999,6.8782,6.8482,6.7715,6.6984,6.6468,6.6344,6.6351,6.6387,6.6393,6.6446,6.6537,6.6812,6.7121,6.6902,6.6886,6.7943,6.8449,6.8006,6.7948,6.8746,6.9883,7.0508,7.1133,7.1445,7.1992,7.1992,7.1992,7.1992,7.1992,7.1992,7.1992,7.1992,6.9633,6.8825,6.8031,6.77,6.77,6.77,6.77,6.77,6.77,6.7928,6.8185,6.8247,6.842,6.8656,6.8677,6.8631,6.8538,6.8147,6.7304,6.6277,6.6304,6.6272,6.6063,6.6182,6.5963,6.5507,6.5666,6.5437,6.5038,6.5268,6.5527,6.5604,6.5618,6.5601,6.5429,6.4936,6.4429,6.4128,6.3358,6.2935,6.2929,6.2666,6.2506,6.2506,6.2512,6.2512,6.2474,6.2018,6.1979,6.2474,6.2781,6.3435,6.4436,6.5166,6.559,6.582,6.5904,6.5904,6.5904,6.5904,6.5904,6.5904,6.5904,6.5949,6.603,6.6023,6.6104,6.62,6.6243,6.6244,6.6287,6.6302,6.631,6.6251,6.6743,6.7342,6.8187,6.8834,6.9593,7.0248,7.0312,6.9997,6.969,6.9377,6.8595,6.7852,6.6992,6.6489,6.6412,6.6495,6.6529,6.6533,6.6613,6.6719,6.6914,6.7265,6.7422,6.7578,6.8476,6.9062,6.8789,6.914,6.9961,7.0547,7.1133,7.1523,7.1875,7.1992,7.1992,7.1992,7.1992,7.1992,7.1992,7.1992,7.1992,6.9633,6.8862,6.8017,6.77,6.7741,6.7878,6.797,6.8058,6.821,6.8487,6.8762,6.8807,6.9095,6.9521,6.9607,6.9711,6.9894,6.9912,6.9359,6.8385,6.7912,6.7664,6.7438,6.7533,6.7288,6.6721,6.6667,6.6398,6.5884,6.5864,6.5897,6.5897,6.5904,6.5859,6.5865,6.5404,6.5089,6.4974,6.4243,6.3782,6.3698,6.3468,6.3314,6.3275,6.3275,6.3468,6.3705,6.3281,6.3089,6.3352,6.3583,6.4205,6.5013,6.559,6.5904,6.5904,6.5904,6.5904,6.5904,6.5904,6.5927,6.5967,6.5963,6.6056,6.6183,6.6204,6.6275,6.6361,6.6377,6.6412,6.6499,6.6826,6.6961,6.7085,6.7339,6.8151,6.9195,7.0168,7.0586,7.0813,7.056,7.0358,7.0133,6.9603,6.8916,6.8295,6.7594,6.6853,6.6748,6.667,6.668,6.6719,6.6785,6.6875,6.6953,6.7344,6.7851,6.832,6.8906,6.918,6.9101,7.0078,7.1015,7.1211,7.168,7.1719,7.1992,7.1992,7.1992,7.1992,7.1992,7.1992,7.1992,7.1992,7.1992,6.9633,6.8825,6.8071,6.777,6.7876,6.8333,6.8521,6.8614,6.8999,6.9251,6.9333,6.9353,6.9645,7.0061,7.0137,7.0393,7.0791,7.0769,7.0703,7.0317,6.9734,6.901,6.8564,6.8782,6.8686,6.8269,6.7691,6.7218,6.6845,6.6346,6.5942,6.5904,6.5904,6.5904,6.5865,6.5859,6.5788,6.5634,6.5051,6.4705,6.4628,6.3968,6.3583,6.3583,6.366,6.3968,6.4551,6.4551,6.4243,6.3698,6.432,6.5013,6.5667,6.5904,6.5904,6.5904,6.5904,6.5904,6.5904,6.5927,6.5996,6.6041,6.6114,6.6191,6.6368,6.6402,6.6501,6.6657,6.6694,6.6649,6.692,6.7521,6.8017,6.8275,6.833,6.8858,7.0018,7.0961,7.1182,7.0715,7.0502,7.0564,7.0566,6.9907,6.957,6.918,6.8555,6.7773,6.7265,6.707,6.6953,6.6992,6.7109,6.7344,6.7578,6.7617,6.8164,6.8789,6.9375,6.9648,6.9805,7.0781,7.1523,7.1758,7.1914,7.1953,7.1992,7.1992,7.1992,7.1992,7.1992,7.1992,7.1992,7.1992,7.1992,6.9633,6.8866,6.8456,6.8296,6.8356,6.8847,6.9085,6.9106,6.9241,6.9588,6.9811,6.9874,7.0162,7.0652,7.0666,7.0777,7.0878,7.0898,7.0898,7.0878,7.0652,7.041,7.0226,7.0231,6.998,6.9391,6.8975,6.8359,6.7173,6.6865,6.6481,6.5904,6.5904,6.5904,6.5904,6.5904,6.5904,6.5904,6.5711,6.5513,6.5474,6.532,6.5205,6.5205,6.5166,6.5282,6.5551,6.5551,6.5513,6.5282,6.5397,6.5634,6.5859,6.5904,6.591,6.589,6.5916,6.5916,6.5966,6.6091,6.6118,6.6114,6.6442,6.6396,6.6527,6.6539,6.6927,6.7469,6.7717,6.7734,6.789,6.8555,6.9258,6.9921,6.9844,7.0,7.0586,7.131,7.1778,7.1584,7.1484,7.1172,7.0742,7.043,7.0078,6.9531,6.8906,6.8242,6.793,6.7461,6.7383,6.75,6.7656,6.7969,6.8203,6.8164,6.8476,6.918,6.9805,7.043,7.0664,7.1211,7.168,7.1953,7.1953,7.1992,7.1992,7.1992,7.1992,7.1992,7.1992,7.1992,7.1992,7.1992,7.1992,6.9912,6.8916,6.8977,6.9007,6.9099,6.9474,6.9835,7.0109,7.0026,7.012,7.0416,7.0448,7.0615,7.0885,7.0891,7.0898,7.0898,7.0898,7.0898,7.0898,7.0878,7.0832,7.0846,7.0898,7.0629,7.0206,6.986,6.9167,6.8205,6.7481,6.6865,6.6442,6.6058,6.5904,6.5904,6.5904,6.5904,6.5904,6.5904,6.5904,6.5904,6.5904,6.5865,6.5904,6.5904,6.5904,6.5904,6.5904,6.5904,6.5859,6.5904,6.5904,6.5904,6.5904,6.5921,6.5996,6.63,6.6588,6.6719,6.7019,6.7317,6.7401,6.7503,6.7631,6.7777,6.7753,6.8157,6.8593,6.8711,6.875,6.8867,6.9492,7.0351,7.1015,7.125,7.125,7.125,7.168,7.1758,7.1601,7.1406,7.1328,7.0742,7.0742,7.0469,7.0078,6.9765,6.9219,6.8789,6.8281,6.8008,6.8281,6.8398,6.8672,6.8945,6.8945,6.9258,6.9883,7.0469,7.1055,7.125,7.1601,7.1797,7.1992,7.1992,7.1992,7.1992,7.1992,7.1992,7.1992,7.1992,7.1992,7.1992,7.1992,7.1992,7.0551,6.9309,6.9793,7.0028,7.0177,7.0279,7.0781,7.1276,7.096,7.0805,7.0864,7.0885,7.0864,7.0898,7.0898,7.0898,7.0898,7.0898,7.0898,7.0898,7.0898,7.0898,7.0898,7.0898,7.086,7.0706,7.0129,6.9783,6.9206,6.8052,6.7321,6.6942,6.6365,6.5974,6.5936,6.5904,6.5904,6.5904,6.5904,6.5904,6.5904,6.5904,6.5904,6.5904,6.6134,6.6019,6.6051,6.6134,6.6269,6.6081,6.6038,6.6127,6.6095,6.612,6.6356,6.6608,6.722,6.7609,6.7875,6.8339,6.885,6.8929,6.8997,6.9269,6.914,6.9101,6.9219,6.9531,6.957,6.9687,6.9883,7.039,7.0937,7.1601,7.1914,7.1953,7.1992,7.1992,7.168,7.0976,7.0898,7.0859,7.082,7.082,7.082,7.0859,7.0469,7.0,6.957,6.9101,6.914,6.9453,6.9492,6.9453,6.9609,6.9726,7.0156,7.0664,7.1211,7.168,7.168,7.1875,7.1914,7.1992,7.1992,7.1992,7.1992,7.1992,7.1992,7.1992,7.1992,7.1992,7.1992,7.1992,7.1992,7.1812,7.1504,7.1848,7.1978,7.1966,7.1842,7.1855,7.197,7.1241,7.0975,7.0898,7.0898,7.0898,7.0898,7.0898,7.0898,7.0898,7.0898,7.0898,7.0898,7.0898,7.0898,7.0898,7.0898,7.0898,7.0821,7.0744,7.0321,6.9667,6.9244,6.8398,6.7212,6.6904,6.6519,6.5974,6.5904,6.5904,6.5904,6.5904,6.5904,6.5904,6.5904,6.5942,6.6019,6.6481,6.6487,6.6327,6.7167,6.7568,6.72,6.6983,6.7043,6.7165,6.7632,6.7952,6.8159,6.8373,6.8588,6.8721,6.9007,6.9174,6.9398,6.9514,6.9375,6.9375,6.957,6.9844,7.0234,7.0469,7.0703,7.1133,7.0898,7.1211,7.1758,7.1992,7.1992,7.1992,7.1992,7.1875,7.1758,7.164,7.1719,7.168,7.1601,7.1601,7.1601,7.1211,7.0703,7.0312,6.9961,7.0156,7.043,7.0273,7.0234,7.0586,7.0664,7.082,7.1172,7.168,7.1992,7.1992,7.1992,7.1992,7.1992,7.1992,7.1992,7.1992,7.1992,7.1992,7.1992,7.1992,7.1992,7.1992,7.1992,7.1992,7.2694,7.2609,7.3032,7.3202,7.3165,7.2924,7.2783,7.2629,7.186,7.1283,7.0937,7.0898,7.0898,7.0898,7.0898,7.0898,7.0898,7.0898,7.0898,7.0898,7.0898,7.0898,7.0898,7.0898,7.0898,7.0898,7.0898,7.0591,7.0283,6.9821,6.8975,6.7744,6.7321,6.6628,6.6013,6.5942,6.5904,6.5904,6.5904,6.5904,6.5904,6.5904,6.6173,6.6404,6.691,6.7038,6.7359,6.8027,6.8305,6.8256,6.8349,6.8365,6.8165,6.8552,6.8882,6.9047,6.9468,6.966,6.9779,7.0199,7.0569,7.0469,7.0586,7.0625,7.0625,7.0664,7.082,7.1172,7.1328,7.1523,7.1914,7.168,7.164,7.1797,7.1992,7.1992,7.1992,7.1992,7.1992,7.1992,7.1953,7.1953,7.1992,7.1992,7.1953,7.1797,7.1797,7.1328,7.1367,7.1094,7.1094,7.1172,7.0937,7.1015,7.1523,7.164,7.1484,7.164,7.1836,7.1992,7.1992,7.1992,7.1992,7.1992,7.1992,7.1992,7.1992,7.1992,7.1992,7.1992,7.1992,7.1992,7.1992,7.1992,7.1992,7.353,7.3388,7.397,7.4214,7.4185,7.3837,7.3584,7.3353,7.2552,7.1629,7.1014,7.0898,7.0898,7.0898,7.0898,7.0898,7.0898,7.0898,7.0898,7.0898,7.0898,7.0898,7.0898,7.0898,7.0898,7.0898,7.0898,7.0821,7.0629,7.0206,6.9552,6.8622,6.7936,6.7205,6.6404,6.6244,6.6244,6.5981,6.6128,6.6211,6.6173,6.6179,6.6538,6.726,6.769,6.7956,6.8491,6.8988,6.9234,6.9188,6.9943,6.9955,6.9582,6.9334,6.9424,6.9715,7.0387,7.0717,7.0898,7.1406,7.1797,7.1992,7.1953,7.1914,7.1875,7.1758,7.1758,7.1836,7.1875,7.1875,7.1992,7.1914,7.1914,7.1992,7.1992,7.1992,7.1992,7.1992,7.1992,7.1992,7.1992,7.1992,7.1992,7.1992,7.1992,7.1992,7.1992,7.1992,7.1992,7.1953,7.1797,7.1719,7.1484,7.1367,7.1797,7.1914,7.1875,7.1875,7.1992,7.1992,7.1992,7.1992,7.1992,7.1992,7.1992,7.1992,7.1992,7.1992,7.1992,7.1992,7.1992,7.1992,7.1992,7.1992,7.1992,7.4791,7.4798,7.54,7.5649,7.5503,7.4839,7.4123,7.3437,7.2629,7.1713,7.1014,7.0898,7.0898,7.0898,7.0898,7.0898,7.0898,7.0898,7.0898,7.0898,7.0898,7.0898,7.0898,7.0898,7.0898,7.0898,7.0898,7.0898,7.0898,7.0706,7.0129,6.9552,6.9206,6.8398,6.7475,6.7475,6.7128,6.6436,6.6667,6.6904,6.6904,6.6993,6.7411,6.832,6.8854,6.9138,6.9305,7.0247,7.0826,7.0411,7.1006,7.1318,7.1259,7.1117,7.1169,7.1289,7.1445,7.1562,7.168,7.1836,7.1992,7.1992,7.1992,7.1992,7.1992,7.1992,7.1992,7.1992,7.1992,7.2031,7.1992,7.2109,7.207,7.2031,7.2109,7.2109,7.207,7.2031,7.1992,7.1992,7.1992,7.1992,7.1992,7.1992,7.1992,7.1992,7.1992,7.1992,7.1992,7.1992,7.1953,7.1914,7.1914,7.1875,7.1992,7.1992,7.1953,7.1953,7.1992,7.1992,7.1992,7.1992,7.1992,7.1992,7.1992,7.1992,7.1992,7.1992,7.1992,7.1992,7.1992,7.1992,7.1992,7.1992,7.1992,7.528,7.5584,7.5864,7.5976,7.5938,7.5592,7.4892,7.4084,7.3245,7.236,7.1629,7.1129,7.0898,7.0898,7.0898,7.0898,7.0898,7.0898,7.0898,7.0898,7.0898,7.0898,7.0898,7.0898,7.0898,7.0898,7.0898,7.0898,7.0898,7.0898,7.0475,6.986,6.9706,6.9013,6.8122,6.8084,6.7968,6.7359,6.7558,6.7757,6.7789,6.7868,6.8457,6.9202,6.9791,7.0092,7.057,7.0949,7.1511,7.1381,7.1625,7.1875,7.1953,7.1914,7.1875,7.1953,7.1992,7.1992,7.1992,7.1992,7.1992,7.1992,7.1992,7.1992,7.1992,7.1992,7.2031,7.1992,7.2031,7.2187,7.2617,7.2617,7.289,7.3164,7.2969,7.2695,7.2578,7.2265,7.2148,7.2109,7.2109,7.2109,7.1992,7.1992,7.1992,7.1992,7.1992,7.2031,7.2031,7.2109,7.2187,7.1992,7.1992,7.1992,7.1992,7.1992,7.1992,7.1992,7.1992,7.1992,7.1992,7.1992,7.1992,7.1992,7.1992,7.1992,7.1992,7.1992,7.1992,7.1992,7.1992,7.1992,7.1992,7.1992,7.1992,7.5567,7.5976,7.5976,7.5976,7.5976,7.5976,7.5476,7.4661,7.4007,7.3238,7.2399,7.1629,7.1206,7.1129,7.0975,7.0898,7.0898,7.0898,7.0898,7.0898,7.0898,7.0898,7.0898,7.0898,7.0898,7.0898,7.0898,7.0898,7.0898,7.0898,7.0514,7.0206,6.9975,6.9507,6.8891,6.9007,6.8776,6.8488,6.8642,6.8706,6.8811,6.91,6.9524,7.0175,7.0424,7.0912,7.1473,7.1676,7.1813,7.1875,7.1953,7.1992,7.1992,7.1992,7.1992,7.1992,7.1992,7.1992,7.1992,7.1992,7.1992,7.1992,7.1992,7.207,7.2305,7.2383,7.2265,7.207,7.1992,7.2344,7.2969,7.3242,7.3672,7.4101,7.3906,7.3515,7.3398,7.3164,7.2734,7.2617,7.2422,7.2305,7.2226,7.1992,7.1992,7.2226,7.2226,7.2187,7.2226,7.2461,7.2461,7.2109,7.1992,7.1992,7.1992,7.1992,7.1992,7.1992,7.1992,7.1992,7.1992,7.1992,7.1992,7.1992,7.1992,7.1992,7.1992,7.1992,7.1992,7.1992,7.1992,7.1992,7.1992,7.1992,7.1992,7.5932,7.5976,7.5976,7.5976,7.5976,7.5976,7.5515,7.4776,7.4584,7.4123,7.3283,7.2399,7.1944,7.1706,7.1168,7.0937,7.0898,7.0898,7.0898,7.0898,7.0898,7.0898,7.0898,7.0898,7.0898,7.0898,7.0898,7.0898,7.0898,7.0898,7.086,7.0667,7.0552,7.036,6.9661,6.9975,6.9783,6.8873,6.9303,6.9808,7.0048,7.065,7.1102,7.1302,7.1435,7.1554,7.1875,7.1914,7.1953,7.1992,7.1992,7.1992,7.1992,7.1992,7.1992,7.1992,7.1992,7.1992,7.1992,7.2109,7.2148,7.2187,7.2187,7.2461,7.289,7.3008,7.2734,7.2031,7.207,7.2617,7.3398,7.3437,7.3828,7.4336,7.4687,7.4492,7.4336,7.3906,7.3515,7.3437,7.3398,7.289,7.2578,7.2265,7.2031,7.2265,7.2461,7.2461,7.2539,7.289,7.3086,7.2812,7.2734,7.2734,7.2578,7.25,7.2265,7.2187,7.2031,7.1992,7.1992,7.1992,7.1992,7.1992,7.1992,7.1992,7.1992,7.1992,7.1992,7.1992,7.1992,7.1992,7.1992,7.1992,7.1992,7.5976,7.5976,7.5976,7.5976,7.5976,7.5976,7.5822,7.5399,7.4892,7.4507,7.3969,7.2745,7.1944,7.1475,7.1014,7.0898,7.0898,7.0898,7.0898,7.0898,7.0898,7.0898,7.0898,7.0898,7.0898,7.0898,7.0898,7.0898,7.0898,7.0905,7.0898,7.0898,7.0898,7.0744,7.0316,7.0713,7.0529,7.0291,7.0525,7.0849,7.1024,7.1344,7.1642,7.1691,7.1808,7.1914,7.1953,7.1992,7.1992,7.1992,7.1992,7.1992,7.1992,7.1992,7.1992,7.1992,7.1992,7.1992,7.2031,7.2461,7.2617,7.289,7.3125,7.3711,7.3906,7.3594,7.3476,7.3515,7.3008,7.3359,7.4375,7.4726,7.5273,7.5625,7.5508,7.539,7.5195,7.4687,7.4336,7.4336,7.4297,7.3828,7.3398,7.3125,7.2773,7.2539,7.293,7.3164,7.332,7.3633,7.375,7.375,7.3711,7.3711,7.3515,7.3359,7.293,7.2695,7.2109,7.207,7.1992,7.1992,7.1992,7.1992,7.1992,7.1992,7.1992,7.1992,7.1992,7.1992,7.1992,7.1992,7.1992,7.1992,7.207,7.5976,7.5976,7.5976,7.5976,7.5976,7.5976,7.5976,7.5899,7.5322,7.5053,7.4584,7.3322,7.1975,7.1091,7.0937,7.0898,7.0898,7.0898,7.0898,7.0898,7.0898,7.0898,7.0898,7.0898,7.0898,7.0898,7.0898,7.0927,7.0966,7.096,7.0985,7.0912,7.0898,7.0895,7.0953,7.1016,7.0965,7.1209,7.1332,7.1497,7.1592,7.1694,7.1754,7.1813,7.1914,7.1992,7.1992,7.1992,7.1992,7.1992,7.1992,7.1992,7.1992,7.1992,7.1992,7.207,7.2187,7.2422,7.2578,7.2851,7.3242,7.3633,7.4219,7.4609,7.4062,7.375,7.3555,7.3945,7.3555,7.418,7.5351,7.5781,7.6133,7.6367,7.6523,7.6367,7.6133,7.5703,7.5312,7.5195,7.5117,7.4961,7.457,7.4219,7.375,7.3086,7.3242,7.3789,7.414,7.4492,7.4375,7.4375,7.4336,7.4297,7.414,7.3945,7.3594,7.3164,7.2539,7.2109,7.2031,7.1992,7.1992,7.1992,7.1992,7.1992,7.1992,7.1992,7.1992,7.1992,7.1992,7.1992,7.1992,7.1992,7.2031,7.5976,7.5976,7.5976,7.5976,7.5976,7.5976,7.5976,7.5976,7.5899,7.5784,7.5322,7.4053,7.2283,7.1245,7.0898,7.0898,7.0898,7.0898,7.0898,7.0898,7.0898,7.0898,7.0912,7.0925,7.0907,7.0952,7.0998,7.1074,7.1131,7.119,7.1068,7.092,7.1004,7.105,7.1131,7.1213,7.1365,7.1541,7.1665,7.1792,7.1875,7.1914,7.1953,7.1953,7.1992,7.1992,7.1992,7.1992,7.1992,7.1992,7.1992,7.1992,7.1992,7.1992,7.1992,7.2305,7.2734,7.3008,7.3242,7.3476,7.3437,7.3828,7.4609,7.5312,7.4492,7.4414,7.418,7.3906,7.3867,7.4375,7.5351,7.6015,7.6523,7.6797,7.6953,7.6914,7.6797,7.6836,7.6445,7.6133,7.5937,7.582,7.5703,7.539,7.4609,7.3945,7.4414,7.4961,7.5156,7.539,7.5,7.4883,7.4805,7.4726,7.4609,7.4375,7.4101,7.3555,7.289,7.2383,7.2031,7.1992,7.1992,7.1992,7.1992,7.1992,7.1992,7.1992,7.1992,7.1992,7.1992,7.1992,7.1992,7.1992,7.1992,7.5976,7.5976,7.5976,7.5976,7.5976,7.5976,7.5976,7.5976,7.5976,7.5361,7.443,7.3206,7.2052,7.1168,7.0898,7.0898,7.0898,7.0898,7.0905,7.0898,7.0898,7.0898,7.0952,7.1041,7.1097,7.1131,7.1206,7.129,7.1391,7.1403,7.1335,7.129,7.1271,7.1313,7.1373,7.1435,7.1573,7.1675,7.1836,7.1914,7.1953,7.1992,7.1992,7.1992,7.1992,7.1992,7.1992,7.1992,7.1992,7.1992,7.1992,7.1992,7.1992,7.1992,7.2265,7.2656,7.3164,7.3594,7.418,7.457,7.5117,7.5742,7.6289,7.6289,7.5273,7.5117,7.5273,7.5078,7.457,7.4805,7.6289,7.6719,7.6914,7.7109,7.7226,7.7226,7.7226,7.7226,7.7148,7.664,7.6719,7.6758,7.668,7.6523,7.5664,7.4883,7.5508,7.6015,7.6172,7.6289,7.5937,7.5742,7.5703,7.582,7.5742,7.5273,7.4648,7.3945,7.3242,7.2617,7.207,7.1992,7.1992,7.1992,7.1992,7.1992,7.1992,7.1992,7.1992,7.1992,7.1992,7.1992,7.1992,7.1992,7.207,7.5976,7.5976,7.5707,7.5745,7.5976,7.5976,7.5822,7.563,7.5592,7.4668,7.3091,7.2437,7.1706,7.1091,7.0898,7.0898,7.0898,7.0905,7.094,7.096,7.1004,7.1029,7.1087,7.1177,7.1299,7.134,7.1393,7.1481,7.1557,7.1557,7.1588,7.1609,7.1617,7.1612,7.1591,7.1718,7.1802,7.1854,7.1914,7.1992,7.1992,7.1992,7.1992,7.1992,7.1992,7.1992,7.1992,7.1992,7.1992,7.1992,7.1992,7.1992,7.1992,7.2109,7.25,7.3047,7.3633,7.4101,7.4922,7.5508,7.6289,7.6758,7.6992,7.6992,7.6523,7.5508,7.5195,7.6133,7.539,7.5312,7.6953,7.7109,7.707,7.7226,7.7226,7.7226,7.7226,7.7226,7.7226,7.707,7.7187,7.7148,7.707,7.6914,7.6562,7.5937,7.625,7.664,7.6758,7.6836,7.6875,7.6797,7.6836,7.6953,7.707,7.582,7.4648,7.418,7.3437,7.2617,7.2148,7.207,7.1992,7.1992,7.1992,7.1992,7.1992,7.1992,7.1992,7.1992,7.1992,7.1992,7.1992,7.2031,7.2305,7.5938,7.5899,7.5046,7.5207,7.5784,7.5976,7.5476,7.4784,7.4623,7.3783,7.2437,7.2136,7.1668,7.1014,7.0898,7.0932,7.0947,7.0934,7.1029,7.1164,7.1177,7.1308,7.1377,7.1449,7.1478,7.1474,7.1549,7.1631,7.1688,7.1727,7.1801,7.1875,7.1875,7.1854,7.174,7.1904,7.1992,7.1992,7.1992,7.1992,7.1992,7.1992,7.1992,7.1992,7.1992,7.1992,7.1992,7.1992,7.1992,7.1992,7.1992,7.1992,7.1992,7.2148,7.2617,7.3359,7.418,7.4961,7.5781,7.5898,7.6445,7.707,7.7187,7.6992,7.6133,7.5351,7.5195,7.6367,7.543,7.5625,7.6523,7.7226,7.7226,7.7226,7.7226,7.7226,7.7226,7.7226,7.7226,7.7226,7.7226,7.7226,7.7187,7.7187,7.7148,7.7031,7.7148,7.7226,7.7226,7.7226,7.7226,7.7226,7.7226,7.7226,7.6953,7.5664,7.4648,7.4219,7.3633,7.2773,7.2226,7.2031,7.1992,7.1992,7.1992,7.1992,7.1992,7.1992,7.1992,7.1992,7.1992,7.1992,7.1992,7.2148,7.2539,7.4353,7.4315,7.4007,7.4046,7.4315,7.4353,7.4161,7.386,7.3322,7.2713,7.2175,7.1668,7.1245,7.0937,7.09,7.0992,7.1097,7.112,7.1188,7.136,7.1381,7.1412,7.1505,7.1601,7.1635,7.1659,7.1732,7.1797,7.1906,7.1875,7.1914,7.1992,7.1992,7.1953,7.191,7.1992,7.1992,7.1992,7.1992,7.1992,7.1992,7.1992,7.1992,7.1992,7.1992,7.1992,7.1992,7.1992,7.1992,7.1992,7.1992,7.1992,7.2148,7.2344,7.3203,7.4101,7.4961,7.5859,7.6484,7.6797,7.6875,7.7109,7.7187,7.707,7.668,7.5937,7.6094,7.6289,7.582,7.6172,7.6914,7.7187,7.7226,7.7226,7.7226,7.7226,7.7226,7.7226,7.7226,7.7226,7.7226,7.7226,7.7226,7.7226,7.7226,7.7226,7.7226,7.7226,7.7226,7.7226,7.7226,7.7226,7.7226,7.7226,7.6797,7.5586,7.4687,7.4219,7.3633,7.293,7.2461,7.207,7.1992,7.1992,7.1992,7.1992,7.1992,7.1992,7.1992,7.1992,7.1992,7.1992,7.1992,7.2422,7.3008,7.3507,7.3469,7.3168,7.3053,7.3084,7.3353,7.3353,7.2937,7.2168,7.1745,7.1629,7.1129,7.0947,7.1011,7.1022,7.1092,7.1299,7.1317,7.1397,7.1554,7.1569,7.1614,7.1704,7.1758,7.1803,7.1836,7.1914,7.1992,7.1992,7.1992,7.1992,7.1992,7.1992,7.1992,7.1992,7.1992,7.1992,7.1992,7.1992,7.1992,7.1992,7.1992,7.1992,7.1992,7.1992,7.1992,7.1992,7.1992,7.1992,7.1992,7.1992,7.1992,7.2226,7.2812,7.3711,7.457,7.5742,7.6523,7.6992,7.7148,7.7148,7.7187,7.7226,7.7226,7.707,7.6289,7.6445,7.6562,7.6328,7.6562,7.6992,7.7148,7.7226,7.7226,7.7226,7.7226,7.7226,7.7226,7.7226,7.7226,7.7226,7.7226,7.7226,7.7226,7.7226,7.7226,7.7226,7.7226,7.7226,7.7226,7.7187,7.7187,7.707,7.6953,7.6523,7.5664,7.4844,7.4219,7.3476,7.2695,7.2422,7.1992,7.1992,7.1992,7.1992,7.1992,7.1992,7.1992,7.1992,7.1992,7.1992,7.1992,7.2031,7.2617,7.3398,7.3392,7.3276,7.2514,7.2168,7.2322,7.2937,7.286,7.2098,7.1321,7.095,7.0939,7.0997,7.1053,7.1201,7.1188,7.1296,7.146,7.1488,7.1596,7.1708,7.1732,7.1809,7.1875,7.1953,7.1953,7.1953,7.1992,7.1992,7.1992,7.1992,7.1992,7.1992,7.1992,7.1992,7.1992,7.1992,7.1992,7.1992,7.1992,7.1992,7.1992,7.1992,7.1992,7.1992,7.1992,7.1992,7.1992,7.1992,7.1992,7.1992,7.1992,7.1992,7.2265,7.289,7.375,7.4883,7.6406,7.6914,7.7187,7.7226,7.7226,7.7226,7.7226,7.7226,7.7031,7.6601,7.6719,7.6797,7.664,7.6797,7.7031,7.7109,7.7226,7.7226,7.7226,7.7226,7.7226,7.7226,7.7226,7.7226,7.7226,7.7226,7.7226,7.7226,7.7226,7.7226,7.7226,7.7226,7.7226,7.7226,7.7187,7.7148,7.6953,7.664,7.6094,7.5312,7.457,7.3789,7.293,7.2226,7.2031,7.1992,7.1992,7.1992,7.1992,7.1992,7.1992,7.1992,7.1992,7.1992,7.1992,7.2265,7.2344,7.3086,7.3789,7.1622,7.1629,7.1398,7.1283,7.1283,7.1552,7.1514,7.1245,7.0982,7.0979,7.1137,7.1137,7.1236,7.1424,7.1401,7.1521,7.1601,7.1659,7.1789,7.1836,7.1875,7.1953,7.1992,7.1992,7.1992,7.1992,7.1992,7.1992,7.1992,7.1992,7.1992,7.1992,7.1992,7.1992,7.1992,7.1992,7.1992,7.1992,7.1992,7.1992,7.1992,7.1992,7.1992,7.1992,7.1992,7.1992,7.1992,7.1992,7.1992,7.1992,7.1992,7.1992,7.207,7.3398,7.4726,7.6289,7.6992,7.7187,7.7226,7.7226,7.7226,7.7226,7.7226,7.7226,7.7109,7.6992,7.6875,7.6914,7.6914,7.7031,7.7109,7.7148,7.7226,7.7226,7.7226,7.7226,7.7226,7.7226,7.7226,7.7226,7.7226,7.7226,7.7226,7.7226,7.7226,7.7226,7.7226,7.7226,7.7226,7.7226,7.7187,7.7148,7.6875,7.6523,7.5625,7.4844,7.4062,7.3281,7.25,7.1992,7.1992,7.1992,7.1992,7.1992,7.1992,7.1992,7.1992,7.1992,7.1992,7.1992,7.2031,7.2383,7.2812,7.3515,7.4297,7.0898,7.0898,7.0898,7.0898,7.0898,7.0898,7.0898,7.0898,7.0898,7.1016,7.1201,7.1211,7.1331,7.1524,7.1588,7.1651,7.1808,7.1812,7.1875,7.1953,7.1992,7.1992,7.1992,7.1992,7.1992,7.1992,7.1992,7.1992,7.1992,7.1992,7.1992,7.1992,7.1992,7.1992,7.1992,7.1992,7.1992,7.1992,7.1992,7.1992,7.1992,7.1992,7.1992,7.1992,7.1992,7.1992,7.1992,7.1992,7.1992,7.1992,7.1992,7.1992,7.2305,7.3633,7.5351,7.668,7.7148,7.7226,7.7226,7.7226,7.7226,7.7226,7.7226,7.7226,7.7226,7.7148,7.7148,7.7148,7.7187,7.7187,7.7187,7.7226,7.7226,7.7226,7.7226,7.7226,7.7226,7.7226,7.7226,7.7226,7.7226,7.7226,7.7226,7.7226,7.7226,7.7226,7.7226,7.7226,7.7226,7.7226,7.7226,7.7187,7.6797,7.6406,7.539,7.4375,7.3711,7.3047,7.2422,7.1992,7.1992,7.2031,7.2031,7.2031,7.1992,7.1992,7.1992,7.1992,7.1992,7.1992,7.207,7.2422,7.3008,7.3828,7.4687,7.0898,7.0898,7.0898,7.0898,7.0898,7.0898,7.0919,7.09,7.0934,7.1059,7.1236,7.1252,7.1439,7.1679,7.1741,7.1808,7.1914,7.1953,7.1953,7.1992,7.1992,7.1992,7.1992,7.1992,7.1992,7.1992,7.1992,7.1992,7.1992,7.1992,7.1992,7.1992,7.1992,7.1992,7.1992,7.1992,7.1992,7.1992,7.1992,7.1992,7.1992,7.1992,7.1992,7.1992,7.1992,7.1992,7.1992,7.1992,7.2031,7.207,7.1992,7.2031,7.2734,7.3672,7.539,7.6484,7.7031,7.7226,7.7226,7.7226,7.7226,7.7226,7.7226,7.7226,7.7226,7.7226,7.7226,7.7226,7.7226,7.7226,7.7226,7.7226,7.7226,7.7226,7.7226,7.7226,7.7226,7.7226,7.7226,7.7226,7.7226,7.7226,7.7226,7.7226,7.7226,7.7226,7.7226,7.7226,7.7226,7.7226,7.7031,7.6992,7.664,7.6015,7.4844,7.3945,7.3437,7.2812,7.2265,7.2265,7.2422,7.2305,7.2109,7.207,7.1992,7.1992,7.1992,7.1992,7.1992,7.1992,7.2148,7.2461,7.3125,7.3984,7.4844,7.0898,7.0898,7.0898,7.0898,7.0898,7.0898,7.1017,7.1109,7.1115,7.1233,7.1412,7.1521,7.1677,7.1862,7.1914,7.1953,7.1992,7.1992,7.1992,7.1992,7.1992,7.1992,7.1992,7.1992,7.1992,7.1992,7.1992,7.1992,7.1992,7.1992,7.1992,7.1992,7.1992,7.1992,7.1992,7.1992,7.1992,7.1992,7.1992,7.1992,7.1992,7.1992,7.1992,7.1992,7.1992,7.1992,7.1992,7.1992,7.2422,7.2773,7.2226,7.2422,7.3008,7.4062,7.5078,7.6055,7.6836,7.7148,7.7226,7.7226,7.7226,7.7226,7.7226,7.7226,7.7226,7.7226,7.7226,7.7226,7.7226,7.7226,7.7187,7.7187,7.7187,7.7187,7.7226,7.7226,7.7226,7.7226,7.7226,7.7226,7.7226,7.7226,7.7226,7.7226,7.7226,7.7226,7.7226,7.7226,7.7226,7.7148,7.6562,7.6445,7.6289,7.5586,7.4531,7.3828,7.3437,7.289,7.2344,7.25,7.2812,7.2578,7.2305,7.2109,7.1992,7.1992,7.1992,7.1992,7.1992,7.1992,7.207,7.2305,7.3047,7.3867,7.4805,7.0898,7.0898,7.0898,7.0898,7.0898,7.0898,7.1016,7.1206,7.1299,7.1431,7.1586,7.1671,7.181,7.1992,7.1992,7.1992,7.1992,7.1992,7.1992,7.1992,7.1992,7.1992,7.1992,7.1992,7.1992,7.1992,7.1992,7.1992,7.1992,7.1992,7.1992,7.1992,7.1992,7.1992,7.1992,7.1992,7.1992,7.1992,7.1992,7.1992,7.1992,7.1992,7.1992,7.1992,7.1992,7.1992,7.1992,7.1992,7.2265,7.2539,7.2148,7.2539,7.3203,7.4101,7.5,7.5898,7.664,7.7226,7.7226,7.7226,7.7226,7.7226,7.7226,7.7226,7.7226,7.7226,7.7226,7.7226,7.7226,7.7226,7.7109,7.7109,7.707,7.707,7.7148,7.7226,7.7226,7.7226,7.7226,7.7226,7.7226,7.7226,7.7226,7.7226,7.7226,7.7226,7.7226,7.7187,7.7187,7.6992,7.6406,7.6015,7.5898,7.582,7.5273,7.4453,7.375,7.3125,7.2383,7.2695,7.2969,7.2734,7.25,7.2187,7.1992,7.1992,7.1992,7.1992,7.1992,7.1992,7.2031,7.2148,7.293,7.3672,7.4453,7.0898,7.0898,7.0898,7.0898,7.0898,7.0898,7.1016,7.1231,7.1393,7.1569,7.1681,7.1741,7.1859,7.1953,7.1992,7.1992,7.1992,7.1992,7.1992,7.1992,7.1992,7.1992,7.1992,7.1992,7.1992,7.1992,7.1992,7.1992,7.1992,7.1992,7.1992,7.1992,7.1992,7.1992,7.1992,7.1992,7.1992,7.1992,7.1992,7.1992,7.1992,7.1992,7.1992,7.1992,7.1992,7.1992,7.1992,7.1992,7.2031,7.2383,7.25,7.2695,7.332,7.414,7.4883,7.5742,7.664,7.707,7.7226,7.7226,7.7226,7.7226,7.7187,7.7187,7.7148,7.7148,7.7148,7.7109,7.7109,7.7148,7.707,7.6996,7.6949,7.6953,7.707,7.7109,7.7109,7.7109,7.7109,7.7109,7.7109,7.7109,7.7109,7.7148,7.7148,7.7148,7.7187,7.7187,7.707,7.6719,7.625,7.5898,7.5664,7.5625,7.5156,7.4687,7.3672,7.3047,7.2422,7.2851,7.3086,7.289,7.2578,7.2148,7.1992,7.1992,7.1992,7.1992,7.1992,7.1992,7.2031,7.2109,7.2422,7.3164,7.3945,7.0898,7.0898,7.0898,7.0898,7.0898,7.0898,7.1016,7.1236,7.1439,7.1577,7.1735,7.1864,7.1992,7.1992,7.1992,7.1992,7.1992,7.1992,7.1992,7.1992,7.1992,7.1992,7.1992,7.1992,7.1992,7.1992,7.1992,7.1992,7.1992,7.1992,7.1992,7.1992,7.1992,7.1992,7.1992,7.1992,7.1992,7.1992,7.1992,7.1992,7.1992,7.1992,7.1992,7.1992,7.1992,7.1992,7.1992,7.1992,7.2422,7.3008,7.3398,7.3086,7.3281,7.4023,7.4805,7.5117,7.6055,7.664,7.6758,7.6797,7.6758,7.6953,7.6953,7.6953,7.6953,7.6953,7.6914,7.6797,7.6836,7.6992,7.6942,7.6924,7.687,7.6845,7.6875,7.6836,7.6797,7.6797,7.6797,7.6797,7.6797,7.6797,7.6797,7.6797,7.6875,7.688,7.6996,7.7005,7.7028,7.6601,7.6015,7.5664,7.5351,7.4023,7.3047,7.3867,7.332,7.2734,7.2383,7.2617,7.2851,7.3047,7.2734,7.2148,7.1992,7.1992,7.1992,7.1992,7.1992,7.1992,7.1992,7.207,7.2265,7.2695,7.3555]}]]